<?xml version="1.0" encoding="UTF-8" standalone="no" ?>
<gpx xmlns="http://www.topografix.com/GPX/1/1" xmlns:xsi="http://www.w3.org/2001/XMLSchema-instance" xsi:schemaLocation="http://www.topografix.com/GPX/1/1 http://www.topografix.com/GPX/1/1/gpx.xsd" version="1.1" creator="VisuGPX - https://www.visugpx.com">
  <metadata>
    <name>saugues-le sauvage</name>
    <desc><![CDATA[3 eme étape]]></desc>
  </metadata>
  <trk>
    <name><![CDATA[SAUGUES SAUVAGE9-05-13]]></name>
    <trkseg>
      <trkpt lat="44.95725" lon="3.54941">
        <ele>976.36</ele>
        <time>2013-05-08T15:28:41Z</time>
      </trkpt>
      <trkpt lat="44.95725" lon="3.54941">
        <ele>969.15</ele>
        <time>2013-05-08T15:28:50Z</time>
      </trkpt>
      <trkpt lat="44.95725" lon="3.54941">
        <ele>977.8</ele>
        <time>2013-05-08T15:28:51Z</time>
      </trkpt>
      <trkpt lat="44.95725" lon="3.54941">
        <ele>972.03</ele>
        <time>2013-05-08T15:28:58Z</time>
      </trkpt>
      <trkpt lat="44.95725" lon="3.54941">
        <ele>976.84</ele>
        <time>2013-05-08T15:28:59Z</time>
      </trkpt>
      <trkpt lat="44.95725" lon="3.54941">
        <ele>972.03</ele>
        <time>2013-05-08T15:29:07Z</time>
      </trkpt>
      <trkpt lat="44.95725" lon="3.54941">
        <ele>977.32</ele>
        <time>2013-05-08T15:29:08Z</time>
      </trkpt>
      <trkpt lat="44.95725" lon="3.54941">
        <ele>980.68</ele>
        <time>2013-05-08T15:29:10Z</time>
      </trkpt>
      <trkpt lat="44.95725" lon="3.54941">
        <ele>976.84</ele>
        <time>2013-05-08T15:29:11Z</time>
      </trkpt>
      <trkpt lat="44.95725" lon="3.54941">
        <ele>976.84</ele>
        <time>2013-05-08T15:29:12Z</time>
      </trkpt>
      <trkpt lat="44.95725" lon="3.54942">
        <ele>976.84</ele>
        <time>2013-05-08T15:29:47Z</time>
      </trkpt>
      <trkpt lat="44.95725" lon="3.54942">
        <ele>983.57</ele>
        <time>2013-05-08T15:30:10Z</time>
      </trkpt>
      <trkpt lat="44.95725" lon="3.54942">
        <ele>977.32</ele>
        <time>2013-05-08T15:30:11Z</time>
      </trkpt>
      <trkpt lat="44.95725" lon="3.54941">
        <ele>977.8</ele>
        <time>2013-05-08T15:30:13Z</time>
      </trkpt>
      <trkpt lat="44.95753" lon="3.54904">
        <ele>967.7</ele>
        <time>2013-05-08T17:53:49Z</time>
      </trkpt>
      <trkpt lat="44.95754" lon="3.54903">
        <ele>967.7</ele>
        <time>2013-05-08T17:53:50Z</time>
      </trkpt>
      <trkpt lat="44.95759" lon="3.54901">
        <ele>967.22</ele>
        <time>2013-05-08T17:53:57Z</time>
      </trkpt>
      <trkpt lat="44.95722" lon="3.54935">
        <ele>946.07</ele>
        <time>2013-05-09T06:39:30Z</time>
      </trkpt>
      <trkpt lat="44.95721" lon="3.54936">
        <ele>946.07</ele>
        <time>2013-05-09T06:39:31Z</time>
      </trkpt>
      <trkpt lat="44.95718" lon="3.54936">
        <ele>945.59</ele>
        <time>2013-05-09T06:39:48Z</time>
      </trkpt>
      <trkpt lat="44.95719" lon="3.54941">
        <ele>945.11</ele>
        <time>2013-05-09T06:40:07Z</time>
      </trkpt>
      <trkpt lat="44.95719" lon="3.5494">
        <ele>941.75</ele>
        <time>2013-05-09T06:40:34Z</time>
      </trkpt>
      <trkpt lat="44.95719" lon="3.5494">
        <ele>947.04</ele>
        <time>2013-05-09T06:40:35Z</time>
      </trkpt>
      <trkpt lat="44.95719" lon="3.54939">
        <ele>950.4</ele>
        <time>2013-05-09T06:40:40Z</time>
      </trkpt>
      <trkpt lat="44.9572" lon="3.5494">
        <ele>953.77</ele>
        <time>2013-05-09T06:40:44Z</time>
      </trkpt>
      <trkpt lat="44.95719" lon="3.5494">
        <ele>957.61</ele>
        <time>2013-05-09T06:40:48Z</time>
      </trkpt>
      <trkpt lat="44.95719" lon="3.5494">
        <ele>957.61</ele>
        <time>2013-05-09T06:40:49Z</time>
      </trkpt>
      <trkpt lat="44.95718" lon="3.5494">
        <ele>960.98</ele>
        <time>2013-05-09T06:40:54Z</time>
      </trkpt>
      <trkpt lat="44.95719" lon="3.54941">
        <ele>964.34</ele>
        <time>2013-05-09T06:41:00Z</time>
      </trkpt>
      <trkpt lat="44.95719" lon="3.54942">
        <ele>965.78</ele>
        <time>2013-05-09T06:41:03Z</time>
      </trkpt>
      <trkpt lat="44.95719" lon="3.54943">
        <ele>968.67</ele>
        <time>2013-05-09T06:41:08Z</time>
      </trkpt>
      <trkpt lat="44.95719" lon="3.54942">
        <ele>970.59</ele>
        <time>2013-05-09T06:41:12Z</time>
      </trkpt>
      <trkpt lat="44.95719" lon="3.54942">
        <ele>973.95</ele>
        <time>2013-05-09T06:41:20Z</time>
      </trkpt>
      <trkpt lat="44.95719" lon="3.54942">
        <ele>973.95</ele>
        <time>2013-05-09T06:41:21Z</time>
      </trkpt>
      <trkpt lat="44.95719" lon="3.54942">
        <ele>977.32</ele>
        <time>2013-05-09T06:41:33Z</time>
      </trkpt>
      <trkpt lat="44.95719" lon="3.54942">
        <ele>977.8</ele>
        <time>2013-05-09T06:41:34Z</time>
      </trkpt>
      <trkpt lat="44.95718" lon="3.54942">
        <ele>980.2</ele>
        <time>2013-05-09T06:41:58Z</time>
      </trkpt>
      <trkpt lat="44.95717" lon="3.54939">
        <ele>980.68</ele>
        <time>2013-05-09T06:42:12Z</time>
      </trkpt>
      <trkpt lat="44.95721" lon="3.54944">
        <ele>980.68</ele>
        <time>2013-05-09T06:42:25Z</time>
      </trkpt>
      <trkpt lat="44.95722" lon="3.5495">
        <ele>980.2</ele>
        <time>2013-05-09T06:42:39Z</time>
      </trkpt>
      <trkpt lat="44.95721" lon="3.54951">
        <ele>980.68</ele>
        <time>2013-05-09T06:42:55Z</time>
      </trkpt>
      <trkpt lat="44.95722" lon="3.54949">
        <ele>980.2</ele>
        <time>2013-05-09T06:43:08Z</time>
      </trkpt>
      <trkpt lat="44.95735" lon="3.54935">
        <ele>980.68</ele>
        <time>2013-05-09T06:43:22Z</time>
      </trkpt>
      <trkpt lat="44.95735" lon="3.54926">
        <ele>981.64</ele>
        <time>2013-05-09T06:43:34Z</time>
      </trkpt>
      <trkpt lat="44.95731" lon="3.54917">
        <ele>983.09</ele>
        <time>2013-05-09T06:43:46Z</time>
      </trkpt>
      <trkpt lat="44.95729" lon="3.54901">
        <ele>984.53</ele>
        <time>2013-05-09T06:43:59Z</time>
      </trkpt>
      <trkpt lat="44.95733" lon="3.54894">
        <ele>985.49</ele>
        <time>2013-05-09T06:44:10Z</time>
      </trkpt>
      <trkpt lat="44.9574" lon="3.54884">
        <ele>986.93</ele>
        <time>2013-05-09T06:44:24Z</time>
      </trkpt>
      <trkpt lat="44.95751" lon="3.54873">
        <ele>989.33</ele>
        <time>2013-05-09T06:44:41Z</time>
      </trkpt>
      <trkpt lat="44.95753" lon="3.54869">
        <ele>989.33</ele>
        <time>2013-05-09T06:44:46Z</time>
      </trkpt>
      <trkpt lat="44.95759" lon="3.54854">
        <ele>990.78</ele>
        <time>2013-05-09T06:45:01Z</time>
      </trkpt>
      <trkpt lat="44.95761" lon="3.54845">
        <ele>991.26</ele>
        <time>2013-05-09T06:45:14Z</time>
      </trkpt>
      <trkpt lat="44.9577" lon="3.54836">
        <ele>990.78</ele>
        <time>2013-05-09T06:45:29Z</time>
      </trkpt>
      <trkpt lat="44.95776" lon="3.54829">
        <ele>990.3</ele>
        <time>2013-05-09T06:45:42Z</time>
      </trkpt>
      <trkpt lat="44.95783" lon="3.54823">
        <ele>989.81</ele>
        <time>2013-05-09T06:45:55Z</time>
      </trkpt>
      <trkpt lat="44.9579" lon="3.54812">
        <ele>989.33</ele>
        <time>2013-05-09T06:46:09Z</time>
      </trkpt>
      <trkpt lat="44.95797" lon="3.54803">
        <ele>988.85</ele>
        <time>2013-05-09T06:46:22Z</time>
      </trkpt>
      <trkpt lat="44.95806" lon="3.54793">
        <ele>987.89</ele>
        <time>2013-05-09T06:46:35Z</time>
      </trkpt>
      <trkpt lat="44.95815" lon="3.54789">
        <ele>987.41</ele>
        <time>2013-05-09T06:46:49Z</time>
      </trkpt>
      <trkpt lat="44.95824" lon="3.54783">
        <ele>987.41</ele>
        <time>2013-05-09T06:47:01Z</time>
      </trkpt>
      <trkpt lat="44.95833" lon="3.54783">
        <ele>986.93</ele>
        <time>2013-05-09T06:47:15Z</time>
      </trkpt>
      <trkpt lat="44.95844" lon="3.54775">
        <ele>987.41</ele>
        <time>2013-05-09T06:47:31Z</time>
      </trkpt>
      <trkpt lat="44.95855" lon="3.54763">
        <ele>986.93</ele>
        <time>2013-05-09T06:47:44Z</time>
      </trkpt>
      <trkpt lat="44.95858" lon="3.54759">
        <ele>986.45</ele>
        <time>2013-05-09T06:47:48Z</time>
      </trkpt>
      <trkpt lat="44.95871" lon="3.54749">
        <ele>986.45</ele>
        <time>2013-05-09T06:48:02Z</time>
      </trkpt>
      <trkpt lat="44.95878" lon="3.54754">
        <ele>985.97</ele>
        <time>2013-05-09T06:48:10Z</time>
      </trkpt>
      <trkpt lat="44.95891" lon="3.54769">
        <ele>985.49</ele>
        <time>2013-05-09T06:48:25Z</time>
      </trkpt>
      <trkpt lat="44.95911" lon="3.54783">
        <ele>984.05</ele>
        <time>2013-05-09T06:48:42Z</time>
      </trkpt>
      <trkpt lat="44.95911" lon="3.54789">
        <ele>983.09</ele>
        <time>2013-05-09T06:48:53Z</time>
      </trkpt>
      <trkpt lat="44.95912" lon="3.54794">
        <ele>982.6</ele>
        <time>2013-05-09T06:48:57Z</time>
      </trkpt>
      <trkpt lat="44.95914" lon="3.54796">
        <ele>982.6</ele>
        <time>2013-05-09T06:48:59Z</time>
      </trkpt>
      <trkpt lat="44.95923" lon="3.54789">
        <ele>982.12</ele>
        <time>2013-05-09T06:49:11Z</time>
      </trkpt>
      <trkpt lat="44.95925" lon="3.54791">
        <ele>981.64</ele>
        <time>2013-05-09T06:49:21Z</time>
      </trkpt>
      <trkpt lat="44.95926" lon="3.54792">
        <ele>981.16</ele>
        <time>2013-05-09T06:49:34Z</time>
      </trkpt>
      <trkpt lat="44.9594" lon="3.54781">
        <ele>981.16</ele>
        <time>2013-05-09T06:49:46Z</time>
      </trkpt>
      <trkpt lat="44.95947" lon="3.54778">
        <ele>981.64</ele>
        <time>2013-05-09T06:50:00Z</time>
      </trkpt>
      <trkpt lat="44.95951" lon="3.54778">
        <ele>983.09</ele>
        <time>2013-05-09T06:50:17Z</time>
      </trkpt>
      <trkpt lat="44.95951" lon="3.54779">
        <ele>982.6</ele>
        <time>2013-05-09T06:50:28Z</time>
      </trkpt>
      <trkpt lat="44.95948" lon="3.54779">
        <ele>983.57</ele>
        <time>2013-05-09T06:50:42Z</time>
      </trkpt>
      <trkpt lat="44.95965" lon="3.54779">
        <ele>984.53</ele>
        <time>2013-05-09T06:50:58Z</time>
      </trkpt>
      <trkpt lat="44.95972" lon="3.54769">
        <ele>985.49</ele>
        <time>2013-05-09T06:51:10Z</time>
      </trkpt>
      <trkpt lat="44.95984" lon="3.54767">
        <ele>985.97</ele>
        <time>2013-05-09T06:51:22Z</time>
      </trkpt>
      <trkpt lat="44.95992" lon="3.54777">
        <ele>986.93</ele>
        <time>2013-05-09T06:51:38Z</time>
      </trkpt>
      <trkpt lat="44.95999" lon="3.54772">
        <ele>986.45</ele>
        <time>2013-05-09T06:51:49Z</time>
      </trkpt>
      <trkpt lat="44.96009" lon="3.54761">
        <ele>986.93</ele>
        <time>2013-05-09T06:52:03Z</time>
      </trkpt>
      <trkpt lat="44.96011" lon="3.54755">
        <ele>987.41</ele>
        <time>2013-05-09T06:52:18Z</time>
      </trkpt>
      <trkpt lat="44.96011" lon="3.54756">
        <ele>987.41</ele>
        <time>2013-05-09T06:52:32Z</time>
      </trkpt>
      <trkpt lat="44.96018" lon="3.54759">
        <ele>987.89</ele>
        <time>2013-05-09T06:52:46Z</time>
      </trkpt>
      <trkpt lat="44.96018" lon="3.54759">
        <ele>988.37</ele>
        <time>2013-05-09T06:53:04Z</time>
      </trkpt>
      <trkpt lat="44.96018" lon="3.54756">
        <ele>988.85</ele>
        <time>2013-05-09T06:53:25Z</time>
      </trkpt>
      <trkpt lat="44.96014" lon="3.54714">
        <ele>988.85</ele>
        <time>2013-05-09T06:53:43Z</time>
      </trkpt>
      <trkpt lat="44.96018" lon="3.54715">
        <ele>989.33</ele>
        <time>2013-05-09T06:54:03Z</time>
      </trkpt>
      <trkpt lat="44.96022" lon="3.54721">
        <ele>990.3</ele>
        <time>2013-05-09T06:54:22Z</time>
      </trkpt>
      <trkpt lat="44.96022" lon="3.54727">
        <ele>989.81</ele>
        <time>2013-05-09T06:54:25Z</time>
      </trkpt>
      <trkpt lat="44.96022" lon="3.54735">
        <ele>990.78</ele>
        <time>2013-05-09T06:54:46Z</time>
      </trkpt>
      <trkpt lat="44.96027" lon="3.54694">
        <ele>991.26</ele>
        <time>2013-05-09T06:55:04Z</time>
      </trkpt>
      <trkpt lat="44.96024" lon="3.54688">
        <ele>991.74</ele>
        <time>2013-05-09T06:55:23Z</time>
      </trkpt>
      <trkpt lat="44.96037" lon="3.54753">
        <ele>993.18</ele>
        <time>2013-05-09T07:01:26Z</time>
      </trkpt>
      <trkpt lat="44.96037" lon="3.54746">
        <ele>993.18</ele>
        <time>2013-05-09T07:01:38Z</time>
      </trkpt>
      <trkpt lat="44.96036" lon="3.5475">
        <ele>993.18</ele>
        <time>2013-05-09T07:01:50Z</time>
      </trkpt>
      <trkpt lat="44.96031" lon="3.54754">
        <ele>993.18</ele>
        <time>2013-05-09T07:02:04Z</time>
      </trkpt>
      <trkpt lat="44.9603" lon="3.54756">
        <ele>993.18</ele>
        <time>2013-05-09T07:02:19Z</time>
      </trkpt>
      <trkpt lat="44.96021" lon="3.54752">
        <ele>993.18</ele>
        <time>2013-05-09T07:02:35Z</time>
      </trkpt>
      <trkpt lat="44.96023" lon="3.54726">
        <ele>992.7</ele>
        <time>2013-05-09T07:02:48Z</time>
      </trkpt>
      <trkpt lat="44.9601" lon="3.5471">
        <ele>992.7</ele>
        <time>2013-05-09T07:03:02Z</time>
      </trkpt>
      <trkpt lat="44.96009" lon="3.54718">
        <ele>994.14</ele>
        <time>2013-05-09T07:03:19Z</time>
      </trkpt>
      <trkpt lat="44.96012" lon="3.54718">
        <ele>993.66</ele>
        <time>2013-05-09T07:03:40Z</time>
      </trkpt>
      <trkpt lat="44.96028" lon="3.54721">
        <ele>994.14</ele>
        <time>2013-05-09T07:04:01Z</time>
      </trkpt>
      <trkpt lat="44.96035" lon="3.54711">
        <ele>993.18</ele>
        <time>2013-05-09T07:04:19Z</time>
      </trkpt>
      <trkpt lat="44.96037" lon="3.54701">
        <ele>991.74</ele>
        <time>2013-05-09T07:04:31Z</time>
      </trkpt>
      <trkpt lat="44.96037" lon="3.54698">
        <ele>991.26</ele>
        <time>2013-05-09T07:04:38Z</time>
      </trkpt>
      <trkpt lat="44.96037" lon="3.54694">
        <ele>990.78</ele>
        <time>2013-05-09T07:04:49Z</time>
      </trkpt>
      <trkpt lat="44.96033" lon="3.5469">
        <ele>990.3</ele>
        <time>2013-05-09T07:05:01Z</time>
      </trkpt>
      <trkpt lat="44.96033" lon="3.54684">
        <ele>989.81</ele>
        <time>2013-05-09T07:05:15Z</time>
      </trkpt>
      <trkpt lat="44.96033" lon="3.54676">
        <ele>989.33</ele>
        <time>2013-05-09T07:05:28Z</time>
      </trkpt>
      <trkpt lat="44.96032" lon="3.54676">
        <ele>989.33</ele>
        <time>2013-05-09T07:05:38Z</time>
      </trkpt>
      <trkpt lat="44.96035" lon="3.5468">
        <ele>990.3</ele>
        <time>2013-05-09T07:05:52Z</time>
      </trkpt>
      <trkpt lat="44.96035" lon="3.5468">
        <ele>990.78</ele>
        <time>2013-05-09T07:06:06Z</time>
      </trkpt>
      <trkpt lat="44.96034" lon="3.54679">
        <ele>991.26</ele>
        <time>2013-05-09T07:06:11Z</time>
      </trkpt>
      <trkpt lat="44.96029" lon="3.54676">
        <ele>991.74</ele>
        <time>2013-05-09T07:06:21Z</time>
      </trkpt>
      <trkpt lat="44.96019" lon="3.54681">
        <ele>992.22</ele>
        <time>2013-05-09T07:06:34Z</time>
      </trkpt>
      <trkpt lat="44.96008" lon="3.54683">
        <ele>992.22</ele>
        <time>2013-05-09T07:06:56Z</time>
      </trkpt>
      <trkpt lat="44.95987" lon="3.54677">
        <ele>991.74</ele>
        <time>2013-05-09T07:07:12Z</time>
      </trkpt>
      <trkpt lat="44.95981" lon="3.54674">
        <ele>991.26</ele>
        <time>2013-05-09T07:07:27Z</time>
      </trkpt>
      <trkpt lat="44.95975" lon="3.54666">
        <ele>991.26</ele>
        <time>2013-05-09T07:07:43Z</time>
      </trkpt>
      <trkpt lat="44.95972" lon="3.54653">
        <ele>990.3</ele>
        <time>2013-05-09T07:07:58Z</time>
      </trkpt>
      <trkpt lat="44.9597" lon="3.54641">
        <ele>990.78</ele>
        <time>2013-05-09T07:08:09Z</time>
      </trkpt>
      <trkpt lat="44.95968" lon="3.54634">
        <ele>990.3</ele>
        <time>2013-05-09T07:08:23Z</time>
      </trkpt>
      <trkpt lat="44.95968" lon="3.54634">
        <ele>989.81</ele>
        <time>2013-05-09T07:08:39Z</time>
      </trkpt>
      <trkpt lat="44.95968" lon="3.5463">
        <ele>989.81</ele>
        <time>2013-05-09T07:08:52Z</time>
      </trkpt>
      <trkpt lat="44.95967" lon="3.54627">
        <ele>989.81</ele>
        <time>2013-05-09T07:09:10Z</time>
      </trkpt>
      <trkpt lat="44.95964" lon="3.54613">
        <ele>989.81</ele>
        <time>2013-05-09T07:09:25Z</time>
      </trkpt>
      <trkpt lat="44.95957" lon="3.5461">
        <ele>989.81</ele>
        <time>2013-05-09T07:09:36Z</time>
      </trkpt>
      <trkpt lat="44.95955" lon="3.54607">
        <ele>989.33</ele>
        <time>2013-05-09T07:09:48Z</time>
      </trkpt>
      <trkpt lat="44.95952" lon="3.54603">
        <ele>988.85</ele>
        <time>2013-05-09T07:10:03Z</time>
      </trkpt>
      <trkpt lat="44.9595" lon="3.54601">
        <ele>988.85</ele>
        <time>2013-05-09T07:10:19Z</time>
      </trkpt>
      <trkpt lat="44.95948" lon="3.54599">
        <ele>988.85</ele>
        <time>2013-05-09T07:10:38Z</time>
      </trkpt>
      <trkpt lat="44.95947" lon="3.54595">
        <ele>988.37</ele>
        <time>2013-05-09T07:10:54Z</time>
      </trkpt>
      <trkpt lat="44.95941" lon="3.54589">
        <ele>987.89</ele>
        <time>2013-05-09T07:11:08Z</time>
      </trkpt>
      <trkpt lat="44.95935" lon="3.54583">
        <ele>987.41</ele>
        <time>2013-05-09T07:11:21Z</time>
      </trkpt>
      <trkpt lat="44.95929" lon="3.54582">
        <ele>986.93</ele>
        <time>2013-05-09T07:11:31Z</time>
      </trkpt>
      <trkpt lat="44.95924" lon="3.54576">
        <ele>985.97</ele>
        <time>2013-05-09T07:11:44Z</time>
      </trkpt>
      <trkpt lat="44.95923" lon="3.54574">
        <ele>985.97</ele>
        <time>2013-05-09T07:11:59Z</time>
      </trkpt>
      <trkpt lat="44.95923" lon="3.54574">
        <ele>985.01</ele>
        <time>2013-05-09T07:12:27Z</time>
      </trkpt>
      <trkpt lat="44.95922" lon="3.54573">
        <ele>985.49</ele>
        <time>2013-05-09T07:12:44Z</time>
      </trkpt>
      <trkpt lat="44.95922" lon="3.54573">
        <ele>985.01</ele>
        <time>2013-05-09T07:13:05Z</time>
      </trkpt>
      <trkpt lat="44.95921" lon="3.54573">
        <ele>984.53</ele>
        <time>2013-05-09T07:13:28Z</time>
      </trkpt>
      <trkpt lat="44.95921" lon="3.54573">
        <ele>985.01</ele>
        <time>2013-05-09T07:13:45Z</time>
      </trkpt>
      <trkpt lat="44.95921" lon="3.54573">
        <ele>985.01</ele>
        <time>2013-05-09T07:14:03Z</time>
      </trkpt>
      <trkpt lat="44.95921" lon="3.54573">
        <ele>985.01</ele>
        <time>2013-05-09T07:14:16Z</time>
      </trkpt>
      <trkpt lat="44.95921" lon="3.54573">
        <ele>985.01</ele>
        <time>2013-05-09T07:14:20Z</time>
      </trkpt>
      <trkpt lat="44.95923" lon="3.54571">
        <ele>985.01</ele>
        <time>2013-05-09T07:14:31Z</time>
      </trkpt>
      <trkpt lat="44.95923" lon="3.54571">
        <ele>985.01</ele>
        <time>2013-05-09T07:14:54Z</time>
      </trkpt>
      <trkpt lat="44.95922" lon="3.54572">
        <ele>984.53</ele>
        <time>2013-05-09T07:15:22Z</time>
      </trkpt>
      <trkpt lat="44.95922" lon="3.54572">
        <ele>985.01</ele>
        <time>2013-05-09T07:15:38Z</time>
      </trkpt>
      <trkpt lat="44.95923" lon="3.5457">
        <ele>983.57</ele>
        <time>2013-05-09T07:15:52Z</time>
      </trkpt>
      <trkpt lat="44.95923" lon="3.54564">
        <ele>983.57</ele>
        <time>2013-05-09T07:16:07Z</time>
      </trkpt>
      <trkpt lat="44.95913" lon="3.54551">
        <ele>982.6</ele>
        <time>2013-05-09T07:16:17Z</time>
      </trkpt>
      <trkpt lat="44.95911" lon="3.54547">
        <ele>982.6</ele>
        <time>2013-05-09T07:16:19Z</time>
      </trkpt>
      <trkpt lat="44.95895" lon="3.54519">
        <ele>982.12</ele>
        <time>2013-05-09T07:16:35Z</time>
      </trkpt>
      <trkpt lat="44.95888" lon="3.54497">
        <ele>981.64</ele>
        <time>2013-05-09T07:16:52Z</time>
      </trkpt>
      <trkpt lat="44.95883" lon="3.54491">
        <ele>981.16</ele>
        <time>2013-05-09T07:17:07Z</time>
      </trkpt>
      <trkpt lat="44.95883" lon="3.54491">
        <ele>981.16</ele>
        <time>2013-05-09T07:17:22Z</time>
      </trkpt>
      <trkpt lat="44.95883" lon="3.54491">
        <ele>980.68</ele>
        <time>2013-05-09T07:17:38Z</time>
      </trkpt>
      <trkpt lat="44.95881" lon="3.54479">
        <ele>980.68</ele>
        <time>2013-05-09T07:17:51Z</time>
      </trkpt>
      <trkpt lat="44.95883" lon="3.5445">
        <ele>979.72</ele>
        <time>2013-05-09T07:18:07Z</time>
      </trkpt>
      <trkpt lat="44.95878" lon="3.54439">
        <ele>977.8</ele>
        <time>2013-05-09T07:18:21Z</time>
      </trkpt>
      <trkpt lat="44.95875" lon="3.54438">
        <ele>978.28</ele>
        <time>2013-05-09T07:18:35Z</time>
      </trkpt>
      <trkpt lat="44.95874" lon="3.54438">
        <ele>977.8</ele>
        <time>2013-05-09T07:18:46Z</time>
      </trkpt>
      <trkpt lat="44.95874" lon="3.54439">
        <ele>977.8</ele>
        <time>2013-05-09T07:19:01Z</time>
      </trkpt>
      <trkpt lat="44.95874" lon="3.54439">
        <ele>978.28</ele>
        <time>2013-05-09T07:19:24Z</time>
      </trkpt>
      <trkpt lat="44.95874" lon="3.54439">
        <ele>978.28</ele>
        <time>2013-05-09T07:19:41Z</time>
      </trkpt>
      <trkpt lat="44.95873" lon="3.5444">
        <ele>978.28</ele>
        <time>2013-05-09T07:20:08Z</time>
      </trkpt>
      <trkpt lat="44.95873" lon="3.5444">
        <ele>978.76</ele>
        <time>2013-05-09T07:20:32Z</time>
      </trkpt>
      <trkpt lat="44.95873" lon="3.54439">
        <ele>978.28</ele>
        <time>2013-05-09T07:21:02Z</time>
      </trkpt>
      <trkpt lat="44.95872" lon="3.5444">
        <ele>979.24</ele>
        <time>2013-05-09T07:21:25Z</time>
      </trkpt>
      <trkpt lat="44.95872" lon="3.5444">
        <ele>979.24</ele>
        <time>2013-05-09T07:21:53Z</time>
      </trkpt>
      <trkpt lat="44.95873" lon="3.5444">
        <ele>979.24</ele>
        <time>2013-05-09T07:22:24Z</time>
      </trkpt>
      <trkpt lat="44.95874" lon="3.54441">
        <ele>979.72</ele>
        <time>2013-05-09T07:22:50Z</time>
      </trkpt>
      <trkpt lat="44.95874" lon="3.54441">
        <ele>979.24</ele>
        <time>2013-05-09T07:23:14Z</time>
      </trkpt>
      <trkpt lat="44.95872" lon="3.54441">
        <ele>980.2</ele>
        <time>2013-05-09T07:23:23Z</time>
      </trkpt>
      <trkpt lat="44.95863" lon="3.54422">
        <ele>978.76</ele>
        <time>2013-05-09T07:23:38Z</time>
      </trkpt>
      <trkpt lat="44.95851" lon="3.54414">
        <ele>977.32</ele>
        <time>2013-05-09T07:23:53Z</time>
      </trkpt>
      <trkpt lat="44.95843" lon="3.544">
        <ele>976.36</ele>
        <time>2013-05-09T07:24:07Z</time>
      </trkpt>
      <trkpt lat="44.95838" lon="3.54389">
        <ele>975.88</ele>
        <time>2013-05-09T07:24:17Z</time>
      </trkpt>
      <trkpt lat="44.95833" lon="3.54381">
        <ele>975.39</ele>
        <time>2013-05-09T07:24:24Z</time>
      </trkpt>
      <trkpt lat="44.95825" lon="3.54368">
        <ele>974.43</ele>
        <time>2013-05-09T07:24:40Z</time>
      </trkpt>
      <trkpt lat="44.9582" lon="3.54362">
        <ele>973.95</ele>
        <time>2013-05-09T07:24:51Z</time>
      </trkpt>
      <trkpt lat="44.9581" lon="3.5434">
        <ele>972.99</ele>
        <time>2013-05-09T07:25:06Z</time>
      </trkpt>
      <trkpt lat="44.95809" lon="3.54336">
        <ele>972.99</ele>
        <time>2013-05-09T07:25:09Z</time>
      </trkpt>
      <trkpt lat="44.95801" lon="3.5432">
        <ele>972.03</ele>
        <time>2013-05-09T07:25:22Z</time>
      </trkpt>
      <trkpt lat="44.95794" lon="3.54309">
        <ele>971.55</ele>
        <time>2013-05-09T07:25:32Z</time>
      </trkpt>
      <trkpt lat="44.95785" lon="3.54297">
        <ele>971.07</ele>
        <time>2013-05-09T07:25:47Z</time>
      </trkpt>
      <trkpt lat="44.95783" lon="3.54289">
        <ele>970.59</ele>
        <time>2013-05-09T07:25:52Z</time>
      </trkpt>
      <trkpt lat="44.95777" lon="3.5427">
        <ele>969.63</ele>
        <time>2013-05-09T07:26:06Z</time>
      </trkpt>
      <trkpt lat="44.95776" lon="3.54269">
        <ele>969.63</ele>
        <time>2013-05-09T07:26:08Z</time>
      </trkpt>
      <trkpt lat="44.9577" lon="3.54261">
        <ele>969.63</ele>
        <time>2013-05-09T07:26:21Z</time>
      </trkpt>
      <trkpt lat="44.9577" lon="3.5426">
        <ele>969.15</ele>
        <time>2013-05-09T07:26:38Z</time>
      </trkpt>
      <trkpt lat="44.95767" lon="3.54258">
        <ele>968.67</ele>
        <time>2013-05-09T07:26:41Z</time>
      </trkpt>
      <trkpt lat="44.95762" lon="3.54254">
        <ele>968.18</ele>
        <time>2013-05-09T07:26:54Z</time>
      </trkpt>
      <trkpt lat="44.95759" lon="3.54252">
        <ele>967.7</ele>
        <time>2013-05-09T07:26:57Z</time>
      </trkpt>
      <trkpt lat="44.9575" lon="3.54242">
        <ele>966.26</ele>
        <time>2013-05-09T07:27:10Z</time>
      </trkpt>
      <trkpt lat="44.9575" lon="3.54242">
        <ele>966.26</ele>
        <time>2013-05-09T07:27:25Z</time>
      </trkpt>
      <trkpt lat="44.95739" lon="3.54233">
        <ele>965.3</ele>
        <time>2013-05-09T07:27:39Z</time>
      </trkpt>
      <trkpt lat="44.95733" lon="3.54229">
        <ele>964.82</ele>
        <time>2013-05-09T07:27:50Z</time>
      </trkpt>
      <trkpt lat="44.95717" lon="3.54222">
        <ele>963.38</ele>
        <time>2013-05-09T07:28:06Z</time>
      </trkpt>
      <trkpt lat="44.95706" lon="3.54215">
        <ele>961.94</ele>
        <time>2013-05-09T07:28:19Z</time>
      </trkpt>
      <trkpt lat="44.95701" lon="3.54205">
        <ele>961.46</ele>
        <time>2013-05-09T07:28:26Z</time>
      </trkpt>
      <trkpt lat="44.95693" lon="3.54195">
        <ele>960.98</ele>
        <time>2013-05-09T07:28:31Z</time>
      </trkpt>
      <trkpt lat="44.95691" lon="3.54193">
        <ele>960.98</ele>
        <time>2013-05-09T07:28:33Z</time>
      </trkpt>
      <trkpt lat="44.95687" lon="3.54192">
        <ele>960.98</ele>
        <time>2013-05-09T07:28:35Z</time>
      </trkpt>
      <trkpt lat="44.95676" lon="3.54183">
        <ele>960.01</ele>
        <time>2013-05-09T07:28:45Z</time>
      </trkpt>
      <trkpt lat="44.95672" lon="3.54183">
        <ele>959.05</ele>
        <time>2013-05-09T07:28:48Z</time>
      </trkpt>
      <trkpt lat="44.95653" lon="3.54178">
        <ele>958.57</ele>
        <time>2013-05-09T07:29:02Z</time>
      </trkpt>
      <trkpt lat="44.95634" lon="3.54167">
        <ele>957.61</ele>
        <time>2013-05-09T07:29:16Z</time>
      </trkpt>
      <trkpt lat="44.95626" lon="3.5416">
        <ele>957.13</ele>
        <time>2013-05-09T07:29:24Z</time>
      </trkpt>
      <trkpt lat="44.95617" lon="3.54144">
        <ele>956.17</ele>
        <time>2013-05-09T07:29:37Z</time>
      </trkpt>
      <trkpt lat="44.95618" lon="3.54139">
        <ele>956.17</ele>
        <time>2013-05-09T07:29:44Z</time>
      </trkpt>
      <trkpt lat="44.95618" lon="3.54131">
        <ele>955.69</ele>
        <time>2013-05-09T07:29:50Z</time>
      </trkpt>
      <trkpt lat="44.95615" lon="3.54123">
        <ele>955.69</ele>
        <time>2013-05-09T07:29:57Z</time>
      </trkpt>
      <trkpt lat="44.95607" lon="3.54111">
        <ele>955.69</ele>
        <time>2013-05-09T07:30:15Z</time>
      </trkpt>
      <trkpt lat="44.95607" lon="3.5411">
        <ele>955.69</ele>
        <time>2013-05-09T07:30:37Z</time>
      </trkpt>
      <trkpt lat="44.95607" lon="3.54098">
        <ele>956.17</ele>
        <time>2013-05-09T07:30:46Z</time>
      </trkpt>
      <trkpt lat="44.95606" lon="3.54096">
        <ele>955.69</ele>
        <time>2013-05-09T07:31:00Z</time>
      </trkpt>
      <trkpt lat="44.956" lon="3.54085">
        <ele>956.17</ele>
        <time>2013-05-09T07:31:15Z</time>
      </trkpt>
      <trkpt lat="44.95594" lon="3.54061">
        <ele>956.17</ele>
        <time>2013-05-09T07:31:28Z</time>
      </trkpt>
      <trkpt lat="44.95593" lon="3.54048">
        <ele>956.17</ele>
        <time>2013-05-09T07:31:41Z</time>
      </trkpt>
      <trkpt lat="44.9559" lon="3.54036">
        <ele>956.17</ele>
        <time>2013-05-09T07:31:54Z</time>
      </trkpt>
      <trkpt lat="44.95582" lon="3.54011">
        <ele>955.69</ele>
        <time>2013-05-09T07:32:12Z</time>
      </trkpt>
      <trkpt lat="44.95577" lon="3.53998">
        <ele>955.21</ele>
        <time>2013-05-09T07:32:23Z</time>
      </trkpt>
      <trkpt lat="44.95571" lon="3.53971">
        <ele>954.25</ele>
        <time>2013-05-09T07:32:40Z</time>
      </trkpt>
      <trkpt lat="44.95567" lon="3.53943">
        <ele>954.25</ele>
        <time>2013-05-09T07:32:54Z</time>
      </trkpt>
      <trkpt lat="44.95565" lon="3.5393">
        <ele>954.25</ele>
        <time>2013-05-09T07:33:03Z</time>
      </trkpt>
      <trkpt lat="44.95568" lon="3.53927">
        <ele>954.25</ele>
        <time>2013-05-09T07:33:06Z</time>
      </trkpt>
      <trkpt lat="44.95564" lon="3.53921">
        <ele>953.77</ele>
        <time>2013-05-09T07:33:12Z</time>
      </trkpt>
      <trkpt lat="44.95561" lon="3.53915">
        <ele>953.77</ele>
        <time>2013-05-09T07:33:17Z</time>
      </trkpt>
      <trkpt lat="44.95555" lon="3.53887">
        <ele>954.73</ele>
        <time>2013-05-09T07:33:34Z</time>
      </trkpt>
      <trkpt lat="44.95549" lon="3.53868">
        <ele>954.25</ele>
        <time>2013-05-09T07:33:48Z</time>
      </trkpt>
      <trkpt lat="44.95546" lon="3.53867">
        <ele>954.73</ele>
        <time>2013-05-09T07:33:52Z</time>
      </trkpt>
      <trkpt lat="44.95529" lon="3.53868">
        <ele>953.77</ele>
        <time>2013-05-09T07:34:09Z</time>
      </trkpt>
      <trkpt lat="44.95514" lon="3.53867">
        <ele>953.77</ele>
        <time>2013-05-09T07:34:23Z</time>
      </trkpt>
      <trkpt lat="44.95493" lon="3.53863">
        <ele>953.77</ele>
        <time>2013-05-09T07:34:42Z</time>
      </trkpt>
      <trkpt lat="44.95474" lon="3.53852">
        <ele>954.25</ele>
        <time>2013-05-09T07:35:01Z</time>
      </trkpt>
      <trkpt lat="44.95456" lon="3.53843">
        <ele>953.77</ele>
        <time>2013-05-09T07:35:19Z</time>
      </trkpt>
      <trkpt lat="44.95441" lon="3.53831">
        <ele>953.28</ele>
        <time>2013-05-09T07:35:35Z</time>
      </trkpt>
      <trkpt lat="44.95424" lon="3.53818">
        <ele>953.77</ele>
        <time>2013-05-09T07:35:52Z</time>
      </trkpt>
      <trkpt lat="44.95409" lon="3.53801">
        <ele>953.77</ele>
        <time>2013-05-09T07:36:10Z</time>
      </trkpt>
      <trkpt lat="44.95394" lon="3.53785">
        <ele>954.25</ele>
        <time>2013-05-09T07:36:26Z</time>
      </trkpt>
      <trkpt lat="44.95392" lon="3.53782">
        <ele>954.73</ele>
        <time>2013-05-09T07:36:29Z</time>
      </trkpt>
      <trkpt lat="44.95382" lon="3.5377">
        <ele>955.21</ele>
        <time>2013-05-09T07:36:42Z</time>
      </trkpt>
      <trkpt lat="44.95365" lon="3.53755">
        <ele>955.21</ele>
        <time>2013-05-09T07:37:00Z</time>
      </trkpt>
      <trkpt lat="44.95348" lon="3.53742">
        <ele>955.21</ele>
        <time>2013-05-09T07:37:18Z</time>
      </trkpt>
      <trkpt lat="44.95333" lon="3.53734">
        <ele>955.21</ele>
        <time>2013-05-09T07:37:33Z</time>
      </trkpt>
      <trkpt lat="44.95314" lon="3.53723">
        <ele>954.73</ele>
        <time>2013-05-09T07:37:52Z</time>
      </trkpt>
      <trkpt lat="44.95297" lon="3.53718">
        <ele>955.69</ele>
        <time>2013-05-09T07:38:10Z</time>
      </trkpt>
      <trkpt lat="44.9528" lon="3.53709">
        <ele>955.69</ele>
        <time>2013-05-09T07:38:26Z</time>
      </trkpt>
      <trkpt lat="44.95265" lon="3.53695">
        <ele>956.17</ele>
        <time>2013-05-09T07:38:44Z</time>
      </trkpt>
      <trkpt lat="44.95256" lon="3.53684">
        <ele>956.65</ele>
        <time>2013-05-09T07:38:56Z</time>
      </trkpt>
      <trkpt lat="44.95246" lon="3.53659">
        <ele>957.61</ele>
        <time>2013-05-09T07:39:14Z</time>
      </trkpt>
      <trkpt lat="44.95242" lon="3.53635">
        <ele>957.61</ele>
        <time>2013-05-09T07:39:29Z</time>
      </trkpt>
      <trkpt lat="44.95234" lon="3.53611">
        <ele>958.09</ele>
        <time>2013-05-09T07:39:45Z</time>
      </trkpt>
      <trkpt lat="44.95231" lon="3.536">
        <ele>954.73</ele>
        <time>2013-05-09T07:39:53Z</time>
      </trkpt>
      <trkpt lat="44.95231" lon="3.53598">
        <ele>958.57</ele>
        <time>2013-05-09T07:39:54Z</time>
      </trkpt>
      <trkpt lat="44.95223" lon="3.53578">
        <ele>965.78</ele>
        <time>2013-05-09T07:40:10Z</time>
      </trkpt>
      <trkpt lat="44.95222" lon="3.53577">
        <ele>958.57</ele>
        <time>2013-05-09T07:40:11Z</time>
      </trkpt>
      <trkpt lat="44.95214" lon="3.53556">
        <ele>959.05</ele>
        <time>2013-05-09T07:40:27Z</time>
      </trkpt>
      <trkpt lat="44.95204" lon="3.53539">
        <ele>958.57</ele>
        <time>2013-05-09T07:40:40Z</time>
      </trkpt>
      <trkpt lat="44.95201" lon="3.53534">
        <ele>954.25</ele>
        <time>2013-05-09T07:40:45Z</time>
      </trkpt>
      <trkpt lat="44.95201" lon="3.53533">
        <ele>959.53</ele>
        <time>2013-05-09T07:40:46Z</time>
      </trkpt>
      <trkpt lat="44.95191" lon="3.5351">
        <ele>958.57</ele>
        <time>2013-05-09T07:41:04Z</time>
      </trkpt>
      <trkpt lat="44.9518" lon="3.53488">
        <ele>961.46</ele>
        <time>2013-05-09T07:41:22Z</time>
      </trkpt>
      <trkpt lat="44.95177" lon="3.53481">
        <ele>958.09</ele>
        <time>2013-05-09T07:41:26Z</time>
      </trkpt>
      <trkpt lat="44.95167" lon="3.53459">
        <ele>958.57</ele>
        <time>2013-05-09T07:41:42Z</time>
      </trkpt>
      <trkpt lat="44.95159" lon="3.53443">
        <ele>958.57</ele>
        <time>2013-05-09T07:41:55Z</time>
      </trkpt>
      <trkpt lat="44.95151" lon="3.53427">
        <ele>959.05</ele>
        <time>2013-05-09T07:42:06Z</time>
      </trkpt>
      <trkpt lat="44.95151" lon="3.53425">
        <ele>955.69</ele>
        <time>2013-05-09T07:42:07Z</time>
      </trkpt>
      <trkpt lat="44.9515" lon="3.53424">
        <ele>959.53</ele>
        <time>2013-05-09T07:42:08Z</time>
      </trkpt>
      <trkpt lat="44.95146" lon="3.53417">
        <ele>958.57</ele>
        <time>2013-05-09T07:42:14Z</time>
      </trkpt>
      <trkpt lat="44.95144" lon="3.53415">
        <ele>958.57</ele>
        <time>2013-05-09T07:42:16Z</time>
      </trkpt>
      <trkpt lat="44.95134" lon="3.53398">
        <ele>958.57</ele>
        <time>2013-05-09T07:42:31Z</time>
      </trkpt>
      <trkpt lat="44.95124" lon="3.53376">
        <ele>958.57</ele>
        <time>2013-05-09T07:42:45Z</time>
      </trkpt>
      <trkpt lat="44.95115" lon="3.53357">
        <ele>959.05</ele>
        <time>2013-05-09T07:43:00Z</time>
      </trkpt>
      <trkpt lat="44.95103" lon="3.53339">
        <ele>959.05</ele>
        <time>2013-05-09T07:43:16Z</time>
      </trkpt>
      <trkpt lat="44.95099" lon="3.53335">
        <ele>959.05</ele>
        <time>2013-05-09T07:43:20Z</time>
      </trkpt>
      <trkpt lat="44.95085" lon="3.5332">
        <ele>958.57</ele>
        <time>2013-05-09T07:43:35Z</time>
      </trkpt>
      <trkpt lat="44.95073" lon="3.5331">
        <ele>958.57</ele>
        <time>2013-05-09T07:43:48Z</time>
      </trkpt>
      <trkpt lat="44.95062" lon="3.533">
        <ele>959.05</ele>
        <time>2013-05-09T07:43:59Z</time>
      </trkpt>
      <trkpt lat="44.95045" lon="3.53289">
        <ele>958.09</ele>
        <time>2013-05-09T07:44:14Z</time>
      </trkpt>
      <trkpt lat="44.95039" lon="3.53287">
        <ele>958.57</ele>
        <time>2013-05-09T07:44:19Z</time>
      </trkpt>
      <trkpt lat="44.95023" lon="3.53275">
        <ele>958.09</ele>
        <time>2013-05-09T07:44:35Z</time>
      </trkpt>
      <trkpt lat="44.95014" lon="3.53261">
        <ele>958.09</ele>
        <time>2013-05-09T07:44:47Z</time>
      </trkpt>
      <trkpt lat="44.95009" lon="3.5326">
        <ele>958.09</ele>
        <time>2013-05-09T07:44:51Z</time>
      </trkpt>
      <trkpt lat="44.94991" lon="3.53261">
        <ele>958.57</ele>
        <time>2013-05-09T07:45:07Z</time>
      </trkpt>
      <trkpt lat="44.94974" lon="3.53261">
        <ele>958.57</ele>
        <time>2013-05-09T07:45:23Z</time>
      </trkpt>
      <trkpt lat="44.94954" lon="3.53261">
        <ele>959.05</ele>
        <time>2013-05-09T07:45:41Z</time>
      </trkpt>
      <trkpt lat="44.94936" lon="3.53257">
        <ele>959.53</ele>
        <time>2013-05-09T07:45:58Z</time>
      </trkpt>
      <trkpt lat="44.9492" lon="3.53253">
        <ele>960.49</ele>
        <time>2013-05-09T07:46:13Z</time>
      </trkpt>
      <trkpt lat="44.94904" lon="3.53245">
        <ele>961.46</ele>
        <time>2013-05-09T07:46:30Z</time>
      </trkpt>
      <trkpt lat="44.94894" lon="3.53241">
        <ele>961.94</ele>
        <time>2013-05-09T07:46:40Z</time>
      </trkpt>
      <trkpt lat="44.94892" lon="3.53241">
        <ele>961.94</ele>
        <time>2013-05-09T07:46:42Z</time>
      </trkpt>
      <trkpt lat="44.94876" lon="3.53235">
        <ele>962.9</ele>
        <time>2013-05-09T07:46:58Z</time>
      </trkpt>
      <trkpt lat="44.94859" lon="3.53229">
        <ele>963.86</ele>
        <time>2013-05-09T07:47:14Z</time>
      </trkpt>
      <trkpt lat="44.94857" lon="3.53228">
        <ele>963.86</ele>
        <time>2013-05-09T07:47:16Z</time>
      </trkpt>
      <trkpt lat="44.94841" lon="3.53222">
        <ele>964.82</ele>
        <time>2013-05-09T07:47:32Z</time>
      </trkpt>
      <trkpt lat="44.94828" lon="3.53215">
        <ele>966.26</ele>
        <time>2013-05-09T07:47:45Z</time>
      </trkpt>
      <trkpt lat="44.94817" lon="3.53205">
        <ele>966.74</ele>
        <time>2013-05-09T07:47:59Z</time>
      </trkpt>
      <trkpt lat="44.94805" lon="3.53194">
        <ele>967.7</ele>
        <time>2013-05-09T07:48:13Z</time>
      </trkpt>
      <trkpt lat="44.94792" lon="3.53184">
        <ele>968.67</ele>
        <time>2013-05-09T07:48:26Z</time>
      </trkpt>
      <trkpt lat="44.94783" lon="3.53176">
        <ele>969.63</ele>
        <time>2013-05-09T07:48:36Z</time>
      </trkpt>
      <trkpt lat="44.94778" lon="3.53171">
        <ele>969.63</ele>
        <time>2013-05-09T07:48:42Z</time>
      </trkpt>
      <trkpt lat="44.94767" lon="3.53161">
        <ele>971.55</ele>
        <time>2013-05-09T07:48:55Z</time>
      </trkpt>
      <trkpt lat="44.94755" lon="3.53152">
        <ele>972.51</ele>
        <time>2013-05-09T07:49:08Z</time>
      </trkpt>
      <trkpt lat="44.94742" lon="3.53144">
        <ele>972.99</ele>
        <time>2013-05-09T07:49:22Z</time>
      </trkpt>
      <trkpt lat="44.94739" lon="3.53142">
        <ele>972.99</ele>
        <time>2013-05-09T07:49:24Z</time>
      </trkpt>
      <trkpt lat="44.94725" lon="3.53134">
        <ele>974.43</ele>
        <time>2013-05-09T07:49:38Z</time>
      </trkpt>
      <trkpt lat="44.94713" lon="3.53126">
        <ele>975.39</ele>
        <time>2013-05-09T07:49:51Z</time>
      </trkpt>
      <trkpt lat="44.94706" lon="3.53123">
        <ele>975.88</ele>
        <time>2013-05-09T07:49:57Z</time>
      </trkpt>
      <trkpt lat="44.94695" lon="3.53113">
        <ele>976.36</ele>
        <time>2013-05-09T07:50:10Z</time>
      </trkpt>
      <trkpt lat="44.94679" lon="3.53102">
        <ele>977.32</ele>
        <time>2013-05-09T07:50:27Z</time>
      </trkpt>
      <trkpt lat="44.94666" lon="3.53091">
        <ele>978.28</ele>
        <time>2013-05-09T07:50:42Z</time>
      </trkpt>
      <trkpt lat="44.9465" lon="3.53084">
        <ele>978.76</ele>
        <time>2013-05-09T07:50:56Z</time>
      </trkpt>
      <trkpt lat="44.94636" lon="3.53075">
        <ele>980.2</ele>
        <time>2013-05-09T07:51:10Z</time>
      </trkpt>
      <trkpt lat="44.94622" lon="3.53063">
        <ele>980.68</ele>
        <time>2013-05-09T07:51:25Z</time>
      </trkpt>
      <trkpt lat="44.94607" lon="3.5305">
        <ele>982.12</ele>
        <time>2013-05-09T07:51:40Z</time>
      </trkpt>
      <trkpt lat="44.94595" lon="3.5304">
        <ele>983.09</ele>
        <time>2013-05-09T07:51:53Z</time>
      </trkpt>
      <trkpt lat="44.94581" lon="3.53031">
        <ele>983.57</ele>
        <time>2013-05-09T07:52:06Z</time>
      </trkpt>
      <trkpt lat="44.94562" lon="3.53023">
        <ele>984.53</ele>
        <time>2013-05-09T07:52:24Z</time>
      </trkpt>
      <trkpt lat="44.94557" lon="3.53018">
        <ele>985.49</ele>
        <time>2013-05-09T07:52:30Z</time>
      </trkpt>
      <trkpt lat="44.9454" lon="3.53009">
        <ele>985.97</ele>
        <time>2013-05-09T07:52:46Z</time>
      </trkpt>
      <trkpt lat="44.94525" lon="3.53004">
        <ele>987.41</ele>
        <time>2013-05-09T07:53:00Z</time>
      </trkpt>
      <trkpt lat="44.94512" lon="3.52994">
        <ele>988.85</ele>
        <time>2013-05-09T07:53:14Z</time>
      </trkpt>
      <trkpt lat="44.945" lon="3.52986">
        <ele>990.3</ele>
        <time>2013-05-09T07:53:28Z</time>
      </trkpt>
      <trkpt lat="44.94492" lon="3.52979">
        <ele>991.26</ele>
        <time>2013-05-09T07:53:37Z</time>
      </trkpt>
      <trkpt lat="44.94487" lon="3.52969">
        <ele>992.22</ele>
        <time>2013-05-09T07:53:46Z</time>
      </trkpt>
      <trkpt lat="44.94475" lon="3.52951">
        <ele>993.66</ele>
        <time>2013-05-09T07:54:02Z</time>
      </trkpt>
      <trkpt lat="44.94466" lon="3.52932">
        <ele>995.1</ele>
        <time>2013-05-09T07:54:19Z</time>
      </trkpt>
      <trkpt lat="44.94457" lon="3.52916">
        <ele>996.06</ele>
        <time>2013-05-09T07:54:33Z</time>
      </trkpt>
      <trkpt lat="44.94441" lon="3.52902">
        <ele>996.54</ele>
        <time>2013-05-09T07:54:50Z</time>
      </trkpt>
      <trkpt lat="44.94428" lon="3.52887">
        <ele>997.02</ele>
        <time>2013-05-09T07:55:05Z</time>
      </trkpt>
      <trkpt lat="44.9442" lon="3.5288">
        <ele>997.02</ele>
        <time>2013-05-09T07:55:14Z</time>
      </trkpt>
      <trkpt lat="44.94404" lon="3.5286">
        <ele>997.02</ele>
        <time>2013-05-09T07:55:32Z</time>
      </trkpt>
      <trkpt lat="44.9439" lon="3.52843">
        <ele>998.47</ele>
        <time>2013-05-09T07:55:48Z</time>
      </trkpt>
      <trkpt lat="44.94378" lon="3.52831">
        <ele>999.43</ele>
        <time>2013-05-09T07:56:01Z</time>
      </trkpt>
      <trkpt lat="44.94371" lon="3.52824">
        <ele>999.91</ele>
        <time>2013-05-09T07:56:09Z</time>
      </trkpt>
      <trkpt lat="44.94355" lon="3.52811">
        <ele>1000.87</ele>
        <time>2013-05-09T07:56:25Z</time>
      </trkpt>
      <trkpt lat="44.94353" lon="3.52809">
        <ele>1000.87</ele>
        <time>2013-05-09T07:56:27Z</time>
      </trkpt>
      <trkpt lat="44.94336" lon="3.52799">
        <ele>1002.31</ele>
        <time>2013-05-09T07:56:45Z</time>
      </trkpt>
      <trkpt lat="44.94321" lon="3.52797">
        <ele>1003.27</ele>
        <time>2013-05-09T07:57:01Z</time>
      </trkpt>
      <trkpt lat="44.94316" lon="3.52795">
        <ele>1003.75</ele>
        <time>2013-05-09T07:57:08Z</time>
      </trkpt>
      <trkpt lat="44.94309" lon="3.52791">
        <ele>1004.72</ele>
        <time>2013-05-09T07:57:20Z</time>
      </trkpt>
      <trkpt lat="44.94308" lon="3.52792">
        <ele>1004.23</ele>
        <time>2013-05-09T07:57:30Z</time>
      </trkpt>
      <trkpt lat="44.94303" lon="3.528">
        <ele>1004.23</ele>
        <time>2013-05-09T07:57:39Z</time>
      </trkpt>
      <trkpt lat="44.94289" lon="3.52808">
        <ele>1005.2</ele>
        <time>2013-05-09T07:57:54Z</time>
      </trkpt>
      <trkpt lat="44.94271" lon="3.52814">
        <ele>1006.16</ele>
        <time>2013-05-09T07:58:10Z</time>
      </trkpt>
      <trkpt lat="44.94257" lon="3.52819">
        <ele>1007.12</ele>
        <time>2013-05-09T07:58:24Z</time>
      </trkpt>
      <trkpt lat="44.9424" lon="3.52827">
        <ele>1007.6</ele>
        <time>2013-05-09T07:58:40Z</time>
      </trkpt>
      <trkpt lat="44.94227" lon="3.52833">
        <ele>1008.56</ele>
        <time>2013-05-09T07:58:54Z</time>
      </trkpt>
      <trkpt lat="44.94224" lon="3.52836">
        <ele>1008.08</ele>
        <time>2013-05-09T07:59:10Z</time>
      </trkpt>
      <trkpt lat="44.94222" lon="3.52836">
        <ele>1007.6</ele>
        <time>2013-05-09T07:59:40Z</time>
      </trkpt>
      <trkpt lat="44.94219" lon="3.52834">
        <ele>1008.08</ele>
        <time>2013-05-09T07:59:44Z</time>
      </trkpt>
      <trkpt lat="44.94215" lon="3.52834">
        <ele>1008.08</ele>
        <time>2013-05-09T07:59:50Z</time>
      </trkpt>
      <trkpt lat="44.94215" lon="3.52832">
        <ele>1008.56</ele>
        <time>2013-05-09T08:00:07Z</time>
      </trkpt>
      <trkpt lat="44.94215" lon="3.52833">
        <ele>1008.08</ele>
        <time>2013-05-09T08:00:37Z</time>
      </trkpt>
      <trkpt lat="44.94215" lon="3.52833">
        <ele>1008.08</ele>
        <time>2013-05-09T08:01:04Z</time>
      </trkpt>
      <trkpt lat="44.94215" lon="3.52833">
        <ele>1008.08</ele>
        <time>2013-05-09T08:01:29Z</time>
      </trkpt>
      <trkpt lat="44.94215" lon="3.52832">
        <ele>1007.6</ele>
        <time>2013-05-09T08:01:42Z</time>
      </trkpt>
      <trkpt lat="44.94213" lon="3.52835">
        <ele>1009.04</ele>
        <time>2013-05-09T08:02:02Z</time>
      </trkpt>
      <trkpt lat="44.94211" lon="3.52837">
        <ele>1008.56</ele>
        <time>2013-05-09T08:02:05Z</time>
      </trkpt>
      <trkpt lat="44.94194" lon="3.52845">
        <ele>1008.56</ele>
        <time>2013-05-09T08:02:22Z</time>
      </trkpt>
      <trkpt lat="44.94177" lon="3.52853">
        <ele>1009.04</ele>
        <time>2013-05-09T08:02:38Z</time>
      </trkpt>
      <trkpt lat="44.94174" lon="3.52853">
        <ele>1008.56</ele>
        <time>2013-05-09T08:02:42Z</time>
      </trkpt>
      <trkpt lat="44.94162" lon="3.52858">
        <ele>1009.04</ele>
        <time>2013-05-09T08:02:55Z</time>
      </trkpt>
      <trkpt lat="44.94161" lon="3.52858">
        <ele>1009.04</ele>
        <time>2013-05-09T08:02:56Z</time>
      </trkpt>
      <trkpt lat="44.94145" lon="3.52861">
        <ele>1008.08</ele>
        <time>2013-05-09T08:03:11Z</time>
      </trkpt>
      <trkpt lat="44.94138" lon="3.52859">
        <ele>1007.12</ele>
        <time>2013-05-09T08:03:18Z</time>
      </trkpt>
      <trkpt lat="44.94136" lon="3.52858">
        <ele>1007.6</ele>
        <time>2013-05-09T08:03:20Z</time>
      </trkpt>
      <trkpt lat="44.94129" lon="3.52855">
        <ele>1006.16</ele>
        <time>2013-05-09T08:03:27Z</time>
      </trkpt>
      <trkpt lat="44.94122" lon="3.52853">
        <ele>1006.16</ele>
        <time>2013-05-09T08:03:32Z</time>
      </trkpt>
      <trkpt lat="44.9411" lon="3.52849">
        <ele>1005.2</ele>
        <time>2013-05-09T08:03:42Z</time>
      </trkpt>
      <trkpt lat="44.94097" lon="3.52847">
        <ele>1001.83</ele>
        <time>2013-05-09T08:03:52Z</time>
      </trkpt>
      <trkpt lat="44.94095" lon="3.52847">
        <ele>1005.2</ele>
        <time>2013-05-09T08:03:54Z</time>
      </trkpt>
      <trkpt lat="44.94074" lon="3.52851">
        <ele>1003.27</ele>
        <time>2013-05-09T08:04:11Z</time>
      </trkpt>
      <trkpt lat="44.94057" lon="3.5286">
        <ele>1003.75</ele>
        <time>2013-05-09T08:04:28Z</time>
      </trkpt>
      <trkpt lat="44.94055" lon="3.52862">
        <ele>1004.23</ele>
        <time>2013-05-09T08:04:30Z</time>
      </trkpt>
      <trkpt lat="44.94033" lon="3.52872">
        <ele>1003.75</ele>
        <time>2013-05-09T08:04:48Z</time>
      </trkpt>
      <trkpt lat="44.94029" lon="3.52874">
        <ele>1007.12</ele>
        <time>2013-05-09T08:04:53Z</time>
      </trkpt>
      <trkpt lat="44.94028" lon="3.52875">
        <ele>1003.75</ele>
        <time>2013-05-09T08:04:54Z</time>
      </trkpt>
      <trkpt lat="44.94025" lon="3.52878">
        <ele>1005.2</ele>
        <time>2013-05-09T08:04:57Z</time>
      </trkpt>
      <trkpt lat="44.94009" lon="3.52895">
        <ele>1005.2</ele>
        <time>2013-05-09T08:05:13Z</time>
      </trkpt>
      <trkpt lat="44.94001" lon="3.52915">
        <ele>1006.16</ele>
        <time>2013-05-09T08:05:28Z</time>
      </trkpt>
      <trkpt lat="44.94001" lon="3.52918">
        <ele>1006.64</ele>
        <time>2013-05-09T08:05:30Z</time>
      </trkpt>
      <trkpt lat="44.93999" lon="3.52925">
        <ele>1007.12</ele>
        <time>2013-05-09T08:05:34Z</time>
      </trkpt>
      <trkpt lat="44.93992" lon="3.52946">
        <ele>1008.08</ele>
        <time>2013-05-09T08:05:49Z</time>
      </trkpt>
      <trkpt lat="44.93988" lon="3.5296">
        <ele>1010</ele>
        <time>2013-05-09T08:06:00Z</time>
      </trkpt>
      <trkpt lat="44.93972" lon="3.52972">
        <ele>1012.41</ele>
        <time>2013-05-09T08:06:17Z</time>
      </trkpt>
      <trkpt lat="44.93965" lon="3.52977">
        <ele>1013.37</ele>
        <time>2013-05-09T08:06:24Z</time>
      </trkpt>
      <trkpt lat="44.93951" lon="3.52985">
        <ele>1014.81</ele>
        <time>2013-05-09T08:06:38Z</time>
      </trkpt>
      <trkpt lat="44.93937" lon="3.52989">
        <ele>1016.73</ele>
        <time>2013-05-09T08:06:52Z</time>
      </trkpt>
      <trkpt lat="44.93935" lon="3.52989">
        <ele>1017.21</ele>
        <time>2013-05-09T08:06:54Z</time>
      </trkpt>
      <trkpt lat="44.93921" lon="3.52985">
        <ele>1018.65</ele>
        <time>2013-05-09T08:07:09Z</time>
      </trkpt>
      <trkpt lat="44.93916" lon="3.52984">
        <ele>1019.13</ele>
        <time>2013-05-09T08:07:15Z</time>
      </trkpt>
      <trkpt lat="44.93905" lon="3.5298">
        <ele>1020.1</ele>
        <time>2013-05-09T08:07:27Z</time>
      </trkpt>
      <trkpt lat="44.93887" lon="3.52977">
        <ele>1021.06</ele>
        <time>2013-05-09T08:07:44Z</time>
      </trkpt>
      <trkpt lat="44.9387" lon="3.52968">
        <ele>1022.02</ele>
        <time>2013-05-09T08:08:00Z</time>
      </trkpt>
      <trkpt lat="44.93854" lon="3.52954">
        <ele>1022.98</ele>
        <time>2013-05-09T08:08:16Z</time>
      </trkpt>
      <trkpt lat="44.93842" lon="3.52939">
        <ele>1023.94</ele>
        <time>2013-05-09T08:08:31Z</time>
      </trkpt>
      <trkpt lat="44.9383" lon="3.52923">
        <ele>1024.9</ele>
        <time>2013-05-09T08:08:45Z</time>
      </trkpt>
      <trkpt lat="44.93815" lon="3.52904">
        <ele>1025.38</ele>
        <time>2013-05-09T08:09:02Z</time>
      </trkpt>
      <trkpt lat="44.93805" lon="3.52891">
        <ele>1025.86</ele>
        <time>2013-05-09T08:09:14Z</time>
      </trkpt>
      <trkpt lat="44.93802" lon="3.52885">
        <ele>1025.86</ele>
        <time>2013-05-09T08:09:19Z</time>
      </trkpt>
      <trkpt lat="44.93798" lon="3.52878">
        <ele>1025.86</ele>
        <time>2013-05-09T08:09:25Z</time>
      </trkpt>
      <trkpt lat="44.93794" lon="3.52872">
        <ele>1026.34</ele>
        <time>2013-05-09T08:09:30Z</time>
      </trkpt>
      <trkpt lat="44.93783" lon="3.52857">
        <ele>1027.31</ele>
        <time>2013-05-09T08:09:45Z</time>
      </trkpt>
      <trkpt lat="44.93781" lon="3.52855">
        <ele>1026.83</ele>
        <time>2013-05-09T08:09:47Z</time>
      </trkpt>
      <trkpt lat="44.93763" lon="3.52849">
        <ele>1028.27</ele>
        <time>2013-05-09T08:10:03Z</time>
      </trkpt>
      <trkpt lat="44.93742" lon="3.52849">
        <ele>1029.23</ele>
        <time>2013-05-09T08:10:20Z</time>
      </trkpt>
      <trkpt lat="44.93722" lon="3.52856">
        <ele>1029.23</ele>
        <time>2013-05-09T08:10:38Z</time>
      </trkpt>
      <trkpt lat="44.93705" lon="3.52859">
        <ele>1030.19</ele>
        <time>2013-05-09T08:10:54Z</time>
      </trkpt>
      <trkpt lat="44.9369" lon="3.52852">
        <ele>1030.19</ele>
        <time>2013-05-09T08:11:11Z</time>
      </trkpt>
      <trkpt lat="44.93685" lon="3.5285">
        <ele>1030.19</ele>
        <time>2013-05-09T08:11:22Z</time>
      </trkpt>
      <trkpt lat="44.93682" lon="3.52844">
        <ele>1030.19</ele>
        <time>2013-05-09T08:11:27Z</time>
      </trkpt>
      <trkpt lat="44.93669" lon="3.52826">
        <ele>1030.19</ele>
        <time>2013-05-09T08:11:42Z</time>
      </trkpt>
      <trkpt lat="44.93657" lon="3.52805">
        <ele>1030.67</ele>
        <time>2013-05-09T08:11:59Z</time>
      </trkpt>
      <trkpt lat="44.93656" lon="3.52802">
        <ele>1030.67</ele>
        <time>2013-05-09T08:12:01Z</time>
      </trkpt>
      <trkpt lat="44.93651" lon="3.52797">
        <ele>1031.15</ele>
        <time>2013-05-09T08:12:06Z</time>
      </trkpt>
      <trkpt lat="44.93641" lon="3.52778">
        <ele>1030.67</ele>
        <time>2013-05-09T08:12:20Z</time>
      </trkpt>
      <trkpt lat="44.9363" lon="3.52759">
        <ele>1031.15</ele>
        <time>2013-05-09T08:12:34Z</time>
      </trkpt>
      <trkpt lat="44.93626" lon="3.52749">
        <ele>1031.15</ele>
        <time>2013-05-09T08:12:42Z</time>
      </trkpt>
      <trkpt lat="44.93625" lon="3.52747">
        <ele>1031.15</ele>
        <time>2013-05-09T08:12:44Z</time>
      </trkpt>
      <trkpt lat="44.93616" lon="3.52728">
        <ele>1031.63</ele>
        <time>2013-05-09T08:12:57Z</time>
      </trkpt>
      <trkpt lat="44.9361" lon="3.52713">
        <ele>1031.63</ele>
        <time>2013-05-09T08:13:08Z</time>
      </trkpt>
      <trkpt lat="44.93599" lon="3.52693">
        <ele>1031.63</ele>
        <time>2013-05-09T08:13:23Z</time>
      </trkpt>
      <trkpt lat="44.93585" lon="3.52667">
        <ele>1031.63</ele>
        <time>2013-05-09T08:13:42Z</time>
      </trkpt>
      <trkpt lat="44.93575" lon="3.52646">
        <ele>1032.59</ele>
        <time>2013-05-09T08:13:57Z</time>
      </trkpt>
      <trkpt lat="44.93567" lon="3.52625">
        <ele>1033.55</ele>
        <time>2013-05-09T08:14:12Z</time>
      </trkpt>
      <trkpt lat="44.93563" lon="3.52606">
        <ele>1033.55</ele>
        <time>2013-05-09T08:14:24Z</time>
      </trkpt>
      <trkpt lat="44.93557" lon="3.52582">
        <ele>1033.55</ele>
        <time>2013-05-09T08:14:38Z</time>
      </trkpt>
      <trkpt lat="44.93552" lon="3.52557">
        <ele>1034.04</ele>
        <time>2013-05-09T08:14:53Z</time>
      </trkpt>
      <trkpt lat="44.93543" lon="3.52533">
        <ele>1034.52</ele>
        <time>2013-05-09T08:15:09Z</time>
      </trkpt>
      <trkpt lat="44.93533" lon="3.52511">
        <ele>1033.55</ele>
        <time>2013-05-09T08:15:24Z</time>
      </trkpt>
      <trkpt lat="44.93524" lon="3.52491">
        <ele>1035</ele>
        <time>2013-05-09T08:15:39Z</time>
      </trkpt>
      <trkpt lat="44.93513" lon="3.5247">
        <ele>1033.55</ele>
        <time>2013-05-09T08:15:55Z</time>
      </trkpt>
      <trkpt lat="44.93496" lon="3.52452">
        <ele>1032.59</ele>
        <time>2013-05-09T08:16:13Z</time>
      </trkpt>
      <trkpt lat="44.93479" lon="3.5244">
        <ele>1032.11</ele>
        <time>2013-05-09T08:16:28Z</time>
      </trkpt>
      <trkpt lat="44.93478" lon="3.52439">
        <ele>1032.11</ele>
        <time>2013-05-09T08:16:29Z</time>
      </trkpt>
      <trkpt lat="44.93457" lon="3.52439">
        <ele>1031.63</ele>
        <time>2013-05-09T08:16:48Z</time>
      </trkpt>
      <trkpt lat="44.93443" lon="3.52442">
        <ele>1031.63</ele>
        <time>2013-05-09T08:17:02Z</time>
      </trkpt>
      <trkpt lat="44.93427" lon="3.52446">
        <ele>1031.15</ele>
        <time>2013-05-09T08:17:17Z</time>
      </trkpt>
      <trkpt lat="44.93411" lon="3.52448">
        <ele>1031.15</ele>
        <time>2013-05-09T08:17:32Z</time>
      </trkpt>
      <trkpt lat="44.93401" lon="3.52448">
        <ele>1030.19</ele>
        <time>2013-05-09T08:17:43Z</time>
      </trkpt>
      <trkpt lat="44.93396" lon="3.52447">
        <ele>1031.15</ele>
        <time>2013-05-09T08:17:48Z</time>
      </trkpt>
      <trkpt lat="44.93393" lon="3.52448">
        <ele>1031.15</ele>
        <time>2013-05-09T08:17:51Z</time>
      </trkpt>
      <trkpt lat="44.93377" lon="3.52448">
        <ele>1031.15</ele>
        <time>2013-05-09T08:18:06Z</time>
      </trkpt>
      <trkpt lat="44.9336" lon="3.52446">
        <ele>1031.15</ele>
        <time>2013-05-09T08:18:23Z</time>
      </trkpt>
      <trkpt lat="44.93359" lon="3.52446">
        <ele>1032.11</ele>
        <time>2013-05-09T08:18:24Z</time>
      </trkpt>
      <trkpt lat="44.93345" lon="3.52447">
        <ele>1032.11</ele>
        <time>2013-05-09T08:18:38Z</time>
      </trkpt>
      <trkpt lat="44.93341" lon="3.52448">
        <ele>1032.11</ele>
        <time>2013-05-09T08:18:42Z</time>
      </trkpt>
      <trkpt lat="44.93334" lon="3.52449">
        <ele>1032.11</ele>
        <time>2013-05-09T08:18:49Z</time>
      </trkpt>
      <trkpt lat="44.93327" lon="3.5245">
        <ele>1032.59</ele>
        <time>2013-05-09T08:18:56Z</time>
      </trkpt>
      <trkpt lat="44.93312" lon="3.52453">
        <ele>1032.11</ele>
        <time>2013-05-09T08:19:10Z</time>
      </trkpt>
      <trkpt lat="44.93305" lon="3.52452">
        <ele>1032.59</ele>
        <time>2013-05-09T08:19:16Z</time>
      </trkpt>
      <trkpt lat="44.93289" lon="3.52452">
        <ele>1033.07</ele>
        <time>2013-05-09T08:19:31Z</time>
      </trkpt>
      <trkpt lat="44.93285" lon="3.52451">
        <ele>1033.55</ele>
        <time>2013-05-09T08:19:35Z</time>
      </trkpt>
      <trkpt lat="44.9328" lon="3.52451">
        <ele>1033.55</ele>
        <time>2013-05-09T08:19:40Z</time>
      </trkpt>
      <trkpt lat="44.93279" lon="3.52452">
        <ele>1034.04</ele>
        <time>2013-05-09T08:19:42Z</time>
      </trkpt>
      <trkpt lat="44.93276" lon="3.52451">
        <ele>1033.55</ele>
        <time>2013-05-09T08:19:45Z</time>
      </trkpt>
      <trkpt lat="44.93272" lon="3.52451">
        <ele>1033.55</ele>
        <time>2013-05-09T08:19:48Z</time>
      </trkpt>
      <trkpt lat="44.93268" lon="3.5245">
        <ele>1034.52</ele>
        <time>2013-05-09T08:19:51Z</time>
      </trkpt>
      <trkpt lat="44.93262" lon="3.52447">
        <ele>1034.52</ele>
        <time>2013-05-09T08:19:56Z</time>
      </trkpt>
      <trkpt lat="44.93259" lon="3.52446">
        <ele>1034.52</ele>
        <time>2013-05-09T08:19:58Z</time>
      </trkpt>
      <trkpt lat="44.93245" lon="3.52439">
        <ele>1035.48</ele>
        <time>2013-05-09T08:20:11Z</time>
      </trkpt>
      <trkpt lat="44.93237" lon="3.52435">
        <ele>1035.96</ele>
        <time>2013-05-09T08:20:19Z</time>
      </trkpt>
      <trkpt lat="44.93223" lon="3.52428">
        <ele>1036.92</ele>
        <time>2013-05-09T08:20:34Z</time>
      </trkpt>
      <trkpt lat="44.93207" lon="3.52425">
        <ele>1037.88</ele>
        <time>2013-05-09T08:20:49Z</time>
      </trkpt>
      <trkpt lat="44.93191" lon="3.52422">
        <ele>1038.36</ele>
        <time>2013-05-09T08:21:04Z</time>
      </trkpt>
      <trkpt lat="44.93181" lon="3.52421">
        <ele>1039.32</ele>
        <time>2013-05-09T08:21:13Z</time>
      </trkpt>
      <trkpt lat="44.93165" lon="3.52418">
        <ele>1039.8</ele>
        <time>2013-05-09T08:21:29Z</time>
      </trkpt>
      <trkpt lat="44.93162" lon="3.52416">
        <ele>1040.76</ele>
        <time>2013-05-09T08:21:33Z</time>
      </trkpt>
      <trkpt lat="44.9316" lon="3.52416">
        <ele>1040.76</ele>
        <time>2013-05-09T08:21:36Z</time>
      </trkpt>
      <trkpt lat="44.93146" lon="3.52415">
        <ele>1042.21</ele>
        <time>2013-05-09T08:21:51Z</time>
      </trkpt>
      <trkpt lat="44.93142" lon="3.52414">
        <ele>1042.69</ele>
        <time>2013-05-09T08:21:57Z</time>
      </trkpt>
      <trkpt lat="44.9313" lon="3.52411">
        <ele>1043.65</ele>
        <time>2013-05-09T08:22:09Z</time>
      </trkpt>
      <trkpt lat="44.93126" lon="3.52409">
        <ele>1043.65</ele>
        <time>2013-05-09T08:22:14Z</time>
      </trkpt>
      <trkpt lat="44.93121" lon="3.52403">
        <ele>1045.09</ele>
        <time>2013-05-09T08:22:23Z</time>
      </trkpt>
      <trkpt lat="44.93114" lon="3.52387">
        <ele>1046.53</ele>
        <time>2013-05-09T08:22:39Z</time>
      </trkpt>
      <trkpt lat="44.93109" lon="3.52378">
        <ele>1047.49</ele>
        <time>2013-05-09T08:22:49Z</time>
      </trkpt>
      <trkpt lat="44.93104" lon="3.52364">
        <ele>1047.97</ele>
        <time>2013-05-09T08:23:00Z</time>
      </trkpt>
      <trkpt lat="44.93099" lon="3.52362">
        <ele>1048.45</ele>
        <time>2013-05-09T08:23:03Z</time>
      </trkpt>
      <trkpt lat="44.93093" lon="3.52353">
        <ele>1048.94</ele>
        <time>2013-05-09T08:23:12Z</time>
      </trkpt>
      <trkpt lat="44.9309" lon="3.52347">
        <ele>1047.97</ele>
        <time>2013-05-09T08:23:18Z</time>
      </trkpt>
      <trkpt lat="44.93075" lon="3.5234">
        <ele>1048.45</ele>
        <time>2013-05-09T08:23:32Z</time>
      </trkpt>
      <trkpt lat="44.93058" lon="3.52334">
        <ele>1049.42</ele>
        <time>2013-05-09T08:23:47Z</time>
      </trkpt>
      <trkpt lat="44.93042" lon="3.52324">
        <ele>1048.94</ele>
        <time>2013-05-09T08:24:02Z</time>
      </trkpt>
      <trkpt lat="44.93033" lon="3.52314">
        <ele>1048.45</ele>
        <time>2013-05-09T08:24:15Z</time>
      </trkpt>
      <trkpt lat="44.93025" lon="3.52314">
        <ele>1048.45</ele>
        <time>2013-05-09T08:24:23Z</time>
      </trkpt>
      <trkpt lat="44.93018" lon="3.52314">
        <ele>1047.49</ele>
        <time>2013-05-09T08:24:28Z</time>
      </trkpt>
      <trkpt lat="44.93" lon="3.52312">
        <ele>1047.01</ele>
        <time>2013-05-09T08:24:44Z</time>
      </trkpt>
      <trkpt lat="44.92993" lon="3.52312">
        <ele>1047.01</ele>
        <time>2013-05-09T08:24:50Z</time>
      </trkpt>
      <trkpt lat="44.92983" lon="3.5231">
        <ele>1047.01</ele>
        <time>2013-05-09T08:24:59Z</time>
      </trkpt>
      <trkpt lat="44.92967" lon="3.52305">
        <ele>1047.01</ele>
        <time>2013-05-09T08:25:16Z</time>
      </trkpt>
      <trkpt lat="44.92966" lon="3.52304">
        <ele>1046.53</ele>
        <time>2013-05-09T08:25:17Z</time>
      </trkpt>
      <trkpt lat="44.9295" lon="3.52296">
        <ele>1046.53</ele>
        <time>2013-05-09T08:25:32Z</time>
      </trkpt>
      <trkpt lat="44.92937" lon="3.52287">
        <ele>1047.01</ele>
        <time>2013-05-09T08:25:47Z</time>
      </trkpt>
      <trkpt lat="44.92922" lon="3.52274">
        <ele>1047.49</ele>
        <time>2013-05-09T08:26:04Z</time>
      </trkpt>
      <trkpt lat="44.92907" lon="3.52264">
        <ele>1047.97</ele>
        <time>2013-05-09T08:26:19Z</time>
      </trkpt>
      <trkpt lat="44.92891" lon="3.52253">
        <ele>1048.94</ele>
        <time>2013-05-09T08:26:35Z</time>
      </trkpt>
      <trkpt lat="44.92879" lon="3.52246">
        <ele>1048.94</ele>
        <time>2013-05-09T08:26:47Z</time>
      </trkpt>
      <trkpt lat="44.92864" lon="3.52238">
        <ele>1049.9</ele>
        <time>2013-05-09T08:27:02Z</time>
      </trkpt>
      <trkpt lat="44.92848" lon="3.52233">
        <ele>1051.34</ele>
        <time>2013-05-09T08:27:18Z</time>
      </trkpt>
      <trkpt lat="44.92845" lon="3.52232">
        <ele>1051.34</ele>
        <time>2013-05-09T08:27:20Z</time>
      </trkpt>
      <trkpt lat="44.92836" lon="3.52231">
        <ele>1051.82</ele>
        <time>2013-05-09T08:27:30Z</time>
      </trkpt>
      <trkpt lat="44.92833" lon="3.52231">
        <ele>1052.78</ele>
        <time>2013-05-09T08:27:33Z</time>
      </trkpt>
      <trkpt lat="44.92831" lon="3.52229">
        <ele>1053.26</ele>
        <time>2013-05-09T08:27:35Z</time>
      </trkpt>
      <trkpt lat="44.92828" lon="3.52228">
        <ele>1053.74</ele>
        <time>2013-05-09T08:27:38Z</time>
      </trkpt>
      <trkpt lat="44.92818" lon="3.52215">
        <ele>1054.7</ele>
        <time>2013-05-09T08:27:53Z</time>
      </trkpt>
      <trkpt lat="44.92814" lon="3.52206">
        <ele>1055.18</ele>
        <time>2013-05-09T08:28:01Z</time>
      </trkpt>
      <trkpt lat="44.92806" lon="3.52189">
        <ele>1055.67</ele>
        <time>2013-05-09T08:28:14Z</time>
      </trkpt>
      <trkpt lat="44.92797" lon="3.52173">
        <ele>1056.63</ele>
        <time>2013-05-09T08:28:28Z</time>
      </trkpt>
      <trkpt lat="44.92796" lon="3.5217">
        <ele>1057.11</ele>
        <time>2013-05-09T08:28:30Z</time>
      </trkpt>
      <trkpt lat="44.92793" lon="3.52165">
        <ele>1057.11</ele>
        <time>2013-05-09T08:28:35Z</time>
      </trkpt>
      <trkpt lat="44.92791" lon="3.52162">
        <ele>1057.59</ele>
        <time>2013-05-09T08:28:38Z</time>
      </trkpt>
      <trkpt lat="44.9278" lon="3.52148">
        <ele>1058.07</ele>
        <time>2013-05-09T08:28:52Z</time>
      </trkpt>
      <trkpt lat="44.92779" lon="3.52147">
        <ele>1058.07</ele>
        <time>2013-05-09T08:28:53Z</time>
      </trkpt>
      <trkpt lat="44.92776" lon="3.52144">
        <ele>1059.03</ele>
        <time>2013-05-09T08:28:58Z</time>
      </trkpt>
      <trkpt lat="44.92764" lon="3.52134">
        <ele>1059.03</ele>
        <time>2013-05-09T08:29:11Z</time>
      </trkpt>
      <trkpt lat="44.92759" lon="3.5213">
        <ele>1059.51</ele>
        <time>2013-05-09T08:29:16Z</time>
      </trkpt>
      <trkpt lat="44.92746" lon="3.52122">
        <ele>1060.47</ele>
        <time>2013-05-09T08:29:30Z</time>
      </trkpt>
      <trkpt lat="44.92736" lon="3.52117">
        <ele>1060.95</ele>
        <time>2013-05-09T08:29:39Z</time>
      </trkpt>
      <trkpt lat="44.92734" lon="3.52115">
        <ele>1061.43</ele>
        <time>2013-05-09T08:29:41Z</time>
      </trkpt>
      <trkpt lat="44.9272" lon="3.52109">
        <ele>1062.39</ele>
        <time>2013-05-09T08:29:55Z</time>
      </trkpt>
      <trkpt lat="44.92713" lon="3.52104">
        <ele>1063.36</ele>
        <time>2013-05-09T08:30:03Z</time>
      </trkpt>
      <trkpt lat="44.927" lon="3.52095">
        <ele>1064.32</ele>
        <time>2013-05-09T08:30:18Z</time>
      </trkpt>
      <trkpt lat="44.9269" lon="3.52087">
        <ele>1065.28</ele>
        <time>2013-05-09T08:30:30Z</time>
      </trkpt>
      <trkpt lat="44.92685" lon="3.52084">
        <ele>1066.24</ele>
        <time>2013-05-09T08:30:35Z</time>
      </trkpt>
      <trkpt lat="44.9267" lon="3.52074">
        <ele>1066.72</ele>
        <time>2013-05-09T08:30:52Z</time>
      </trkpt>
      <trkpt lat="44.92666" lon="3.52071">
        <ele>1067.2</ele>
        <time>2013-05-09T08:30:56Z</time>
      </trkpt>
      <trkpt lat="44.92662" lon="3.52067">
        <ele>1067.68</ele>
        <time>2013-05-09T08:31:01Z</time>
      </trkpt>
      <trkpt lat="44.92656" lon="3.52065">
        <ele>1067.68</ele>
        <time>2013-05-09T08:31:06Z</time>
      </trkpt>
      <trkpt lat="44.92646" lon="3.52052">
        <ele>1069.12</ele>
        <time>2013-05-09T08:31:20Z</time>
      </trkpt>
      <trkpt lat="44.92639" lon="3.52037">
        <ele>1070.08</ele>
        <time>2013-05-09T08:31:34Z</time>
      </trkpt>
      <trkpt lat="44.92633" lon="3.52027">
        <ele>1070.57</ele>
        <time>2013-05-09T08:31:44Z</time>
      </trkpt>
      <trkpt lat="44.92626" lon="3.52009">
        <ele>1071.53</ele>
        <time>2013-05-09T08:31:58Z</time>
      </trkpt>
      <trkpt lat="44.9262" lon="3.52">
        <ele>1071.53</ele>
        <time>2013-05-09T08:32:07Z</time>
      </trkpt>
      <trkpt lat="44.92616" lon="3.51992">
        <ele>1072.49</ele>
        <time>2013-05-09T08:32:14Z</time>
      </trkpt>
      <trkpt lat="44.92609" lon="3.51983">
        <ele>1072.49</ele>
        <time>2013-05-09T08:32:23Z</time>
      </trkpt>
      <trkpt lat="44.92598" lon="3.51969">
        <ele>1072.97</ele>
        <time>2013-05-09T08:32:37Z</time>
      </trkpt>
      <trkpt lat="44.92596" lon="3.51967">
        <ele>1073.45</ele>
        <time>2013-05-09T08:32:39Z</time>
      </trkpt>
      <trkpt lat="44.92584" lon="3.51954">
        <ele>1074.41</ele>
        <time>2013-05-09T08:32:53Z</time>
      </trkpt>
      <trkpt lat="44.92581" lon="3.51948">
        <ele>1074.89</ele>
        <time>2013-05-09T08:33:00Z</time>
      </trkpt>
      <trkpt lat="44.92575" lon="3.51945">
        <ele>1075.37</ele>
        <time>2013-05-09T08:33:07Z</time>
      </trkpt>
      <trkpt lat="44.9256" lon="3.51931">
        <ele>1076.33</ele>
        <time>2013-05-09T08:33:22Z</time>
      </trkpt>
      <trkpt lat="44.92554" lon="3.51922">
        <ele>1076.33</ele>
        <time>2013-05-09T08:33:31Z</time>
      </trkpt>
      <trkpt lat="44.9254" lon="3.51908">
        <ele>1076.81</ele>
        <time>2013-05-09T08:33:47Z</time>
      </trkpt>
      <trkpt lat="44.92536" lon="3.51904">
        <ele>1077.29</ele>
        <time>2013-05-09T08:33:52Z</time>
      </trkpt>
      <trkpt lat="44.92534" lon="3.51903">
        <ele>1077.29</ele>
        <time>2013-05-09T08:33:54Z</time>
      </trkpt>
      <trkpt lat="44.92524" lon="3.51891">
        <ele>1077.78</ele>
        <time>2013-05-09T08:34:07Z</time>
      </trkpt>
      <trkpt lat="44.92517" lon="3.5188">
        <ele>1078.74</ele>
        <time>2013-05-09T08:34:19Z</time>
      </trkpt>
      <trkpt lat="44.92507" lon="3.51861">
        <ele>1079.22</ele>
        <time>2013-05-09T08:34:35Z</time>
      </trkpt>
      <trkpt lat="44.92503" lon="3.51853">
        <ele>1079.22</ele>
        <time>2013-05-09T08:34:41Z</time>
      </trkpt>
      <trkpt lat="44.92497" lon="3.51844">
        <ele>1079.22</ele>
        <time>2013-05-09T08:34:48Z</time>
      </trkpt>
      <trkpt lat="44.92488" lon="3.5183">
        <ele>1079.22</ele>
        <time>2013-05-09T08:35:02Z</time>
      </trkpt>
      <trkpt lat="44.92485" lon="3.51826">
        <ele>1078.74</ele>
        <time>2013-05-09T08:35:06Z</time>
      </trkpt>
      <trkpt lat="44.92476" lon="3.51815">
        <ele>1078.74</ele>
        <time>2013-05-09T08:35:17Z</time>
      </trkpt>
      <trkpt lat="44.92472" lon="3.5181">
        <ele>1079.22</ele>
        <time>2013-05-09T08:35:21Z</time>
      </trkpt>
      <trkpt lat="44.92469" lon="3.51807">
        <ele>1079.22</ele>
        <time>2013-05-09T08:35:26Z</time>
      </trkpt>
      <trkpt lat="44.92461" lon="3.51796">
        <ele>1078.74</ele>
        <time>2013-05-09T08:35:41Z</time>
      </trkpt>
      <trkpt lat="44.92457" lon="3.51788">
        <ele>1079.22</ele>
        <time>2013-05-09T08:35:53Z</time>
      </trkpt>
      <trkpt lat="44.92457" lon="3.51786">
        <ele>1078.74</ele>
        <time>2013-05-09T08:36:13Z</time>
      </trkpt>
      <trkpt lat="44.92457" lon="3.51786">
        <ele>1079.22</ele>
        <time>2013-05-09T08:36:45Z</time>
      </trkpt>
      <trkpt lat="44.92452" lon="3.51775">
        <ele>1079.22</ele>
        <time>2013-05-09T08:36:57Z</time>
      </trkpt>
      <trkpt lat="44.92449" lon="3.51767">
        <ele>1079.22</ele>
        <time>2013-05-09T08:37:02Z</time>
      </trkpt>
      <trkpt lat="44.92444" lon="3.51758">
        <ele>1079.22</ele>
        <time>2013-05-09T08:37:07Z</time>
      </trkpt>
      <trkpt lat="44.9244" lon="3.51753">
        <ele>1079.22</ele>
        <time>2013-05-09T08:37:12Z</time>
      </trkpt>
      <trkpt lat="44.92437" lon="3.51748">
        <ele>1078.74</ele>
        <time>2013-05-09T08:37:15Z</time>
      </trkpt>
      <trkpt lat="44.92437" lon="3.51745">
        <ele>1078.74</ele>
        <time>2013-05-09T08:37:17Z</time>
      </trkpt>
      <trkpt lat="44.9243" lon="3.51738">
        <ele>1078.26</ele>
        <time>2013-05-09T08:37:29Z</time>
      </trkpt>
      <trkpt lat="44.92428" lon="3.51735">
        <ele>1077.78</ele>
        <time>2013-05-09T08:37:31Z</time>
      </trkpt>
      <trkpt lat="44.92425" lon="3.51728">
        <ele>1077.78</ele>
        <time>2013-05-09T08:37:35Z</time>
      </trkpt>
      <trkpt lat="44.92414" lon="3.51707">
        <ele>1077.29</ele>
        <time>2013-05-09T08:37:50Z</time>
      </trkpt>
      <trkpt lat="44.92406" lon="3.51681">
        <ele>1075.85</ele>
        <time>2013-05-09T08:38:04Z</time>
      </trkpt>
      <trkpt lat="44.92404" lon="3.51674">
        <ele>1075.85</ele>
        <time>2013-05-09T08:38:07Z</time>
      </trkpt>
      <trkpt lat="44.92389" lon="3.51656">
        <ele>1075.85</ele>
        <time>2013-05-09T08:38:16Z</time>
      </trkpt>
      <trkpt lat="44.92378" lon="3.51649">
        <ele>1075.37</ele>
        <time>2013-05-09T08:38:27Z</time>
      </trkpt>
      <trkpt lat="44.92377" lon="3.51649">
        <ele>1075.37</ele>
        <time>2013-05-09T08:38:28Z</time>
      </trkpt>
      <trkpt lat="44.9236" lon="3.51639">
        <ele>1075.37</ele>
        <time>2013-05-09T08:38:40Z</time>
      </trkpt>
      <trkpt lat="44.92357" lon="3.51636">
        <ele>1074.89</ele>
        <time>2013-05-09T08:38:43Z</time>
      </trkpt>
      <trkpt lat="44.92351" lon="3.5163">
        <ele>1074.89</ele>
        <time>2013-05-09T08:38:47Z</time>
      </trkpt>
      <trkpt lat="44.92345" lon="3.51626">
        <ele>1074.89</ele>
        <time>2013-05-09T08:38:50Z</time>
      </trkpt>
      <trkpt lat="44.92333" lon="3.51613">
        <ele>1074.89</ele>
        <time>2013-05-09T08:39:00Z</time>
      </trkpt>
      <trkpt lat="44.92332" lon="3.51608">
        <ele>1074.41</ele>
        <time>2013-05-09T08:39:03Z</time>
      </trkpt>
      <trkpt lat="44.92328" lon="3.516">
        <ele>1074.41</ele>
        <time>2013-05-09T08:39:07Z</time>
      </trkpt>
      <trkpt lat="44.92318" lon="3.51573">
        <ele>1073.45</ele>
        <time>2013-05-09T08:39:21Z</time>
      </trkpt>
      <trkpt lat="44.92316" lon="3.51567">
        <ele>1072.97</ele>
        <time>2013-05-09T08:39:24Z</time>
      </trkpt>
      <trkpt lat="44.9231" lon="3.51557">
        <ele>1072.49</ele>
        <time>2013-05-09T08:39:29Z</time>
      </trkpt>
      <trkpt lat="44.92303" lon="3.51541">
        <ele>1071.53</ele>
        <time>2013-05-09T08:39:36Z</time>
      </trkpt>
      <trkpt lat="44.92294" lon="3.51527">
        <ele>1071.53</ele>
        <time>2013-05-09T08:39:44Z</time>
      </trkpt>
      <trkpt lat="44.92281" lon="3.51503">
        <ele>1070.08</ele>
        <time>2013-05-09T08:39:59Z</time>
      </trkpt>
      <trkpt lat="44.92277" lon="3.51491">
        <ele>1070.08</ele>
        <time>2013-05-09T08:40:06Z</time>
      </trkpt>
      <trkpt lat="44.92274" lon="3.51488">
        <ele>1070.08</ele>
        <time>2013-05-09T08:40:09Z</time>
      </trkpt>
      <trkpt lat="44.92269" lon="3.51475">
        <ele>1069.6</ele>
        <time>2013-05-09T08:40:20Z</time>
      </trkpt>
      <trkpt lat="44.92268" lon="3.51471">
        <ele>1069.12</ele>
        <time>2013-05-09T08:40:22Z</time>
      </trkpt>
      <trkpt lat="44.92264" lon="3.51463">
        <ele>1069.12</ele>
        <time>2013-05-09T08:40:28Z</time>
      </trkpt>
      <trkpt lat="44.92262" lon="3.5146">
        <ele>1068.64</ele>
        <time>2013-05-09T08:40:30Z</time>
      </trkpt>
      <trkpt lat="44.92259" lon="3.51454">
        <ele>1068.64</ele>
        <time>2013-05-09T08:40:35Z</time>
      </trkpt>
      <trkpt lat="44.92259" lon="3.51451">
        <ele>1068.16</ele>
        <time>2013-05-09T08:40:37Z</time>
      </trkpt>
      <trkpt lat="44.92252" lon="3.51435">
        <ele>1067.2</ele>
        <time>2013-05-09T08:40:49Z</time>
      </trkpt>
      <trkpt lat="44.9225" lon="3.5143">
        <ele>1067.2</ele>
        <time>2013-05-09T08:40:53Z</time>
      </trkpt>
      <trkpt lat="44.92243" lon="3.51411">
        <ele>1066.72</ele>
        <time>2013-05-09T08:41:05Z</time>
      </trkpt>
      <trkpt lat="44.92236" lon="3.51391">
        <ele>1065.76</ele>
        <time>2013-05-09T08:41:19Z</time>
      </trkpt>
      <trkpt lat="44.92231" lon="3.51382">
        <ele>1066.24</ele>
        <time>2013-05-09T08:41:27Z</time>
      </trkpt>
      <trkpt lat="44.92228" lon="3.51374">
        <ele>1066.24</ele>
        <time>2013-05-09T08:41:33Z</time>
      </trkpt>
      <trkpt lat="44.92227" lon="3.5137">
        <ele>1066.24</ele>
        <time>2013-05-09T08:41:35Z</time>
      </trkpt>
      <trkpt lat="44.92224" lon="3.51364">
        <ele>1066.24</ele>
        <time>2013-05-09T08:41:39Z</time>
      </trkpt>
      <trkpt lat="44.92221" lon="3.5135">
        <ele>1066.24</ele>
        <time>2013-05-09T08:41:48Z</time>
      </trkpt>
      <trkpt lat="44.9222" lon="3.51334">
        <ele>1066.24</ele>
        <time>2013-05-09T08:42:00Z</time>
      </trkpt>
      <trkpt lat="44.92219" lon="3.51333">
        <ele>1065.76</ele>
        <time>2013-05-09T08:42:01Z</time>
      </trkpt>
      <trkpt lat="44.92216" lon="3.51327">
        <ele>1060.95</ele>
        <time>2013-05-09T08:42:06Z</time>
      </trkpt>
      <trkpt lat="44.92216" lon="3.51325">
        <ele>1067.2</ele>
        <time>2013-05-09T08:42:07Z</time>
      </trkpt>
      <trkpt lat="44.92215" lon="3.51323">
        <ele>1065.76</ele>
        <time>2013-05-09T08:42:11Z</time>
      </trkpt>
      <trkpt lat="44.92211" lon="3.51309">
        <ele>1065.28</ele>
        <time>2013-05-09T08:42:16Z</time>
      </trkpt>
      <trkpt lat="44.9221" lon="3.51297">
        <ele>1065.76</ele>
        <time>2013-05-09T08:42:25Z</time>
      </trkpt>
      <trkpt lat="44.92207" lon="3.51285">
        <ele>1065.76</ele>
        <time>2013-05-09T08:42:35Z</time>
      </trkpt>
      <trkpt lat="44.92204" lon="3.51279">
        <ele>1061.43</ele>
        <time>2013-05-09T08:42:42Z</time>
      </trkpt>
      <trkpt lat="44.92204" lon="3.51278">
        <ele>1066.72</ele>
        <time>2013-05-09T08:42:43Z</time>
      </trkpt>
      <trkpt lat="44.92202" lon="3.51271">
        <ele>1066.24</ele>
        <time>2013-05-09T08:42:49Z</time>
      </trkpt>
      <trkpt lat="44.922" lon="3.51261">
        <ele>1066.24</ele>
        <time>2013-05-09T08:42:58Z</time>
      </trkpt>
      <trkpt lat="44.92198" lon="3.51252">
        <ele>1066.24</ele>
        <time>2013-05-09T08:43:06Z</time>
      </trkpt>
      <trkpt lat="44.92198" lon="3.51251">
        <ele>1066.72</ele>
        <time>2013-05-09T08:43:08Z</time>
      </trkpt>
      <trkpt lat="44.92196" lon="3.51246">
        <ele>1066.72</ele>
        <time>2013-05-09T08:43:12Z</time>
      </trkpt>
      <trkpt lat="44.92194" lon="3.51235">
        <ele>1066.72</ele>
        <time>2013-05-09T08:43:21Z</time>
      </trkpt>
      <trkpt lat="44.9219" lon="3.51224">
        <ele>1066.72</ele>
        <time>2013-05-09T08:43:30Z</time>
      </trkpt>
      <trkpt lat="44.92188" lon="3.51212">
        <ele>1067.2</ele>
        <time>2013-05-09T08:43:39Z</time>
      </trkpt>
      <trkpt lat="44.92188" lon="3.5121">
        <ele>1066.72</ele>
        <time>2013-05-09T08:43:40Z</time>
      </trkpt>
      <trkpt lat="44.92186" lon="3.512">
        <ele>1067.2</ele>
        <time>2013-05-09T08:43:48Z</time>
      </trkpt>
      <trkpt lat="44.92184" lon="3.51186">
        <ele>1067.2</ele>
        <time>2013-05-09T08:43:57Z</time>
      </trkpt>
      <trkpt lat="44.92184" lon="3.51186">
        <ele>1067.68</ele>
        <time>2013-05-09T08:44:00Z</time>
      </trkpt>
      <trkpt lat="44.92183" lon="3.51178">
        <ele>1067.68</ele>
        <time>2013-05-09T08:44:06Z</time>
      </trkpt>
      <trkpt lat="44.92181" lon="3.51164">
        <ele>1067.68</ele>
        <time>2013-05-09T08:44:14Z</time>
      </trkpt>
      <trkpt lat="44.92178" lon="3.51151">
        <ele>1068.16</ele>
        <time>2013-05-09T08:44:24Z</time>
      </trkpt>
      <trkpt lat="44.92177" lon="3.51149">
        <ele>1068.64</ele>
        <time>2013-05-09T08:44:28Z</time>
      </trkpt>
      <trkpt lat="44.9217" lon="3.51134">
        <ele>1069.12</ele>
        <time>2013-05-09T08:44:37Z</time>
      </trkpt>
      <trkpt lat="44.92164" lon="3.51125">
        <ele>1069.12</ele>
        <time>2013-05-09T08:44:45Z</time>
      </trkpt>
      <trkpt lat="44.92158" lon="3.51113">
        <ele>1069.6</ele>
        <time>2013-05-09T08:44:54Z</time>
      </trkpt>
      <trkpt lat="44.92158" lon="3.5111">
        <ele>1069.12</ele>
        <time>2013-05-09T08:44:56Z</time>
      </trkpt>
      <trkpt lat="44.92158" lon="3.511">
        <ele>1070.57</ele>
        <time>2013-05-09T08:45:02Z</time>
      </trkpt>
      <trkpt lat="44.92157" lon="3.51095">
        <ele>1070.08</ele>
        <time>2013-05-09T08:45:07Z</time>
      </trkpt>
      <trkpt lat="44.92154" lon="3.51087">
        <ele>1071.05</ele>
        <time>2013-05-09T08:45:13Z</time>
      </trkpt>
      <trkpt lat="44.92153" lon="3.51078">
        <ele>1071.05</ele>
        <time>2013-05-09T08:45:18Z</time>
      </trkpt>
      <trkpt lat="44.92152" lon="3.51075">
        <ele>1071.05</ele>
        <time>2013-05-09T08:45:21Z</time>
      </trkpt>
      <trkpt lat="44.92151" lon="3.51068">
        <ele>1072.97</ele>
        <time>2013-05-09T08:45:25Z</time>
      </trkpt>
      <trkpt lat="44.9215" lon="3.51061">
        <ele>1072.49</ele>
        <time>2013-05-09T08:45:31Z</time>
      </trkpt>
      <trkpt lat="44.92146" lon="3.51053">
        <ele>1072.97</ele>
        <time>2013-05-09T08:45:38Z</time>
      </trkpt>
      <trkpt lat="44.92144" lon="3.5105">
        <ele>1072.97</ele>
        <time>2013-05-09T08:45:41Z</time>
      </trkpt>
      <trkpt lat="44.92141" lon="3.51043">
        <ele>1072.97</ele>
        <time>2013-05-09T08:45:47Z</time>
      </trkpt>
      <trkpt lat="44.9214" lon="3.51038">
        <ele>1073.45</ele>
        <time>2013-05-09T08:45:51Z</time>
      </trkpt>
      <trkpt lat="44.92138" lon="3.51032">
        <ele>1072.97</ele>
        <time>2013-05-09T08:45:55Z</time>
      </trkpt>
      <trkpt lat="44.92137" lon="3.5103">
        <ele>1073.93</ele>
        <time>2013-05-09T08:45:57Z</time>
      </trkpt>
      <trkpt lat="44.92136" lon="3.51027">
        <ele>1073.45</ele>
        <time>2013-05-09T08:45:59Z</time>
      </trkpt>
      <trkpt lat="44.92133" lon="3.51021">
        <ele>1073.93</ele>
        <time>2013-05-09T08:46:05Z</time>
      </trkpt>
      <trkpt lat="44.92125" lon="3.51008">
        <ele>1073.93</ele>
        <time>2013-05-09T08:46:16Z</time>
      </trkpt>
      <trkpt lat="44.92125" lon="3.51003">
        <ele>1073.93</ele>
        <time>2013-05-09T08:46:19Z</time>
      </trkpt>
      <trkpt lat="44.92123" lon="3.51001">
        <ele>1073.93</ele>
        <time>2013-05-09T08:46:21Z</time>
      </trkpt>
      <trkpt lat="44.92119" lon="3.50983">
        <ele>1073.45</ele>
        <time>2013-05-09T08:46:34Z</time>
      </trkpt>
      <trkpt lat="44.92117" lon="3.5098">
        <ele>1073.93</ele>
        <time>2013-05-09T08:46:37Z</time>
      </trkpt>
      <trkpt lat="44.92115" lon="3.50977">
        <ele>1073.45</ele>
        <time>2013-05-09T08:46:40Z</time>
      </trkpt>
      <trkpt lat="44.92114" lon="3.50975">
        <ele>1073.45</ele>
        <time>2013-05-09T08:46:42Z</time>
      </trkpt>
      <trkpt lat="44.92111" lon="3.50969">
        <ele>1073.93</ele>
        <time>2013-05-09T08:46:47Z</time>
      </trkpt>
      <trkpt lat="44.92108" lon="3.50964">
        <ele>1073.45</ele>
        <time>2013-05-09T08:46:52Z</time>
      </trkpt>
      <trkpt lat="44.92107" lon="3.5096">
        <ele>1073.45</ele>
        <time>2013-05-09T08:46:55Z</time>
      </trkpt>
      <trkpt lat="44.92102" lon="3.50955">
        <ele>1073.45</ele>
        <time>2013-05-09T08:47:02Z</time>
      </trkpt>
      <trkpt lat="44.92103" lon="3.50949">
        <ele>1072.97</ele>
        <time>2013-05-09T08:47:05Z</time>
      </trkpt>
      <trkpt lat="44.92096" lon="3.50929">
        <ele>1072.01</ele>
        <time>2013-05-09T08:47:22Z</time>
      </trkpt>
      <trkpt lat="44.92093" lon="3.50923">
        <ele>1072.01</ele>
        <time>2013-05-09T08:47:29Z</time>
      </trkpt>
      <trkpt lat="44.92089" lon="3.50917">
        <ele>1071.53</ele>
        <time>2013-05-09T08:47:35Z</time>
      </trkpt>
      <trkpt lat="44.92084" lon="3.50912">
        <ele>1071.53</ele>
        <time>2013-05-09T08:47:40Z</time>
      </trkpt>
      <trkpt lat="44.92081" lon="3.50909">
        <ele>1071.05</ele>
        <time>2013-05-09T08:47:43Z</time>
      </trkpt>
      <trkpt lat="44.92079" lon="3.50902">
        <ele>1071.05</ele>
        <time>2013-05-09T08:47:48Z</time>
      </trkpt>
      <trkpt lat="44.92073" lon="3.5089">
        <ele>1070.08</ele>
        <time>2013-05-09T08:48:00Z</time>
      </trkpt>
      <trkpt lat="44.92074" lon="3.50888">
        <ele>1070.08</ele>
        <time>2013-05-09T08:48:01Z</time>
      </trkpt>
      <trkpt lat="44.92072" lon="3.50885">
        <ele>1070.57</ele>
        <time>2013-05-09T08:48:04Z</time>
      </trkpt>
      <trkpt lat="44.92071" lon="3.50879">
        <ele>1070.57</ele>
        <time>2013-05-09T08:48:08Z</time>
      </trkpt>
      <trkpt lat="44.92067" lon="3.50877">
        <ele>1070.08</ele>
        <time>2013-05-09T08:48:12Z</time>
      </trkpt>
      <trkpt lat="44.92068" lon="3.50869">
        <ele>1069.6</ele>
        <time>2013-05-09T08:48:19Z</time>
      </trkpt>
      <trkpt lat="44.92064" lon="3.50862">
        <ele>1069.12</ele>
        <time>2013-05-09T08:48:28Z</time>
      </trkpt>
      <trkpt lat="44.92061" lon="3.50852">
        <ele>1069.6</ele>
        <time>2013-05-09T08:48:36Z</time>
      </trkpt>
      <trkpt lat="44.9206" lon="3.5085">
        <ele>1069.12</ele>
        <time>2013-05-09T08:48:38Z</time>
      </trkpt>
      <trkpt lat="44.92056" lon="3.50847">
        <ele>1069.12</ele>
        <time>2013-05-09T08:48:41Z</time>
      </trkpt>
      <trkpt lat="44.92055" lon="3.5084">
        <ele>1068.64</ele>
        <time>2013-05-09T08:48:46Z</time>
      </trkpt>
      <trkpt lat="44.92055" lon="3.50836">
        <ele>1068.64</ele>
        <time>2013-05-09T08:48:49Z</time>
      </trkpt>
      <trkpt lat="44.92054" lon="3.50832">
        <ele>1068.64</ele>
        <time>2013-05-09T08:48:52Z</time>
      </trkpt>
      <trkpt lat="44.9205" lon="3.50823">
        <ele>1068.16</ele>
        <time>2013-05-09T08:49:00Z</time>
      </trkpt>
      <trkpt lat="44.92047" lon="3.50816">
        <ele>1067.68</ele>
        <time>2013-05-09T08:49:05Z</time>
      </trkpt>
      <trkpt lat="44.92043" lon="3.50814">
        <ele>1067.2</ele>
        <time>2013-05-09T08:49:09Z</time>
      </trkpt>
      <trkpt lat="44.92042" lon="3.50806">
        <ele>1067.68</ele>
        <time>2013-05-09T08:49:14Z</time>
      </trkpt>
      <trkpt lat="44.92039" lon="3.50795">
        <ele>1067.2</ele>
        <time>2013-05-09T08:49:21Z</time>
      </trkpt>
      <trkpt lat="44.92033" lon="3.50787">
        <ele>1066.24</ele>
        <time>2013-05-09T08:49:29Z</time>
      </trkpt>
      <trkpt lat="44.92031" lon="3.50781">
        <ele>1065.76</ele>
        <time>2013-05-09T08:49:33Z</time>
      </trkpt>
      <trkpt lat="44.92026" lon="3.50774">
        <ele>1065.76</ele>
        <time>2013-05-09T08:49:39Z</time>
      </trkpt>
      <trkpt lat="44.92019" lon="3.50749">
        <ele>1060.95</ele>
        <time>2013-05-09T08:49:54Z</time>
      </trkpt>
      <trkpt lat="44.92019" lon="3.50748">
        <ele>1065.28</ele>
        <time>2013-05-09T08:49:55Z</time>
      </trkpt>
      <trkpt lat="44.92014" lon="3.50733">
        <ele>1063.36</ele>
        <time>2013-05-09T08:50:08Z</time>
      </trkpt>
      <trkpt lat="44.92011" lon="3.50726">
        <ele>1061.91</ele>
        <time>2013-05-09T08:50:15Z</time>
      </trkpt>
      <trkpt lat="44.92009" lon="3.50721">
        <ele>1062.39</ele>
        <time>2013-05-09T08:50:19Z</time>
      </trkpt>
      <trkpt lat="44.92005" lon="3.50718">
        <ele>1061.91</ele>
        <time>2013-05-09T08:50:24Z</time>
      </trkpt>
      <trkpt lat="44.92004" lon="3.50706">
        <ele>1061.43</ele>
        <time>2013-05-09T08:50:33Z</time>
      </trkpt>
      <trkpt lat="44.91994" lon="3.50688">
        <ele>1060.95</ele>
        <time>2013-05-09T08:50:48Z</time>
      </trkpt>
      <trkpt lat="44.91985" lon="3.50673">
        <ele>1060.95</ele>
        <time>2013-05-09T08:51:01Z</time>
      </trkpt>
      <trkpt lat="44.91982" lon="3.50672">
        <ele>1060.47</ele>
        <time>2013-05-09T08:51:03Z</time>
      </trkpt>
      <trkpt lat="44.91975" lon="3.50661">
        <ele>1059.99</ele>
        <time>2013-05-09T08:51:12Z</time>
      </trkpt>
      <trkpt lat="44.91967" lon="3.50656">
        <ele>1059.99</ele>
        <time>2013-05-09T08:51:19Z</time>
      </trkpt>
      <trkpt lat="44.91965" lon="3.50653">
        <ele>1059.99</ele>
        <time>2013-05-09T08:51:22Z</time>
      </trkpt>
      <trkpt lat="44.91962" lon="3.50646">
        <ele>1059.51</ele>
        <time>2013-05-09T08:51:27Z</time>
      </trkpt>
      <trkpt lat="44.9196" lon="3.50644">
        <ele>1059.03</ele>
        <time>2013-05-09T08:51:30Z</time>
      </trkpt>
      <trkpt lat="44.91958" lon="3.50638">
        <ele>1059.03</ele>
        <time>2013-05-09T08:51:36Z</time>
      </trkpt>
      <trkpt lat="44.91956" lon="3.50637">
        <ele>1059.03</ele>
        <time>2013-05-09T08:51:38Z</time>
      </trkpt>
      <trkpt lat="44.91953" lon="3.50632">
        <ele>1058.55</ele>
        <time>2013-05-09T08:51:43Z</time>
      </trkpt>
      <trkpt lat="44.91947" lon="3.50625">
        <ele>1058.55</ele>
        <time>2013-05-09T08:51:52Z</time>
      </trkpt>
      <trkpt lat="44.91946" lon="3.50621">
        <ele>1058.55</ele>
        <time>2013-05-09T08:51:56Z</time>
      </trkpt>
      <trkpt lat="44.91935" lon="3.50607">
        <ele>1058.07</ele>
        <time>2013-05-09T08:52:11Z</time>
      </trkpt>
      <trkpt lat="44.91934" lon="3.50605">
        <ele>1058.07</ele>
        <time>2013-05-09T08:52:12Z</time>
      </trkpt>
      <trkpt lat="44.91926" lon="3.50594">
        <ele>1057.59</ele>
        <time>2013-05-09T08:52:20Z</time>
      </trkpt>
      <trkpt lat="44.91921" lon="3.50584">
        <ele>1056.63</ele>
        <time>2013-05-09T08:52:26Z</time>
      </trkpt>
      <trkpt lat="44.91916" lon="3.5057">
        <ele>1056.15</ele>
        <time>2013-05-09T08:52:36Z</time>
      </trkpt>
      <trkpt lat="44.91912" lon="3.50558">
        <ele>1055.18</ele>
        <time>2013-05-09T08:52:48Z</time>
      </trkpt>
      <trkpt lat="44.91908" lon="3.50546">
        <ele>1054.7</ele>
        <time>2013-05-09T08:53:00Z</time>
      </trkpt>
      <trkpt lat="44.91907" lon="3.50545">
        <ele>1054.7</ele>
        <time>2013-05-09T08:53:01Z</time>
      </trkpt>
      <trkpt lat="44.91907" lon="3.50533">
        <ele>1054.7</ele>
        <time>2013-05-09T08:53:09Z</time>
      </trkpt>
      <trkpt lat="44.91901" lon="3.50512">
        <ele>1053.74</ele>
        <time>2013-05-09T08:53:26Z</time>
      </trkpt>
      <trkpt lat="44.91888" lon="3.50488">
        <ele>1052.3</ele>
        <time>2013-05-09T08:53:42Z</time>
      </trkpt>
      <trkpt lat="44.91875" lon="3.50483">
        <ele>1053.74</ele>
        <time>2013-05-09T08:53:57Z</time>
      </trkpt>
      <trkpt lat="44.91863" lon="3.50482">
        <ele>1053.74</ele>
        <time>2013-05-09T08:54:13Z</time>
      </trkpt>
      <trkpt lat="44.91861" lon="3.50483">
        <ele>1053.26</ele>
        <time>2013-05-09T08:54:24Z</time>
      </trkpt>
      <trkpt lat="44.91859" lon="3.50482">
        <ele>1053.74</ele>
        <time>2013-05-09T08:54:40Z</time>
      </trkpt>
      <trkpt lat="44.9186" lon="3.50479">
        <ele>1053.26</ele>
        <time>2013-05-09T08:54:57Z</time>
      </trkpt>
      <trkpt lat="44.9186" lon="3.50479">
        <ele>1049.9</ele>
        <time>2013-05-09T08:55:05Z</time>
      </trkpt>
      <trkpt lat="44.9186" lon="3.50479">
        <ele>1058.55</ele>
        <time>2013-05-09T08:55:06Z</time>
      </trkpt>
      <trkpt lat="44.9186" lon="3.50479">
        <ele>1053.74</ele>
        <time>2013-05-09T08:55:07Z</time>
      </trkpt>
      <trkpt lat="44.9186" lon="3.50479">
        <ele>1047.49</ele>
        <time>2013-05-09T08:55:29Z</time>
      </trkpt>
      <trkpt lat="44.9186" lon="3.50479">
        <ele>1058.55</ele>
        <time>2013-05-09T08:55:30Z</time>
      </trkpt>
      <trkpt lat="44.9186" lon="3.50479">
        <ele>1053.74</ele>
        <time>2013-05-09T08:55:31Z</time>
      </trkpt>
      <trkpt lat="44.9186" lon="3.50479">
        <ele>1053.26</ele>
        <time>2013-05-09T08:55:58Z</time>
      </trkpt>
      <trkpt lat="44.91861" lon="3.50479">
        <ele>1049.42</ele>
        <time>2013-05-09T08:56:18Z</time>
      </trkpt>
      <trkpt lat="44.91861" lon="3.50479">
        <ele>1054.7</ele>
        <time>2013-05-09T08:56:19Z</time>
      </trkpt>
      <trkpt lat="44.91861" lon="3.50478">
        <ele>1050.86</ele>
        <time>2013-05-09T08:56:39Z</time>
      </trkpt>
      <trkpt lat="44.91861" lon="3.50478">
        <ele>1054.7</ele>
        <time>2013-05-09T08:56:41Z</time>
      </trkpt>
      <trkpt lat="44.91861" lon="3.50478">
        <ele>1053.26</ele>
        <time>2013-05-09T08:56:42Z</time>
      </trkpt>
      <trkpt lat="44.91861" lon="3.50478">
        <ele>1053.74</ele>
        <time>2013-05-09T08:57:07Z</time>
      </trkpt>
      <trkpt lat="44.91861" lon="3.50478">
        <ele>1053.26</ele>
        <time>2013-05-09T08:57:22Z</time>
      </trkpt>
      <trkpt lat="44.91861" lon="3.50478">
        <ele>1052.78</ele>
        <time>2013-05-09T08:57:41Z</time>
      </trkpt>
      <trkpt lat="44.91861" lon="3.50477">
        <ele>1052.78</ele>
        <time>2013-05-09T08:58:11Z</time>
      </trkpt>
      <trkpt lat="44.91861" lon="3.50477">
        <ele>1052.78</ele>
        <time>2013-05-09T08:58:46Z</time>
      </trkpt>
      <trkpt lat="44.91861" lon="3.50477">
        <ele>1052.3</ele>
        <time>2013-05-09T08:59:23Z</time>
      </trkpt>
      <trkpt lat="44.91861" lon="3.50478">
        <ele>1052.78</ele>
        <time>2013-05-09T09:00:03Z</time>
      </trkpt>
      <trkpt lat="44.91861" lon="3.50478">
        <ele>1052.3</ele>
        <time>2013-05-09T09:00:33Z</time>
      </trkpt>
      <trkpt lat="44.91861" lon="3.50478">
        <ele>1052.3</ele>
        <time>2013-05-09T09:01:09Z</time>
      </trkpt>
      <trkpt lat="44.91861" lon="3.50478">
        <ele>1051.82</ele>
        <time>2013-05-09T09:01:52Z</time>
      </trkpt>
      <trkpt lat="44.91861" lon="3.50479">
        <ele>1051.82</ele>
        <time>2013-05-09T09:02:34Z</time>
      </trkpt>
      <trkpt lat="44.91861" lon="3.50479">
        <ele>1051.82</ele>
        <time>2013-05-09T09:03:20Z</time>
      </trkpt>
      <trkpt lat="44.91861" lon="3.50479">
        <ele>1052.3</ele>
        <time>2013-05-09T09:04:01Z</time>
      </trkpt>
      <trkpt lat="44.9186" lon="3.50478">
        <ele>1051.82</ele>
        <time>2013-05-09T09:04:45Z</time>
      </trkpt>
      <trkpt lat="44.9186" lon="3.50478">
        <ele>1051.82</ele>
        <time>2013-05-09T09:05:23Z</time>
      </trkpt>
      <trkpt lat="44.9186" lon="3.50478">
        <ele>1051.82</ele>
        <time>2013-05-09T09:06:02Z</time>
      </trkpt>
      <trkpt lat="44.9186" lon="3.50478">
        <ele>1051.82</ele>
        <time>2013-05-09T09:06:42Z</time>
      </trkpt>
      <trkpt lat="44.9186" lon="3.50478">
        <ele>1051.34</ele>
        <time>2013-05-09T09:07:18Z</time>
      </trkpt>
      <trkpt lat="44.9186" lon="3.50478">
        <ele>1051.34</ele>
        <time>2013-05-09T09:07:58Z</time>
      </trkpt>
      <trkpt lat="44.9186" lon="3.50478">
        <ele>1051.34</ele>
        <time>2013-05-09T09:08:33Z</time>
      </trkpt>
      <trkpt lat="44.9186" lon="3.50478">
        <ele>1050.86</ele>
        <time>2013-05-09T09:09:09Z</time>
      </trkpt>
      <trkpt lat="44.9186" lon="3.50478">
        <ele>1051.34</ele>
        <time>2013-05-09T09:09:43Z</time>
      </trkpt>
      <trkpt lat="44.9186" lon="3.50478">
        <ele>1051.34</ele>
        <time>2013-05-09T09:10:20Z</time>
      </trkpt>
      <trkpt lat="44.9186" lon="3.50478">
        <ele>1050.86</ele>
        <time>2013-05-09T09:10:52Z</time>
      </trkpt>
      <trkpt lat="44.9186" lon="3.50477">
        <ele>1050.86</ele>
        <time>2013-05-09T09:11:33Z</time>
      </trkpt>
      <trkpt lat="44.9186" lon="3.50477">
        <ele>1050.86</ele>
        <time>2013-05-09T09:12:11Z</time>
      </trkpt>
      <trkpt lat="44.91862" lon="3.50481">
        <ele>1051.82</ele>
        <time>2013-05-09T09:12:32Z</time>
      </trkpt>
      <trkpt lat="44.91861" lon="3.50482">
        <ele>1051.34</ele>
        <time>2013-05-09T09:12:44Z</time>
      </trkpt>
      <trkpt lat="44.91861" lon="3.50482">
        <ele>1051.82</ele>
        <time>2013-05-09T09:13:09Z</time>
      </trkpt>
      <trkpt lat="44.91859" lon="3.50482">
        <ele>1051.82</ele>
        <time>2013-05-09T09:13:22Z</time>
      </trkpt>
      <trkpt lat="44.91859" lon="3.50481">
        <ele>1050.86</ele>
        <time>2013-05-09T09:13:46Z</time>
      </trkpt>
      <trkpt lat="44.91857" lon="3.50481">
        <ele>1052.3</ele>
        <time>2013-05-09T09:14:01Z</time>
      </trkpt>
      <trkpt lat="44.91856" lon="3.50481">
        <ele>1051.82</ele>
        <time>2013-05-09T09:14:19Z</time>
      </trkpt>
      <trkpt lat="44.91848" lon="3.50485">
        <ele>1050.86</ele>
        <time>2013-05-09T09:14:37Z</time>
      </trkpt>
      <trkpt lat="44.91845" lon="3.50486">
        <ele>1051.34</ele>
        <time>2013-05-09T09:14:40Z</time>
      </trkpt>
      <trkpt lat="44.91842" lon="3.50488">
        <ele>1053.26</ele>
        <time>2013-05-09T09:14:45Z</time>
      </trkpt>
      <trkpt lat="44.91832" lon="3.50494">
        <ele>1054.22</ele>
        <time>2013-05-09T09:14:58Z</time>
      </trkpt>
      <trkpt lat="44.91822" lon="3.50502">
        <ele>1055.18</ele>
        <time>2013-05-09T09:15:11Z</time>
      </trkpt>
      <trkpt lat="44.91811" lon="3.50502">
        <ele>1056.63</ele>
        <time>2013-05-09T09:15:24Z</time>
      </trkpt>
      <trkpt lat="44.918" lon="3.50498">
        <ele>1058.07</ele>
        <time>2013-05-09T09:15:37Z</time>
      </trkpt>
      <trkpt lat="44.91795" lon="3.50497">
        <ele>1059.03</ele>
        <time>2013-05-09T09:15:43Z</time>
      </trkpt>
      <trkpt lat="44.91785" lon="3.50494">
        <ele>1059.99</ele>
        <time>2013-05-09T09:15:57Z</time>
      </trkpt>
      <trkpt lat="44.91775" lon="3.5049">
        <ele>1062.39</ele>
        <time>2013-05-09T09:16:09Z</time>
      </trkpt>
      <trkpt lat="44.91769" lon="3.50488">
        <ele>1063.36</ele>
        <time>2013-05-09T09:16:17Z</time>
      </trkpt>
      <trkpt lat="44.91763" lon="3.50483">
        <ele>1065.28</ele>
        <time>2013-05-09T09:16:29Z</time>
      </trkpt>
      <trkpt lat="44.9176" lon="3.50481">
        <ele>1064.8</ele>
        <time>2013-05-09T09:16:33Z</time>
      </trkpt>
      <trkpt lat="44.9175" lon="3.50474">
        <ele>1067.2</ele>
        <time>2013-05-09T09:16:45Z</time>
      </trkpt>
      <trkpt lat="44.91744" lon="3.50467">
        <ele>1068.64</ele>
        <time>2013-05-09T09:16:57Z</time>
      </trkpt>
      <trkpt lat="44.91737" lon="3.50461">
        <ele>1070.57</ele>
        <time>2013-05-09T09:17:08Z</time>
      </trkpt>
      <trkpt lat="44.91733" lon="3.50457">
        <ele>1071.53</ele>
        <time>2013-05-09T09:17:18Z</time>
      </trkpt>
      <trkpt lat="44.91728" lon="3.50454">
        <ele>1072.49</ele>
        <time>2013-05-09T09:17:30Z</time>
      </trkpt>
      <trkpt lat="44.91724" lon="3.50444">
        <ele>1072.97</ele>
        <time>2013-05-09T09:17:42Z</time>
      </trkpt>
      <trkpt lat="44.9172" lon="3.50436">
        <ele>1073.93</ele>
        <time>2013-05-09T09:17:54Z</time>
      </trkpt>
      <trkpt lat="44.91714" lon="3.50427">
        <ele>1075.37</ele>
        <time>2013-05-09T09:18:07Z</time>
      </trkpt>
      <trkpt lat="44.91703" lon="3.50418">
        <ele>1076.81</ele>
        <time>2013-05-09T09:18:21Z</time>
      </trkpt>
      <trkpt lat="44.91696" lon="3.50412">
        <ele>1077.29</ele>
        <time>2013-05-09T09:18:34Z</time>
      </trkpt>
      <trkpt lat="44.91683" lon="3.5041">
        <ele>1077.29</ele>
        <time>2013-05-09T09:18:46Z</time>
      </trkpt>
      <trkpt lat="44.91677" lon="3.50409">
        <ele>1077.78</ele>
        <time>2013-05-09T09:18:53Z</time>
      </trkpt>
      <trkpt lat="44.91672" lon="3.50409">
        <ele>1078.26</ele>
        <time>2013-05-09T09:18:58Z</time>
      </trkpt>
      <trkpt lat="44.91667" lon="3.50408">
        <ele>1078.26</ele>
        <time>2013-05-09T09:19:03Z</time>
      </trkpt>
      <trkpt lat="44.91659" lon="3.50408">
        <ele>1078.26</ele>
        <time>2013-05-09T09:19:12Z</time>
      </trkpt>
      <trkpt lat="44.91646" lon="3.50411">
        <ele>1078.26</ele>
        <time>2013-05-09T09:19:27Z</time>
      </trkpt>
      <trkpt lat="44.91642" lon="3.50412">
        <ele>1078.74</ele>
        <time>2013-05-09T09:19:41Z</time>
      </trkpt>
      <trkpt lat="44.9164" lon="3.50414">
        <ele>1079.22</ele>
        <time>2013-05-09T09:19:54Z</time>
      </trkpt>
      <trkpt lat="44.91634" lon="3.50414">
        <ele>1079.7</ele>
        <time>2013-05-09T09:20:07Z</time>
      </trkpt>
      <trkpt lat="44.91625" lon="3.50414">
        <ele>1079.22</ele>
        <time>2013-05-09T09:20:19Z</time>
      </trkpt>
      <trkpt lat="44.91612" lon="3.50418">
        <ele>1079.7</ele>
        <time>2013-05-09T09:20:32Z</time>
      </trkpt>
      <trkpt lat="44.91598" lon="3.50424">
        <ele>1080.66</ele>
        <time>2013-05-09T09:20:47Z</time>
      </trkpt>
      <trkpt lat="44.91585" lon="3.50433">
        <ele>1080.66</ele>
        <time>2013-05-09T09:21:01Z</time>
      </trkpt>
      <trkpt lat="44.91578" lon="3.50439">
        <ele>1080.66</ele>
        <time>2013-05-09T09:21:09Z</time>
      </trkpt>
      <trkpt lat="44.91566" lon="3.50446">
        <ele>1081.14</ele>
        <time>2013-05-09T09:21:23Z</time>
      </trkpt>
      <trkpt lat="44.91552" lon="3.50452">
        <ele>1081.14</ele>
        <time>2013-05-09T09:21:38Z</time>
      </trkpt>
      <trkpt lat="44.91542" lon="3.50457">
        <ele>1080.66</ele>
        <time>2013-05-09T09:21:48Z</time>
      </trkpt>
      <trkpt lat="44.91536" lon="3.50461">
        <ele>1081.14</ele>
        <time>2013-05-09T09:21:55Z</time>
      </trkpt>
      <trkpt lat="44.91533" lon="3.50461">
        <ele>1081.14</ele>
        <time>2013-05-09T09:21:58Z</time>
      </trkpt>
      <trkpt lat="44.9152" lon="3.50465">
        <ele>1081.14</ele>
        <time>2013-05-09T09:22:12Z</time>
      </trkpt>
      <trkpt lat="44.91505" lon="3.50466">
        <ele>1082.58</ele>
        <time>2013-05-09T09:22:27Z</time>
      </trkpt>
      <trkpt lat="44.91497" lon="3.50463">
        <ele>1083.06</ele>
        <time>2013-05-09T09:22:37Z</time>
      </trkpt>
      <trkpt lat="44.91485" lon="3.50455">
        <ele>1084.02</ele>
        <time>2013-05-09T09:22:53Z</time>
      </trkpt>
      <trkpt lat="44.91474" lon="3.50449">
        <ele>1085.47</ele>
        <time>2013-05-09T09:23:06Z</time>
      </trkpt>
      <trkpt lat="44.91464" lon="3.50442">
        <ele>1086.91</ele>
        <time>2013-05-09T09:23:18Z</time>
      </trkpt>
      <trkpt lat="44.9146" lon="3.5044">
        <ele>1087.39</ele>
        <time>2013-05-09T09:23:23Z</time>
      </trkpt>
      <trkpt lat="44.91457" lon="3.50439">
        <ele>1087.87</ele>
        <time>2013-05-09T09:23:27Z</time>
      </trkpt>
      <trkpt lat="44.91453" lon="3.50437">
        <ele>1087.39</ele>
        <time>2013-05-09T09:23:31Z</time>
      </trkpt>
      <trkpt lat="44.91448" lon="3.50436">
        <ele>1088.35</ele>
        <time>2013-05-09T09:23:35Z</time>
      </trkpt>
      <trkpt lat="44.91433" lon="3.50431">
        <ele>1089.31</ele>
        <time>2013-05-09T09:23:49Z</time>
      </trkpt>
      <trkpt lat="44.91423" lon="3.50427">
        <ele>1090.75</ele>
        <time>2013-05-09T09:23:58Z</time>
      </trkpt>
      <trkpt lat="44.91421" lon="3.50428">
        <ele>1090.27</ele>
        <time>2013-05-09T09:24:00Z</time>
      </trkpt>
      <trkpt lat="44.91412" lon="3.50424">
        <ele>1090.75</ele>
        <time>2013-05-09T09:24:10Z</time>
      </trkpt>
      <trkpt lat="44.9141" lon="3.50424">
        <ele>1091.23</ele>
        <time>2013-05-09T09:24:12Z</time>
      </trkpt>
      <trkpt lat="44.91399" lon="3.50421">
        <ele>1091.71</ele>
        <time>2013-05-09T09:24:27Z</time>
      </trkpt>
      <trkpt lat="44.9139" lon="3.50418">
        <ele>1092.2</ele>
        <time>2013-05-09T09:24:39Z</time>
      </trkpt>
      <trkpt lat="44.91378" lon="3.50411">
        <ele>1092.68</ele>
        <time>2013-05-09T09:24:53Z</time>
      </trkpt>
      <trkpt lat="44.91367" lon="3.50405">
        <ele>1093.64</ele>
        <time>2013-05-09T09:25:06Z</time>
      </trkpt>
      <trkpt lat="44.91363" lon="3.50403">
        <ele>1094.12</ele>
        <time>2013-05-09T09:25:10Z</time>
      </trkpt>
      <trkpt lat="44.9135" lon="3.50397">
        <ele>1095.08</ele>
        <time>2013-05-09T09:25:24Z</time>
      </trkpt>
      <trkpt lat="44.91338" lon="3.50392">
        <ele>1095.08</ele>
        <time>2013-05-09T09:25:36Z</time>
      </trkpt>
      <trkpt lat="44.91336" lon="3.50392">
        <ele>1095.08</ele>
        <time>2013-05-09T09:25:38Z</time>
      </trkpt>
      <trkpt lat="44.91327" lon="3.50391">
        <ele>1095.08</ele>
        <time>2013-05-09T09:25:46Z</time>
      </trkpt>
      <trkpt lat="44.9132" lon="3.50389">
        <ele>1095.56</ele>
        <time>2013-05-09T09:25:55Z</time>
      </trkpt>
      <trkpt lat="44.91316" lon="3.50389">
        <ele>1096.04</ele>
        <time>2013-05-09T09:25:59Z</time>
      </trkpt>
      <trkpt lat="44.91313" lon="3.50388">
        <ele>1096.04</ele>
        <time>2013-05-09T09:26:02Z</time>
      </trkpt>
      <trkpt lat="44.91298" lon="3.50389">
        <ele>1096.52</ele>
        <time>2013-05-09T09:26:17Z</time>
      </trkpt>
      <trkpt lat="44.91286" lon="3.50388">
        <ele>1097</ele>
        <time>2013-05-09T09:26:33Z</time>
      </trkpt>
      <trkpt lat="44.91277" lon="3.50387">
        <ele>1097.48</ele>
        <time>2013-05-09T09:26:42Z</time>
      </trkpt>
      <trkpt lat="44.91275" lon="3.50388">
        <ele>1097.48</ele>
        <time>2013-05-09T09:26:44Z</time>
      </trkpt>
      <trkpt lat="44.91272" lon="3.50388">
        <ele>1097.48</ele>
        <time>2013-05-09T09:26:47Z</time>
      </trkpt>
      <trkpt lat="44.91264" lon="3.50387">
        <ele>1097.96</ele>
        <time>2013-05-09T09:26:56Z</time>
      </trkpt>
      <trkpt lat="44.91252" lon="3.50386">
        <ele>1098.44</ele>
        <time>2013-05-09T09:27:10Z</time>
      </trkpt>
      <trkpt lat="44.9125" lon="3.50387">
        <ele>1098.44</ele>
        <time>2013-05-09T09:27:13Z</time>
      </trkpt>
      <trkpt lat="44.9124" lon="3.50391">
        <ele>1099.4</ele>
        <time>2013-05-09T09:27:24Z</time>
      </trkpt>
      <trkpt lat="44.91238" lon="3.50392">
        <ele>1098.92</ele>
        <time>2013-05-09T09:27:26Z</time>
      </trkpt>
      <trkpt lat="44.91231" lon="3.50397">
        <ele>1099.4</ele>
        <time>2013-05-09T09:27:38Z</time>
      </trkpt>
      <trkpt lat="44.91229" lon="3.50397">
        <ele>1099.4</ele>
        <time>2013-05-09T09:27:40Z</time>
      </trkpt>
      <trkpt lat="44.91221" lon="3.50401">
        <ele>1099.4</ele>
        <time>2013-05-09T09:27:52Z</time>
      </trkpt>
      <trkpt lat="44.91208" lon="3.50405">
        <ele>1099.4</ele>
        <time>2013-05-09T09:28:07Z</time>
      </trkpt>
      <trkpt lat="44.91199" lon="3.50408">
        <ele>1099.89</ele>
        <time>2013-05-09T09:28:20Z</time>
      </trkpt>
      <trkpt lat="44.91189" lon="3.50409">
        <ele>1100.37</ele>
        <time>2013-05-09T09:28:31Z</time>
      </trkpt>
      <trkpt lat="44.91174" lon="3.50413">
        <ele>1098.92</ele>
        <time>2013-05-09T09:28:45Z</time>
      </trkpt>
      <trkpt lat="44.9116" lon="3.50417">
        <ele>1097.48</ele>
        <time>2013-05-09T09:28:59Z</time>
      </trkpt>
      <trkpt lat="44.91155" lon="3.50419">
        <ele>1097.96</ele>
        <time>2013-05-09T09:29:09Z</time>
      </trkpt>
      <trkpt lat="44.91149" lon="3.5042">
        <ele>1097.96</ele>
        <time>2013-05-09T09:29:15Z</time>
      </trkpt>
      <trkpt lat="44.91144" lon="3.50421">
        <ele>1097.48</ele>
        <time>2013-05-09T09:29:19Z</time>
      </trkpt>
      <trkpt lat="44.91135" lon="3.50424">
        <ele>1097.48</ele>
        <time>2013-05-09T09:29:33Z</time>
      </trkpt>
      <trkpt lat="44.91132" lon="3.50427">
        <ele>1097.48</ele>
        <time>2013-05-09T09:29:53Z</time>
      </trkpt>
      <trkpt lat="44.91132" lon="3.50427">
        <ele>1097</ele>
        <time>2013-05-09T09:30:00Z</time>
      </trkpt>
      <trkpt lat="44.91131" lon="3.50427">
        <ele>1097.96</ele>
        <time>2013-05-09T09:30:03Z</time>
      </trkpt>
      <trkpt lat="44.91114" lon="3.50429">
        <ele>1097.48</ele>
        <time>2013-05-09T09:30:17Z</time>
      </trkpt>
      <trkpt lat="44.91112" lon="3.50432">
        <ele>1097</ele>
        <time>2013-05-09T09:30:20Z</time>
      </trkpt>
      <trkpt lat="44.91109" lon="3.50433">
        <ele>1096.52</ele>
        <time>2013-05-09T09:30:23Z</time>
      </trkpt>
      <trkpt lat="44.911" lon="3.50442">
        <ele>1096.52</ele>
        <time>2013-05-09T09:30:36Z</time>
      </trkpt>
      <trkpt lat="44.91088" lon="3.5045">
        <ele>1097</ele>
        <time>2013-05-09T09:30:50Z</time>
      </trkpt>
      <trkpt lat="44.91078" lon="3.5046">
        <ele>1097.48</ele>
        <time>2013-05-09T09:31:03Z</time>
      </trkpt>
      <trkpt lat="44.9107" lon="3.50469">
        <ele>1098.92</ele>
        <time>2013-05-09T09:31:17Z</time>
      </trkpt>
      <trkpt lat="44.91062" lon="3.50472">
        <ele>1099.4</ele>
        <time>2013-05-09T09:31:29Z</time>
      </trkpt>
      <trkpt lat="44.91055" lon="3.50484">
        <ele>1097.96</ele>
        <time>2013-05-09T09:31:42Z</time>
      </trkpt>
      <trkpt lat="44.91054" lon="3.50486">
        <ele>1097.96</ele>
        <time>2013-05-09T09:31:44Z</time>
      </trkpt>
      <trkpt lat="44.91048" lon="3.50495">
        <ele>1097.96</ele>
        <time>2013-05-09T09:31:55Z</time>
      </trkpt>
      <trkpt lat="44.91044" lon="3.505">
        <ele>1097.96</ele>
        <time>2013-05-09T09:31:59Z</time>
      </trkpt>
      <trkpt lat="44.91041" lon="3.50502">
        <ele>1097.48</ele>
        <time>2013-05-09T09:32:02Z</time>
      </trkpt>
      <trkpt lat="44.91031" lon="3.50512">
        <ele>1097.96</ele>
        <time>2013-05-09T09:32:14Z</time>
      </trkpt>
      <trkpt lat="44.91026" lon="3.50517">
        <ele>1097.96</ele>
        <time>2013-05-09T09:32:20Z</time>
      </trkpt>
      <trkpt lat="44.9102" lon="3.50521">
        <ele>1097.48</ele>
        <time>2013-05-09T09:32:27Z</time>
      </trkpt>
      <trkpt lat="44.91018" lon="3.50522">
        <ele>1097.48</ele>
        <time>2013-05-09T09:32:29Z</time>
      </trkpt>
      <trkpt lat="44.91016" lon="3.50522">
        <ele>1097.48</ele>
        <time>2013-05-09T09:32:31Z</time>
      </trkpt>
      <trkpt lat="44.91014" lon="3.50524">
        <ele>1097.96</ele>
        <time>2013-05-09T09:32:33Z</time>
      </trkpt>
      <trkpt lat="44.91002" lon="3.50536">
        <ele>1098.44</ele>
        <time>2013-05-09T09:32:47Z</time>
      </trkpt>
      <trkpt lat="44.90997" lon="3.50548">
        <ele>1098.44</ele>
        <time>2013-05-09T09:32:56Z</time>
      </trkpt>
      <trkpt lat="44.90992" lon="3.5056">
        <ele>1099.89</ele>
        <time>2013-05-09T09:33:05Z</time>
      </trkpt>
      <trkpt lat="44.90989" lon="3.50561">
        <ele>1100.37</ele>
        <time>2013-05-09T09:33:09Z</time>
      </trkpt>
      <trkpt lat="44.90987" lon="3.50562">
        <ele>1100.85</ele>
        <time>2013-05-09T09:33:11Z</time>
      </trkpt>
      <trkpt lat="44.90976" lon="3.50562">
        <ele>1101.81</ele>
        <time>2013-05-09T09:33:24Z</time>
      </trkpt>
      <trkpt lat="44.90974" lon="3.50563">
        <ele>1102.29</ele>
        <time>2013-05-09T09:33:26Z</time>
      </trkpt>
      <trkpt lat="44.90963" lon="3.50563">
        <ele>1103.25</ele>
        <time>2013-05-09T09:33:39Z</time>
      </trkpt>
      <trkpt lat="44.9096" lon="3.50558">
        <ele>1103.73</ele>
        <time>2013-05-09T09:33:45Z</time>
      </trkpt>
      <trkpt lat="44.90958" lon="3.50545">
        <ele>1104.21</ele>
        <time>2013-05-09T09:33:58Z</time>
      </trkpt>
      <trkpt lat="44.90958" lon="3.50545">
        <ele>1103.25</ele>
        <time>2013-05-09T09:34:19Z</time>
      </trkpt>
      <trkpt lat="44.90958" lon="3.50546">
        <ele>1104.21</ele>
        <time>2013-05-09T09:34:46Z</time>
      </trkpt>
      <trkpt lat="44.90958" lon="3.50549">
        <ele>1103.73</ele>
        <time>2013-05-09T09:34:59Z</time>
      </trkpt>
      <trkpt lat="44.9096" lon="3.50562">
        <ele>1103.25</ele>
        <time>2013-05-09T09:35:12Z</time>
      </trkpt>
      <trkpt lat="44.9096" lon="3.50569">
        <ele>1101.33</ele>
        <time>2013-05-09T09:35:22Z</time>
      </trkpt>
      <trkpt lat="44.90966" lon="3.50586">
        <ele>1101.81</ele>
        <time>2013-05-09T09:35:36Z</time>
      </trkpt>
      <trkpt lat="44.90972" lon="3.50597">
        <ele>1103.25</ele>
        <time>2013-05-09T09:35:49Z</time>
      </trkpt>
      <trkpt lat="44.90969" lon="3.50603">
        <ele>1102.29</ele>
        <time>2013-05-09T09:36:02Z</time>
      </trkpt>
      <trkpt lat="44.90964" lon="3.50605">
        <ele>1103.25</ele>
        <time>2013-05-09T09:36:15Z</time>
      </trkpt>
      <trkpt lat="44.90963" lon="3.50606">
        <ele>1103.73</ele>
        <time>2013-05-09T09:36:18Z</time>
      </trkpt>
      <trkpt lat="44.9096" lon="3.50612">
        <ele>1102.29</ele>
        <time>2013-05-09T09:36:35Z</time>
      </trkpt>
      <trkpt lat="44.9096" lon="3.50612">
        <ele>1101.81</ele>
        <time>2013-05-09T09:36:58Z</time>
      </trkpt>
      <trkpt lat="44.90957" lon="3.50612">
        <ele>1102.29</ele>
        <time>2013-05-09T09:37:19Z</time>
      </trkpt>
      <trkpt lat="44.90956" lon="3.50612">
        <ele>1101.81</ele>
        <time>2013-05-09T09:37:37Z</time>
      </trkpt>
      <trkpt lat="44.90956" lon="3.50612">
        <ele>1102.29</ele>
        <time>2013-05-09T09:37:49Z</time>
      </trkpt>
      <trkpt lat="44.90962" lon="3.50609">
        <ele>1103.25</ele>
        <time>2013-05-09T09:38:06Z</time>
      </trkpt>
      <trkpt lat="44.90964" lon="3.50607">
        <ele>1103.25</ele>
        <time>2013-05-09T09:38:23Z</time>
      </trkpt>
      <trkpt lat="44.90969" lon="3.50604">
        <ele>1102.77</ele>
        <time>2013-05-09T09:38:40Z</time>
      </trkpt>
      <trkpt lat="44.90972" lon="3.50591">
        <ele>1102.77</ele>
        <time>2013-05-09T09:38:54Z</time>
      </trkpt>
      <trkpt lat="44.9097" lon="3.50584">
        <ele>1102.77</ele>
        <time>2013-05-09T09:39:02Z</time>
      </trkpt>
      <trkpt lat="44.90963" lon="3.50576">
        <ele>1100.85</ele>
        <time>2013-05-09T09:39:15Z</time>
      </trkpt>
      <trkpt lat="44.90965" lon="3.50569">
        <ele>1101.81</ele>
        <time>2013-05-09T09:39:28Z</time>
      </trkpt>
      <trkpt lat="44.90974" lon="3.50563">
        <ele>1101.33</ele>
        <time>2013-05-09T09:39:42Z</time>
      </trkpt>
      <trkpt lat="44.90977" lon="3.50562">
        <ele>1101.81</ele>
        <time>2013-05-09T09:39:46Z</time>
      </trkpt>
      <trkpt lat="44.90984" lon="3.50561">
        <ele>1101.33</ele>
        <time>2013-05-09T09:39:54Z</time>
      </trkpt>
      <trkpt lat="44.90986" lon="3.50561">
        <ele>1100.85</ele>
        <time>2013-05-09T09:39:57Z</time>
      </trkpt>
      <trkpt lat="44.90989" lon="3.5056">
        <ele>1099.89</ele>
        <time>2013-05-09T09:40:01Z</time>
      </trkpt>
      <trkpt lat="44.91" lon="3.50557">
        <ele>1097.96</ele>
        <time>2013-05-09T09:40:12Z</time>
      </trkpt>
      <trkpt lat="44.91008" lon="3.50563">
        <ele>1097</ele>
        <time>2013-05-09T09:40:27Z</time>
      </trkpt>
      <trkpt lat="44.91008" lon="3.50563">
        <ele>1096.52</ele>
        <time>2013-05-09T09:40:56Z</time>
      </trkpt>
      <trkpt lat="44.91009" lon="3.50563">
        <ele>1096.52</ele>
        <time>2013-05-09T09:41:12Z</time>
      </trkpt>
      <trkpt lat="44.91011" lon="3.5056">
        <ele>1096.52</ele>
        <time>2013-05-09T09:41:17Z</time>
      </trkpt>
      <trkpt lat="44.91009" lon="3.50545">
        <ele>1097</ele>
        <time>2013-05-09T09:41:29Z</time>
      </trkpt>
      <trkpt lat="44.91008" lon="3.50542">
        <ele>1097.48</ele>
        <time>2013-05-09T09:41:31Z</time>
      </trkpt>
      <trkpt lat="44.91003" lon="3.50535">
        <ele>1098.44</ele>
        <time>2013-05-09T09:41:45Z</time>
      </trkpt>
      <trkpt lat="44.90998" lon="3.50528">
        <ele>1098.92</ele>
        <time>2013-05-09T09:41:53Z</time>
      </trkpt>
      <trkpt lat="44.90996" lon="3.50526">
        <ele>1098.92</ele>
        <time>2013-05-09T09:41:56Z</time>
      </trkpt>
      <trkpt lat="44.90994" lon="3.50523">
        <ele>1098.92</ele>
        <time>2013-05-09T09:41:59Z</time>
      </trkpt>
      <trkpt lat="44.90992" lon="3.50521">
        <ele>1098.92</ele>
        <time>2013-05-09T09:42:01Z</time>
      </trkpt>
      <trkpt lat="44.90987" lon="3.50516">
        <ele>1098.92</ele>
        <time>2013-05-09T09:42:07Z</time>
      </trkpt>
      <trkpt lat="44.9098" lon="3.50504">
        <ele>1099.89</ele>
        <time>2013-05-09T09:42:18Z</time>
      </trkpt>
      <trkpt lat="44.90977" lon="3.50499">
        <ele>1099.89</ele>
        <time>2013-05-09T09:42:23Z</time>
      </trkpt>
      <trkpt lat="44.90971" lon="3.5048">
        <ele>1099.89</ele>
        <time>2013-05-09T09:42:39Z</time>
      </trkpt>
      <trkpt lat="44.90971" lon="3.50463">
        <ele>1100.85</ele>
        <time>2013-05-09T09:42:54Z</time>
      </trkpt>
      <trkpt lat="44.90971" lon="3.50443">
        <ele>1101.81</ele>
        <time>2013-05-09T09:43:10Z</time>
      </trkpt>
      <trkpt lat="44.90971" lon="3.50422">
        <ele>1102.77</ele>
        <time>2013-05-09T09:43:26Z</time>
      </trkpt>
      <trkpt lat="44.90968" lon="3.50408">
        <ele>1103.25</ele>
        <time>2013-05-09T09:43:39Z</time>
      </trkpt>
      <trkpt lat="44.90965" lon="3.50397">
        <ele>1104.21</ele>
        <time>2013-05-09T09:43:50Z</time>
      </trkpt>
      <trkpt lat="44.90958" lon="3.50388">
        <ele>1105.17</ele>
        <time>2013-05-09T09:44:01Z</time>
      </trkpt>
      <trkpt lat="44.90948" lon="3.50381">
        <ele>1105.65</ele>
        <time>2013-05-09T09:44:14Z</time>
      </trkpt>
      <trkpt lat="44.90937" lon="3.50377">
        <ele>1107.1</ele>
        <time>2013-05-09T09:44:27Z</time>
      </trkpt>
      <trkpt lat="44.90925" lon="3.50372">
        <ele>1108.06</ele>
        <time>2013-05-09T09:44:41Z</time>
      </trkpt>
      <trkpt lat="44.9092" lon="3.50371">
        <ele>1108.06</ele>
        <time>2013-05-09T09:44:46Z</time>
      </trkpt>
      <trkpt lat="44.90918" lon="3.50371">
        <ele>1108.54</ele>
        <time>2013-05-09T09:44:48Z</time>
      </trkpt>
      <trkpt lat="44.90905" lon="3.50367">
        <ele>1109.5</ele>
        <time>2013-05-09T09:45:02Z</time>
      </trkpt>
      <trkpt lat="44.90899" lon="3.50365">
        <ele>1109.5</ele>
        <time>2013-05-09T09:45:09Z</time>
      </trkpt>
      <trkpt lat="44.90892" lon="3.50362">
        <ele>1109.98</ele>
        <time>2013-05-09T09:45:16Z</time>
      </trkpt>
      <trkpt lat="44.90882" lon="3.50353">
        <ele>1110.46</ele>
        <time>2013-05-09T09:45:31Z</time>
      </trkpt>
      <trkpt lat="44.90881" lon="3.50351">
        <ele>1110.46</ele>
        <time>2013-05-09T09:45:34Z</time>
      </trkpt>
      <trkpt lat="44.90879" lon="3.50348">
        <ele>1109.5</ele>
        <time>2013-05-09T09:45:37Z</time>
      </trkpt>
      <trkpt lat="44.90878" lon="3.50346">
        <ele>1109.98</ele>
        <time>2013-05-09T09:45:39Z</time>
      </trkpt>
      <trkpt lat="44.90874" lon="3.50336">
        <ele>1109.5</ele>
        <time>2013-05-09T09:45:47Z</time>
      </trkpt>
      <trkpt lat="44.9087" lon="3.5033">
        <ele>1109.98</ele>
        <time>2013-05-09T09:45:52Z</time>
      </trkpt>
      <trkpt lat="44.90862" lon="3.50311">
        <ele>1109.5</ele>
        <time>2013-05-09T09:46:07Z</time>
      </trkpt>
      <trkpt lat="44.90855" lon="3.50296">
        <ele>1109.02</ele>
        <time>2013-05-09T09:46:18Z</time>
      </trkpt>
      <trkpt lat="44.90849" lon="3.50282">
        <ele>1108.54</ele>
        <time>2013-05-09T09:46:29Z</time>
      </trkpt>
      <trkpt lat="44.90841" lon="3.50266">
        <ele>1108.54</ele>
        <time>2013-05-09T09:46:42Z</time>
      </trkpt>
      <trkpt lat="44.90832" lon="3.50251">
        <ele>1107.1</ele>
        <time>2013-05-09T09:46:55Z</time>
      </trkpt>
      <trkpt lat="44.90822" lon="3.50239">
        <ele>1106.61</ele>
        <time>2013-05-09T09:47:08Z</time>
      </trkpt>
      <trkpt lat="44.9082" lon="3.50237">
        <ele>1106.13</ele>
        <time>2013-05-09T09:47:10Z</time>
      </trkpt>
      <trkpt lat="44.90818" lon="3.50234">
        <ele>1105.65</ele>
        <time>2013-05-09T09:47:13Z</time>
      </trkpt>
      <trkpt lat="44.90816" lon="3.50232">
        <ele>1105.65</ele>
        <time>2013-05-09T09:47:16Z</time>
      </trkpt>
      <trkpt lat="44.90811" lon="3.50227">
        <ele>1105.17</ele>
        <time>2013-05-09T09:47:22Z</time>
      </trkpt>
      <trkpt lat="44.90809" lon="3.50226">
        <ele>1105.65</ele>
        <time>2013-05-09T09:47:24Z</time>
      </trkpt>
      <trkpt lat="44.90806" lon="3.50223">
        <ele>1104.69</ele>
        <time>2013-05-09T09:47:27Z</time>
      </trkpt>
      <trkpt lat="44.90803" lon="3.50219">
        <ele>1104.21</ele>
        <time>2013-05-09T09:47:31Z</time>
      </trkpt>
      <trkpt lat="44.90793" lon="3.50211">
        <ele>1104.21</ele>
        <time>2013-05-09T09:47:45Z</time>
      </trkpt>
      <trkpt lat="44.90792" lon="3.5021">
        <ele>1103.73</ele>
        <time>2013-05-09T09:47:47Z</time>
      </trkpt>
      <trkpt lat="44.90785" lon="3.50202">
        <ele>1103.25</ele>
        <time>2013-05-09T09:47:57Z</time>
      </trkpt>
      <trkpt lat="44.90778" lon="3.50198">
        <ele>1102.29</ele>
        <time>2013-05-09T09:48:10Z</time>
      </trkpt>
      <trkpt lat="44.90774" lon="3.50194">
        <ele>1101.81</ele>
        <time>2013-05-09T09:48:15Z</time>
      </trkpt>
      <trkpt lat="44.90768" lon="3.50191">
        <ele>1101.81</ele>
        <time>2013-05-09T09:48:22Z</time>
      </trkpt>
      <trkpt lat="44.90762" lon="3.50192">
        <ele>1101.33</ele>
        <time>2013-05-09T09:48:35Z</time>
      </trkpt>
      <trkpt lat="44.90762" lon="3.50192">
        <ele>1101.33</ele>
        <time>2013-05-09T09:48:45Z</time>
      </trkpt>
      <trkpt lat="44.90759" lon="3.50191">
        <ele>1101.33</ele>
        <time>2013-05-09T09:48:49Z</time>
      </trkpt>
      <trkpt lat="44.90754" lon="3.50189">
        <ele>1101.33</ele>
        <time>2013-05-09T09:48:54Z</time>
      </trkpt>
      <trkpt lat="44.90737" lon="3.50189">
        <ele>1100.85</ele>
        <time>2013-05-09T09:49:09Z</time>
      </trkpt>
      <trkpt lat="44.90735" lon="3.50188">
        <ele>1100.85</ele>
        <time>2013-05-09T09:49:11Z</time>
      </trkpt>
      <trkpt lat="44.90724" lon="3.50188">
        <ele>1100.37</ele>
        <time>2013-05-09T09:49:24Z</time>
      </trkpt>
      <trkpt lat="44.9072" lon="3.50192">
        <ele>1100.85</ele>
        <time>2013-05-09T09:49:36Z</time>
      </trkpt>
      <trkpt lat="44.90718" lon="3.50192">
        <ele>1100.85</ele>
        <time>2013-05-09T09:49:51Z</time>
      </trkpt>
      <trkpt lat="44.90717" lon="3.50193">
        <ele>1100.85</ele>
        <time>2013-05-09T09:50:06Z</time>
      </trkpt>
      <trkpt lat="44.90716" lon="3.50193">
        <ele>1100.85</ele>
        <time>2013-05-09T09:50:21Z</time>
      </trkpt>
      <trkpt lat="44.90702" lon="3.50189">
        <ele>1101.33</ele>
        <time>2013-05-09T09:50:36Z</time>
      </trkpt>
      <trkpt lat="44.90701" lon="3.50189">
        <ele>1100.37</ele>
        <time>2013-05-09T09:50:40Z</time>
      </trkpt>
      <trkpt lat="44.90699" lon="3.50187">
        <ele>1100.85</ele>
        <time>2013-05-09T09:50:42Z</time>
      </trkpt>
      <trkpt lat="44.90693" lon="3.50186">
        <ele>1101.33</ele>
        <time>2013-05-09T09:50:47Z</time>
      </trkpt>
      <trkpt lat="44.90674" lon="3.50184">
        <ele>1101.33</ele>
        <time>2013-05-09T09:51:02Z</time>
      </trkpt>
      <trkpt lat="44.90656" lon="3.50184">
        <ele>1101.81</ele>
        <time>2013-05-09T09:51:17Z</time>
      </trkpt>
      <trkpt lat="44.90641" lon="3.50184">
        <ele>1102.29</ele>
        <time>2013-05-09T09:51:30Z</time>
      </trkpt>
      <trkpt lat="44.90626" lon="3.50186">
        <ele>1102.29</ele>
        <time>2013-05-09T09:51:44Z</time>
      </trkpt>
      <trkpt lat="44.90613" lon="3.50186">
        <ele>1103.25</ele>
        <time>2013-05-09T09:51:56Z</time>
      </trkpt>
      <trkpt lat="44.9061" lon="3.50187">
        <ele>1102.29</ele>
        <time>2013-05-09T09:52:00Z</time>
      </trkpt>
      <trkpt lat="44.90608" lon="3.50188">
        <ele>1103.25</ele>
        <time>2013-05-09T09:52:04Z</time>
      </trkpt>
      <trkpt lat="44.90604" lon="3.50189">
        <ele>1103.25</ele>
        <time>2013-05-09T09:52:07Z</time>
      </trkpt>
      <trkpt lat="44.9059" lon="3.50193">
        <ele>1103.25</ele>
        <time>2013-05-09T09:52:20Z</time>
      </trkpt>
      <trkpt lat="44.90587" lon="3.50195">
        <ele>1103.73</ele>
        <time>2013-05-09T09:52:24Z</time>
      </trkpt>
      <trkpt lat="44.90571" lon="3.50197">
        <ele>1103.73</ele>
        <time>2013-05-09T09:52:39Z</time>
      </trkpt>
      <trkpt lat="44.90553" lon="3.50198">
        <ele>1104.21</ele>
        <time>2013-05-09T09:52:54Z</time>
      </trkpt>
      <trkpt lat="44.90536" lon="3.50198">
        <ele>1105.17</ele>
        <time>2013-05-09T09:53:09Z</time>
      </trkpt>
      <trkpt lat="44.90527" lon="3.50196">
        <ele>1105.65</ele>
        <time>2013-05-09T09:53:21Z</time>
      </trkpt>
      <trkpt lat="44.90526" lon="3.50196">
        <ele>1105.65</ele>
        <time>2013-05-09T09:53:22Z</time>
      </trkpt>
      <trkpt lat="44.90519" lon="3.50192">
        <ele>1106.13</ele>
        <time>2013-05-09T09:53:28Z</time>
      </trkpt>
      <trkpt lat="44.90517" lon="3.50192">
        <ele>1106.13</ele>
        <time>2013-05-09T09:53:30Z</time>
      </trkpt>
      <trkpt lat="44.90502" lon="3.50188">
        <ele>1106.13</ele>
        <time>2013-05-09T09:53:44Z</time>
      </trkpt>
      <trkpt lat="44.90493" lon="3.50185">
        <ele>1106.13</ele>
        <time>2013-05-09T09:53:52Z</time>
      </trkpt>
      <trkpt lat="44.90489" lon="3.50187">
        <ele>1106.61</ele>
        <time>2013-05-09T09:53:58Z</time>
      </trkpt>
      <trkpt lat="44.90486" lon="3.50185">
        <ele>1107.1</ele>
        <time>2013-05-09T09:54:01Z</time>
      </trkpt>
      <trkpt lat="44.90468" lon="3.50183">
        <ele>1107.1</ele>
        <time>2013-05-09T09:54:17Z</time>
      </trkpt>
      <trkpt lat="44.90449" lon="3.50183">
        <ele>1107.58</ele>
        <time>2013-05-09T09:54:33Z</time>
      </trkpt>
      <trkpt lat="44.90433" lon="3.50186">
        <ele>1107.58</ele>
        <time>2013-05-09T09:54:47Z</time>
      </trkpt>
      <trkpt lat="44.90418" lon="3.50184">
        <ele>1108.06</ele>
        <time>2013-05-09T09:55:01Z</time>
      </trkpt>
      <trkpt lat="44.90403" lon="3.5018">
        <ele>1109.02</ele>
        <time>2013-05-09T09:55:15Z</time>
      </trkpt>
      <trkpt lat="44.9039" lon="3.50172">
        <ele>1109.5</ele>
        <time>2013-05-09T09:55:28Z</time>
      </trkpt>
      <trkpt lat="44.90379" lon="3.50165">
        <ele>1109.98</ele>
        <time>2013-05-09T09:55:44Z</time>
      </trkpt>
      <trkpt lat="44.90381" lon="3.50167">
        <ele>1109.5</ele>
        <time>2013-05-09T09:55:51Z</time>
      </trkpt>
      <trkpt lat="44.90381" lon="3.50166">
        <ele>1109.5</ele>
        <time>2013-05-09T09:56:05Z</time>
      </trkpt>
      <trkpt lat="44.90378" lon="3.50167">
        <ele>1109.5</ele>
        <time>2013-05-09T09:56:15Z</time>
      </trkpt>
      <trkpt lat="44.90377" lon="3.50165">
        <ele>1109.5</ele>
        <time>2013-05-09T09:56:18Z</time>
      </trkpt>
      <trkpt lat="44.90365" lon="3.50149">
        <ele>1110.46</ele>
        <time>2013-05-09T09:56:34Z</time>
      </trkpt>
      <trkpt lat="44.90353" lon="3.50137">
        <ele>1112.38</ele>
        <time>2013-05-09T09:56:47Z</time>
      </trkpt>
      <trkpt lat="44.90346" lon="3.50134">
        <ele>1112.86</ele>
        <time>2013-05-09T09:56:53Z</time>
      </trkpt>
      <trkpt lat="44.90343" lon="3.50132">
        <ele>1112.86</ele>
        <time>2013-05-09T09:56:56Z</time>
      </trkpt>
      <trkpt lat="44.90329" lon="3.50121">
        <ele>1114.79</ele>
        <time>2013-05-09T09:57:11Z</time>
      </trkpt>
      <trkpt lat="44.90318" lon="3.50111">
        <ele>1115.27</ele>
        <time>2013-05-09T09:57:25Z</time>
      </trkpt>
      <trkpt lat="44.90309" lon="3.501">
        <ele>1116.71</ele>
        <time>2013-05-09T09:57:38Z</time>
      </trkpt>
      <trkpt lat="44.90298" lon="3.50093">
        <ele>1117.19</ele>
        <time>2013-05-09T09:57:48Z</time>
      </trkpt>
      <trkpt lat="44.9028" lon="3.50086">
        <ele>1117.67</ele>
        <time>2013-05-09T09:58:04Z</time>
      </trkpt>
      <trkpt lat="44.90267" lon="3.50079">
        <ele>1119.11</ele>
        <time>2013-05-09T09:58:18Z</time>
      </trkpt>
      <trkpt lat="44.90267" lon="3.50079">
        <ele>1119.11</ele>
        <time>2013-05-09T09:58:21Z</time>
      </trkpt>
      <trkpt lat="44.90263" lon="3.50077">
        <ele>1118.15</ele>
        <time>2013-05-09T09:58:25Z</time>
      </trkpt>
      <trkpt lat="44.90248" lon="3.50067">
        <ele>1119.11</ele>
        <time>2013-05-09T09:58:41Z</time>
      </trkpt>
      <trkpt lat="44.90239" lon="3.50062">
        <ele>1119.11</ele>
        <time>2013-05-09T09:58:50Z</time>
      </trkpt>
      <trkpt lat="44.90224" lon="3.50053">
        <ele>1119.59</ele>
        <time>2013-05-09T09:59:04Z</time>
      </trkpt>
      <trkpt lat="44.9022" lon="3.5005">
        <ele>1120.07</ele>
        <time>2013-05-09T09:59:09Z</time>
      </trkpt>
      <trkpt lat="44.90203" lon="3.50041">
        <ele>1120.07</ele>
        <time>2013-05-09T09:59:24Z</time>
      </trkpt>
      <trkpt lat="44.90194" lon="3.50038">
        <ele>1120.07</ele>
        <time>2013-05-09T09:59:33Z</time>
      </trkpt>
      <trkpt lat="44.90175" lon="3.50033">
        <ele>1120.07</ele>
        <time>2013-05-09T09:59:48Z</time>
      </trkpt>
      <trkpt lat="44.9016" lon="3.50029">
        <ele>1119.59</ele>
        <time>2013-05-09T10:00:02Z</time>
      </trkpt>
      <trkpt lat="44.90144" lon="3.50027">
        <ele>1120.07</ele>
        <time>2013-05-09T10:00:15Z</time>
      </trkpt>
      <trkpt lat="44.90128" lon="3.50027">
        <ele>1120.07</ele>
        <time>2013-05-09T10:00:29Z</time>
      </trkpt>
      <trkpt lat="44.90115" lon="3.50033">
        <ele>1119.59</ele>
        <time>2013-05-09T10:00:41Z</time>
      </trkpt>
      <trkpt lat="44.90112" lon="3.50033">
        <ele>1119.59</ele>
        <time>2013-05-09T10:00:44Z</time>
      </trkpt>
      <trkpt lat="44.90093" lon="3.50036">
        <ele>1120.07</ele>
        <time>2013-05-09T10:01:02Z</time>
      </trkpt>
      <trkpt lat="44.90079" lon="3.50038">
        <ele>1121.03</ele>
        <time>2013-05-09T10:01:15Z</time>
      </trkpt>
      <trkpt lat="44.9007" lon="3.50039">
        <ele>1121.52</ele>
        <time>2013-05-09T10:01:24Z</time>
      </trkpt>
      <trkpt lat="44.90067" lon="3.50039">
        <ele>1122</ele>
        <time>2013-05-09T10:01:27Z</time>
      </trkpt>
      <trkpt lat="44.90054" lon="3.50041">
        <ele>1122.96</ele>
        <time>2013-05-09T10:01:39Z</time>
      </trkpt>
      <trkpt lat="44.90043" lon="3.50043">
        <ele>1123.44</ele>
        <time>2013-05-09T10:01:50Z</time>
      </trkpt>
      <trkpt lat="44.9004" lon="3.50043">
        <ele>1124.4</ele>
        <time>2013-05-09T10:01:55Z</time>
      </trkpt>
      <trkpt lat="44.90037" lon="3.50044">
        <ele>1124.4</ele>
        <time>2013-05-09T10:01:57Z</time>
      </trkpt>
      <trkpt lat="44.90027" lon="3.50047">
        <ele>1124.88</ele>
        <time>2013-05-09T10:02:12Z</time>
      </trkpt>
      <trkpt lat="44.90024" lon="3.50047">
        <ele>1125.36</ele>
        <time>2013-05-09T10:02:14Z</time>
      </trkpt>
      <trkpt lat="44.90021" lon="3.50048">
        <ele>1124.88</ele>
        <time>2013-05-09T10:02:18Z</time>
      </trkpt>
      <trkpt lat="44.90012" lon="3.50048">
        <ele>1126.32</ele>
        <time>2013-05-09T10:02:29Z</time>
      </trkpt>
      <trkpt lat="44.90002" lon="3.5005">
        <ele>1126.8</ele>
        <time>2013-05-09T10:02:40Z</time>
      </trkpt>
      <trkpt lat="44.89997" lon="3.50051">
        <ele>1126.8</ele>
        <time>2013-05-09T10:02:45Z</time>
      </trkpt>
      <trkpt lat="44.89995" lon="3.50051">
        <ele>1127.28</ele>
        <time>2013-05-09T10:02:47Z</time>
      </trkpt>
      <trkpt lat="44.89985" lon="3.50051">
        <ele>1127.76</ele>
        <time>2013-05-09T10:02:57Z</time>
      </trkpt>
      <trkpt lat="44.89982" lon="3.50051">
        <ele>1128.24</ele>
        <time>2013-05-09T10:03:00Z</time>
      </trkpt>
      <trkpt lat="44.8998" lon="3.50052">
        <ele>1128.24</ele>
        <time>2013-05-09T10:03:02Z</time>
      </trkpt>
      <trkpt lat="44.89975" lon="3.50054">
        <ele>1128.24</ele>
        <time>2013-05-09T10:03:07Z</time>
      </trkpt>
      <trkpt lat="44.89967" lon="3.50054">
        <ele>1129.21</ele>
        <time>2013-05-09T10:03:14Z</time>
      </trkpt>
      <trkpt lat="44.89964" lon="3.50055">
        <ele>1128.73</ele>
        <time>2013-05-09T10:03:17Z</time>
      </trkpt>
      <trkpt lat="44.89955" lon="3.50055">
        <ele>1129.69</ele>
        <time>2013-05-09T10:03:26Z</time>
      </trkpt>
      <trkpt lat="44.89939" lon="3.50061">
        <ele>1130.65</ele>
        <time>2013-05-09T10:03:42Z</time>
      </trkpt>
      <trkpt lat="44.89921" lon="3.50065">
        <ele>1131.13</ele>
        <time>2013-05-09T10:03:56Z</time>
      </trkpt>
      <trkpt lat="44.89913" lon="3.50069">
        <ele>1130.65</ele>
        <time>2013-05-09T10:04:03Z</time>
      </trkpt>
      <trkpt lat="44.89896" lon="3.50078">
        <ele>1130.17</ele>
        <time>2013-05-09T10:04:18Z</time>
      </trkpt>
      <trkpt lat="44.89882" lon="3.50084">
        <ele>1130.17</ele>
        <time>2013-05-09T10:04:32Z</time>
      </trkpt>
      <trkpt lat="44.89864" lon="3.50085">
        <ele>1129.69</ele>
        <time>2013-05-09T10:04:47Z</time>
      </trkpt>
      <trkpt lat="44.89846" lon="3.50082">
        <ele>1130.17</ele>
        <time>2013-05-09T10:05:02Z</time>
      </trkpt>
      <trkpt lat="44.89839" lon="3.50079">
        <ele>1130.17</ele>
        <time>2013-05-09T10:05:08Z</time>
      </trkpt>
      <trkpt lat="44.89835" lon="3.50078">
        <ele>1130.65</ele>
        <time>2013-05-09T10:05:13Z</time>
      </trkpt>
      <trkpt lat="44.89822" lon="3.50071">
        <ele>1130.17</ele>
        <time>2013-05-09T10:05:26Z</time>
      </trkpt>
      <trkpt lat="44.89806" lon="3.50064">
        <ele>1130.65</ele>
        <time>2013-05-09T10:05:42Z</time>
      </trkpt>
      <trkpt lat="44.89797" lon="3.50061">
        <ele>1131.13</ele>
        <time>2013-05-09T10:05:50Z</time>
      </trkpt>
      <trkpt lat="44.8978" lon="3.50053">
        <ele>1132.57</ele>
        <time>2013-05-09T10:06:07Z</time>
      </trkpt>
      <trkpt lat="44.89774" lon="3.50052">
        <ele>1132.57</ele>
        <time>2013-05-09T10:06:12Z</time>
      </trkpt>
      <trkpt lat="44.8976" lon="3.50045">
        <ele>1133.53</ele>
        <time>2013-05-09T10:06:28Z</time>
      </trkpt>
      <trkpt lat="44.89744" lon="3.5004">
        <ele>1134.49</ele>
        <time>2013-05-09T10:06:44Z</time>
      </trkpt>
      <trkpt lat="44.89741" lon="3.50039">
        <ele>1134.97</ele>
        <time>2013-05-09T10:06:48Z</time>
      </trkpt>
      <trkpt lat="44.89738" lon="3.50038">
        <ele>1134.97</ele>
        <time>2013-05-09T10:06:51Z</time>
      </trkpt>
      <trkpt lat="44.89736" lon="3.50037">
        <ele>1135.45</ele>
        <time>2013-05-09T10:06:53Z</time>
      </trkpt>
      <trkpt lat="44.8972" lon="3.50031">
        <ele>1136.42</ele>
        <time>2013-05-09T10:07:09Z</time>
      </trkpt>
      <trkpt lat="44.89715" lon="3.5003">
        <ele>1137.38</ele>
        <time>2013-05-09T10:07:14Z</time>
      </trkpt>
      <trkpt lat="44.8971" lon="3.50029">
        <ele>1137.38</ele>
        <time>2013-05-09T10:07:19Z</time>
      </trkpt>
      <trkpt lat="44.89695" lon="3.50024">
        <ele>1139.3</ele>
        <time>2013-05-09T10:07:35Z</time>
      </trkpt>
      <trkpt lat="44.89685" lon="3.50021">
        <ele>1139.78</ele>
        <time>2013-05-09T10:07:47Z</time>
      </trkpt>
      <trkpt lat="44.89678" lon="3.5002">
        <ele>1140.26</ele>
        <time>2013-05-09T10:07:55Z</time>
      </trkpt>
      <trkpt lat="44.89663" lon="3.50016">
        <ele>1142.66</ele>
        <time>2013-05-09T10:08:10Z</time>
      </trkpt>
      <trkpt lat="44.89649" lon="3.5001">
        <ele>1144.11</ele>
        <time>2013-05-09T10:08:24Z</time>
      </trkpt>
      <trkpt lat="44.89646" lon="3.50009">
        <ele>1144.11</ele>
        <time>2013-05-09T10:08:27Z</time>
      </trkpt>
      <trkpt lat="44.89635" lon="3.50005">
        <ele>1145.07</ele>
        <time>2013-05-09T10:08:38Z</time>
      </trkpt>
      <trkpt lat="44.89625" lon="3.50002">
        <ele>1146.51</ele>
        <time>2013-05-09T10:08:47Z</time>
      </trkpt>
      <trkpt lat="44.89619" lon="3.50001">
        <ele>1147.47</ele>
        <time>2013-05-09T10:08:55Z</time>
      </trkpt>
      <trkpt lat="44.89612" lon="3.5">
        <ele>1148.43</ele>
        <time>2013-05-09T10:09:02Z</time>
      </trkpt>
      <trkpt lat="44.89611" lon="3.5">
        <ele>1147.95</ele>
        <time>2013-05-09T10:09:03Z</time>
      </trkpt>
      <trkpt lat="44.89608" lon="3.5">
        <ele>1148.43</ele>
        <time>2013-05-09T10:09:06Z</time>
      </trkpt>
      <trkpt lat="44.89595" lon="3.5">
        <ele>1149.39</ele>
        <time>2013-05-09T10:09:18Z</time>
      </trkpt>
      <trkpt lat="44.89585" lon="3.50002">
        <ele>1146.51</ele>
        <time>2013-05-09T10:09:29Z</time>
      </trkpt>
      <trkpt lat="44.89584" lon="3.50002">
        <ele>1158.53</ele>
        <time>2013-05-09T10:09:30Z</time>
      </trkpt>
      <trkpt lat="44.89583" lon="3.50002">
        <ele>1150.84</ele>
        <time>2013-05-09T10:09:31Z</time>
      </trkpt>
      <trkpt lat="44.89581" lon="3.50002">
        <ele>1146.51</ele>
        <time>2013-05-09T10:09:32Z</time>
      </trkpt>
      <trkpt lat="44.89581" lon="3.50002">
        <ele>1151.8</ele>
        <time>2013-05-09T10:09:33Z</time>
      </trkpt>
      <trkpt lat="44.89563" lon="3.50006">
        <ele>1152.28</ele>
        <time>2013-05-09T10:09:51Z</time>
      </trkpt>
      <trkpt lat="44.89548" lon="3.50006">
        <ele>1157.56</ele>
        <time>2013-05-09T10:10:05Z</time>
      </trkpt>
      <trkpt lat="44.89546" lon="3.50006">
        <ele>1153.72</ele>
        <time>2013-05-09T10:10:07Z</time>
      </trkpt>
      <trkpt lat="44.89545" lon="3.50006">
        <ele>1153.72</ele>
        <time>2013-05-09T10:10:08Z</time>
      </trkpt>
      <trkpt lat="44.89539" lon="3.50007">
        <ele>1154.68</ele>
        <time>2013-05-09T10:10:14Z</time>
      </trkpt>
      <trkpt lat="44.89533" lon="3.50007">
        <ele>1149.39</ele>
        <time>2013-05-09T10:10:20Z</time>
      </trkpt>
      <trkpt lat="44.89532" lon="3.50008">
        <ele>1155.64</ele>
        <time>2013-05-09T10:10:21Z</time>
      </trkpt>
      <trkpt lat="44.89528" lon="3.5001">
        <ele>1145.07</ele>
        <time>2013-05-09T10:10:26Z</time>
      </trkpt>
      <trkpt lat="44.89527" lon="3.50011">
        <ele>1156.6</ele>
        <time>2013-05-09T10:10:27Z</time>
      </trkpt>
      <trkpt lat="44.89519" lon="3.50015">
        <ele>1156.12</ele>
        <time>2013-05-09T10:10:36Z</time>
      </trkpt>
      <trkpt lat="44.89514" lon="3.50014">
        <ele>1156.12</ele>
        <time>2013-05-09T10:10:41Z</time>
      </trkpt>
      <trkpt lat="44.89507" lon="3.50016">
        <ele>1156.6</ele>
        <time>2013-05-09T10:10:48Z</time>
      </trkpt>
      <trkpt lat="44.89504" lon="3.50017">
        <ele>1157.08</ele>
        <time>2013-05-09T10:10:51Z</time>
      </trkpt>
      <trkpt lat="44.8949" lon="3.50015">
        <ele>1157.08</ele>
        <time>2013-05-09T10:11:07Z</time>
      </trkpt>
      <trkpt lat="44.89488" lon="3.50019">
        <ele>1157.08</ele>
        <time>2013-05-09T10:11:19Z</time>
      </trkpt>
      <trkpt lat="44.89485" lon="3.50019">
        <ele>1157.08</ele>
        <time>2013-05-09T10:11:21Z</time>
      </trkpt>
      <trkpt lat="44.89481" lon="3.50017">
        <ele>1157.08</ele>
        <time>2013-05-09T10:11:25Z</time>
      </trkpt>
      <trkpt lat="44.89476" lon="3.5002">
        <ele>1156.6</ele>
        <time>2013-05-09T10:11:29Z</time>
      </trkpt>
      <trkpt lat="44.89472" lon="3.50021">
        <ele>1156.6</ele>
        <time>2013-05-09T10:11:33Z</time>
      </trkpt>
      <trkpt lat="44.89455" lon="3.50017">
        <ele>1156.6</ele>
        <time>2013-05-09T10:11:49Z</time>
      </trkpt>
      <trkpt lat="44.89442" lon="3.50014">
        <ele>1156.6</ele>
        <time>2013-05-09T10:12:01Z</time>
      </trkpt>
      <trkpt lat="44.89424" lon="3.50005">
        <ele>1156.12</ele>
        <time>2013-05-09T10:12:18Z</time>
      </trkpt>
      <trkpt lat="44.89416" lon="3.50001">
        <ele>1152.28</ele>
        <time>2013-05-09T10:12:29Z</time>
      </trkpt>
      <trkpt lat="44.89416" lon="3.50001">
        <ele>1156.12</ele>
        <time>2013-05-09T10:12:30Z</time>
      </trkpt>
      <trkpt lat="44.89405" lon="3.49995">
        <ele>1156.6</ele>
        <time>2013-05-09T10:12:45Z</time>
      </trkpt>
      <trkpt lat="44.89397" lon="3.4999">
        <ele>1151.8</ele>
        <time>2013-05-09T10:12:52Z</time>
      </trkpt>
      <trkpt lat="44.89379" lon="3.49982">
        <ele>1152.76</ele>
        <time>2013-05-09T10:13:07Z</time>
      </trkpt>
      <trkpt lat="44.89371" lon="3.49979">
        <ele>1151.8</ele>
        <time>2013-05-09T10:13:18Z</time>
      </trkpt>
      <trkpt lat="44.89361" lon="3.49973">
        <ele>1150.84</ele>
        <time>2013-05-09T10:13:29Z</time>
      </trkpt>
      <trkpt lat="44.89345" lon="3.49964">
        <ele>1149.87</ele>
        <time>2013-05-09T10:13:40Z</time>
      </trkpt>
      <trkpt lat="44.8934" lon="3.49962">
        <ele>1149.87</ele>
        <time>2013-05-09T10:13:52Z</time>
      </trkpt>
      <trkpt lat="44.89329" lon="3.49954">
        <ele>1148.91</ele>
        <time>2013-05-09T10:14:00Z</time>
      </trkpt>
      <trkpt lat="44.89311" lon="3.49936">
        <ele>1148.91</ele>
        <time>2013-05-09T10:14:17Z</time>
      </trkpt>
      <trkpt lat="44.89298" lon="3.4992">
        <ele>1147.95</ele>
        <time>2013-05-09T10:14:31Z</time>
      </trkpt>
      <trkpt lat="44.89287" lon="3.49899">
        <ele>1147.47</ele>
        <time>2013-05-09T10:14:47Z</time>
      </trkpt>
      <trkpt lat="44.89276" lon="3.49881">
        <ele>1146.99</ele>
        <time>2013-05-09T10:15:02Z</time>
      </trkpt>
      <trkpt lat="44.89271" lon="3.49872">
        <ele>1146.99</ele>
        <time>2013-05-09T10:15:10Z</time>
      </trkpt>
      <trkpt lat="44.89262" lon="3.49862">
        <ele>1147.47</ele>
        <time>2013-05-09T10:15:20Z</time>
      </trkpt>
      <trkpt lat="44.89252" lon="3.49848">
        <ele>1147.47</ele>
        <time>2013-05-09T10:15:33Z</time>
      </trkpt>
      <trkpt lat="44.89237" lon="3.49827">
        <ele>1147.95</ele>
        <time>2013-05-09T10:15:50Z</time>
      </trkpt>
      <trkpt lat="44.89229" lon="3.4981">
        <ele>1147.95</ele>
        <time>2013-05-09T10:16:03Z</time>
      </trkpt>
      <trkpt lat="44.8922" lon="3.49792">
        <ele>1147.95</ele>
        <time>2013-05-09T10:16:17Z</time>
      </trkpt>
      <trkpt lat="44.8921" lon="3.4977">
        <ele>1147.95</ele>
        <time>2013-05-09T10:16:33Z</time>
      </trkpt>
      <trkpt lat="44.89201" lon="3.49755">
        <ele>1147.95</ele>
        <time>2013-05-09T10:16:45Z</time>
      </trkpt>
      <trkpt lat="44.89194" lon="3.49745">
        <ele>1147.47</ele>
        <time>2013-05-09T10:16:53Z</time>
      </trkpt>
      <trkpt lat="44.8919" lon="3.4974">
        <ele>1147.95</ele>
        <time>2013-05-09T10:16:58Z</time>
      </trkpt>
      <trkpt lat="44.89178" lon="3.49721">
        <ele>1147.47</ele>
        <time>2013-05-09T10:17:13Z</time>
      </trkpt>
      <trkpt lat="44.89165" lon="3.49698">
        <ele>1146.99</ele>
        <time>2013-05-09T10:17:30Z</time>
      </trkpt>
      <trkpt lat="44.89155" lon="3.49679">
        <ele>1146.51</ele>
        <time>2013-05-09T10:17:44Z</time>
      </trkpt>
      <trkpt lat="44.89155" lon="3.49678">
        <ele>1146.51</ele>
        <time>2013-05-09T10:17:45Z</time>
      </trkpt>
      <trkpt lat="44.89145" lon="3.49658">
        <ele>1146.03</ele>
        <time>2013-05-09T10:17:59Z</time>
      </trkpt>
      <trkpt lat="44.89134" lon="3.49641">
        <ele>1145.55</ele>
        <time>2013-05-09T10:18:13Z</time>
      </trkpt>
      <trkpt lat="44.89131" lon="3.49638">
        <ele>1145.55</ele>
        <time>2013-05-09T10:18:17Z</time>
      </trkpt>
      <trkpt lat="44.89125" lon="3.49635">
        <ele>1145.07</ele>
        <time>2013-05-09T10:18:23Z</time>
      </trkpt>
      <trkpt lat="44.89118" lon="3.49632">
        <ele>1144.59</ele>
        <time>2013-05-09T10:18:30Z</time>
      </trkpt>
      <trkpt lat="44.89107" lon="3.49631">
        <ele>1144.59</ele>
        <time>2013-05-09T10:18:39Z</time>
      </trkpt>
      <trkpt lat="44.89095" lon="3.4963">
        <ele>1144.11</ele>
        <time>2013-05-09T10:18:50Z</time>
      </trkpt>
      <trkpt lat="44.89081" lon="3.49626">
        <ele>1144.11</ele>
        <time>2013-05-09T10:19:03Z</time>
      </trkpt>
      <trkpt lat="44.89076" lon="3.49623">
        <ele>1143.14</ele>
        <time>2013-05-09T10:19:08Z</time>
      </trkpt>
      <trkpt lat="44.89064" lon="3.49616">
        <ele>1143.63</ele>
        <time>2013-05-09T10:19:17Z</time>
      </trkpt>
      <trkpt lat="44.89059" lon="3.49616">
        <ele>1144.11</ele>
        <time>2013-05-09T10:19:22Z</time>
      </trkpt>
      <trkpt lat="44.89044" lon="3.49606">
        <ele>1142.66</ele>
        <time>2013-05-09T10:19:38Z</time>
      </trkpt>
      <trkpt lat="44.89044" lon="3.49606">
        <ele>1142.66</ele>
        <time>2013-05-09T10:19:41Z</time>
      </trkpt>
      <trkpt lat="44.89043" lon="3.49603">
        <ele>1142.66</ele>
        <time>2013-05-09T10:19:43Z</time>
      </trkpt>
      <trkpt lat="44.89038" lon="3.49596">
        <ele>1142.18</ele>
        <time>2013-05-09T10:19:50Z</time>
      </trkpt>
      <trkpt lat="44.89035" lon="3.49591">
        <ele>1140.74</ele>
        <time>2013-05-09T10:19:54Z</time>
      </trkpt>
      <trkpt lat="44.8903" lon="3.49589">
        <ele>1140.74</ele>
        <time>2013-05-09T10:19:58Z</time>
      </trkpt>
      <trkpt lat="44.89029" lon="3.49587">
        <ele>1140.26</ele>
        <time>2013-05-09T10:20:00Z</time>
      </trkpt>
      <trkpt lat="44.89022" lon="3.49584">
        <ele>1139.78</ele>
        <time>2013-05-09T10:20:06Z</time>
      </trkpt>
      <trkpt lat="44.89018" lon="3.49585">
        <ele>1139.3</ele>
        <time>2013-05-09T10:20:22Z</time>
      </trkpt>
      <trkpt lat="44.89015" lon="3.49594">
        <ele>1138.82</ele>
        <time>2013-05-09T10:20:35Z</time>
      </trkpt>
      <trkpt lat="44.89014" lon="3.49603">
        <ele>1138.82</ele>
        <time>2013-05-09T10:20:47Z</time>
      </trkpt>
      <trkpt lat="44.89016" lon="3.49605">
        <ele>1138.82</ele>
        <time>2013-05-09T10:20:57Z</time>
      </trkpt>
      <trkpt lat="44.89016" lon="3.49603">
        <ele>1138.34</ele>
        <time>2013-05-09T10:20:59Z</time>
      </trkpt>
      <trkpt lat="44.89017" lon="3.49598">
        <ele>1138.82</ele>
        <time>2013-05-09T10:21:10Z</time>
      </trkpt>
      <trkpt lat="44.89015" lon="3.49595">
        <ele>1139.3</ele>
        <time>2013-05-09T10:21:25Z</time>
      </trkpt>
      <trkpt lat="44.89015" lon="3.49595">
        <ele>1139.3</ele>
        <time>2013-05-09T10:21:45Z</time>
      </trkpt>
      <trkpt lat="44.89016" lon="3.49597">
        <ele>1138.82</ele>
        <time>2013-05-09T10:21:58Z</time>
      </trkpt>
      <trkpt lat="44.89017" lon="3.49597">
        <ele>1138.82</ele>
        <time>2013-05-09T10:22:10Z</time>
      </trkpt>
      <trkpt lat="44.89017" lon="3.49602">
        <ele>1138.82</ele>
        <time>2013-05-09T10:22:15Z</time>
      </trkpt>
      <trkpt lat="44.89022" lon="3.4962">
        <ele>1138.34</ele>
        <time>2013-05-09T10:22:30Z</time>
      </trkpt>
      <trkpt lat="44.89023" lon="3.49622">
        <ele>1138.34</ele>
        <time>2013-05-09T10:22:41Z</time>
      </trkpt>
      <trkpt lat="44.89024" lon="3.49621">
        <ele>1138.82</ele>
        <time>2013-05-09T10:22:59Z</time>
      </trkpt>
      <trkpt lat="44.89024" lon="3.49619">
        <ele>1138.34</ele>
        <time>2013-05-09T10:23:15Z</time>
      </trkpt>
      <trkpt lat="44.89024" lon="3.49621">
        <ele>1138.34</ele>
        <time>2013-05-09T10:23:27Z</time>
      </trkpt>
      <trkpt lat="44.89021" lon="3.49621">
        <ele>1139.3</ele>
        <time>2013-05-09T10:23:39Z</time>
      </trkpt>
      <trkpt lat="44.89022" lon="3.49619">
        <ele>1138.82</ele>
        <time>2013-05-09T10:23:51Z</time>
      </trkpt>
      <trkpt lat="44.89021" lon="3.49619">
        <ele>1139.3</ele>
        <time>2013-05-09T10:24:05Z</time>
      </trkpt>
      <trkpt lat="44.8902" lon="3.49619">
        <ele>1138.34</ele>
        <time>2013-05-09T10:24:25Z</time>
      </trkpt>
      <trkpt lat="44.8902" lon="3.4962">
        <ele>1138.82</ele>
        <time>2013-05-09T10:24:56Z</time>
      </trkpt>
      <trkpt lat="44.8902" lon="3.4962">
        <ele>1138.82</ele>
        <time>2013-05-09T10:25:29Z</time>
      </trkpt>
      <trkpt lat="44.8902" lon="3.4962">
        <ele>1138.34</ele>
        <time>2013-05-09T10:26:06Z</time>
      </trkpt>
      <trkpt lat="44.8902" lon="3.4962">
        <ele>1139.3</ele>
        <time>2013-05-09T10:26:43Z</time>
      </trkpt>
      <trkpt lat="44.8902" lon="3.4962">
        <ele>1139.78</ele>
        <time>2013-05-09T10:27:20Z</time>
      </trkpt>
      <trkpt lat="44.8902" lon="3.49621">
        <ele>1139.78</ele>
        <time>2013-05-09T10:27:54Z</time>
      </trkpt>
      <trkpt lat="44.8902" lon="3.49621">
        <ele>1140.26</ele>
        <time>2013-05-09T10:28:26Z</time>
      </trkpt>
      <trkpt lat="44.8902" lon="3.49621">
        <ele>1140.26</ele>
        <time>2013-05-09T10:29:02Z</time>
      </trkpt>
      <trkpt lat="44.8902" lon="3.4962">
        <ele>1141.22</ele>
        <time>2013-05-09T10:29:36Z</time>
      </trkpt>
      <trkpt lat="44.8902" lon="3.4962">
        <ele>1140.26</ele>
        <time>2013-05-09T10:30:11Z</time>
      </trkpt>
      <trkpt lat="44.8902" lon="3.4962">
        <ele>1140.74</ele>
        <time>2013-05-09T10:30:49Z</time>
      </trkpt>
      <trkpt lat="44.8902" lon="3.49621">
        <ele>1140.26</ele>
        <time>2013-05-09T10:31:30Z</time>
      </trkpt>
      <trkpt lat="44.8902" lon="3.49621">
        <ele>1140.74</ele>
        <time>2013-05-09T10:32:03Z</time>
      </trkpt>
      <trkpt lat="44.8902" lon="3.4962">
        <ele>1140.74</ele>
        <time>2013-05-09T10:32:28Z</time>
      </trkpt>
      <trkpt lat="44.8902" lon="3.4962">
        <ele>1140.74</ele>
        <time>2013-05-09T10:32:56Z</time>
      </trkpt>
      <trkpt lat="44.8902" lon="3.4962">
        <ele>1140.74</ele>
        <time>2013-05-09T10:33:24Z</time>
      </trkpt>
      <trkpt lat="44.89019" lon="3.4962">
        <ele>1140.74</ele>
        <time>2013-05-09T10:33:54Z</time>
      </trkpt>
      <trkpt lat="44.89019" lon="3.49619">
        <ele>1141.22</ele>
        <time>2013-05-09T10:34:24Z</time>
      </trkpt>
      <trkpt lat="44.89019" lon="3.49619">
        <ele>1141.22</ele>
        <time>2013-05-09T10:34:57Z</time>
      </trkpt>
      <trkpt lat="44.89019" lon="3.49619">
        <ele>1141.22</ele>
        <time>2013-05-09T10:35:30Z</time>
      </trkpt>
      <trkpt lat="44.89019" lon="3.49619">
        <ele>1141.7</ele>
        <time>2013-05-09T10:35:56Z</time>
      </trkpt>
      <trkpt lat="44.89019" lon="3.49619">
        <ele>1141.22</ele>
        <time>2013-05-09T10:36:24Z</time>
      </trkpt>
      <trkpt lat="44.89019" lon="3.49619">
        <ele>1141.22</ele>
        <time>2013-05-09T10:36:53Z</time>
      </trkpt>
      <trkpt lat="44.89019" lon="3.49619">
        <ele>1141.22</ele>
        <time>2013-05-09T10:37:23Z</time>
      </trkpt>
      <trkpt lat="44.8902" lon="3.49619">
        <ele>1141.22</ele>
        <time>2013-05-09T10:37:45Z</time>
      </trkpt>
      <trkpt lat="44.8902" lon="3.49619">
        <ele>1141.22</ele>
        <time>2013-05-09T10:38:12Z</time>
      </trkpt>
      <trkpt lat="44.8902" lon="3.49619">
        <ele>1140.74</ele>
        <time>2013-05-09T10:38:43Z</time>
      </trkpt>
      <trkpt lat="44.8902" lon="3.49619">
        <ele>1140.74</ele>
        <time>2013-05-09T10:39:10Z</time>
      </trkpt>
      <trkpt lat="44.8902" lon="3.49619">
        <ele>1141.22</ele>
        <time>2013-05-09T10:39:41Z</time>
      </trkpt>
      <trkpt lat="44.8902" lon="3.49619">
        <ele>1141.7</ele>
        <time>2013-05-09T10:40:01Z</time>
      </trkpt>
      <trkpt lat="44.8902" lon="3.49619">
        <ele>1141.7</ele>
        <time>2013-05-09T10:40:29Z</time>
      </trkpt>
      <trkpt lat="44.8902" lon="3.49619">
        <ele>1141.7</ele>
        <time>2013-05-09T10:40:52Z</time>
      </trkpt>
      <trkpt lat="44.8902" lon="3.49619">
        <ele>1141.7</ele>
        <time>2013-05-09T10:41:23Z</time>
      </trkpt>
      <trkpt lat="44.8902" lon="3.49618">
        <ele>1141.7</ele>
        <time>2013-05-09T10:42:01Z</time>
      </trkpt>
      <trkpt lat="44.8902" lon="3.49618">
        <ele>1141.7</ele>
        <time>2013-05-09T10:42:38Z</time>
      </trkpt>
      <trkpt lat="44.8902" lon="3.49618">
        <ele>1141.7</ele>
        <time>2013-05-09T10:43:13Z</time>
      </trkpt>
      <trkpt lat="44.8902" lon="3.49617">
        <ele>1141.7</ele>
        <time>2013-05-09T10:43:46Z</time>
      </trkpt>
      <trkpt lat="44.89019" lon="3.49616">
        <ele>1142.18</ele>
        <time>2013-05-09T10:44:19Z</time>
      </trkpt>
      <trkpt lat="44.89019" lon="3.49616">
        <ele>1141.7</ele>
        <time>2013-05-09T10:44:44Z</time>
      </trkpt>
      <trkpt lat="44.8902" lon="3.49616">
        <ele>1141.7</ele>
        <time>2013-05-09T10:45:14Z</time>
      </trkpt>
      <trkpt lat="44.89019" lon="3.49617">
        <ele>1141.7</ele>
        <time>2013-05-09T10:45:43Z</time>
      </trkpt>
      <trkpt lat="44.89019" lon="3.49617">
        <ele>1141.22</ele>
        <time>2013-05-09T10:46:09Z</time>
      </trkpt>
      <trkpt lat="44.89019" lon="3.49617">
        <ele>1141.22</ele>
        <time>2013-05-09T10:46:41Z</time>
      </trkpt>
      <trkpt lat="44.89019" lon="3.49616">
        <ele>1141.22</ele>
        <time>2013-05-09T10:47:13Z</time>
      </trkpt>
      <trkpt lat="44.89019" lon="3.49617">
        <ele>1141.22</ele>
        <time>2013-05-09T10:47:41Z</time>
      </trkpt>
      <trkpt lat="44.89019" lon="3.49616">
        <ele>1141.22</ele>
        <time>2013-05-09T10:48:14Z</time>
      </trkpt>
      <trkpt lat="44.89019" lon="3.49616">
        <ele>1141.22</ele>
        <time>2013-05-09T10:48:48Z</time>
      </trkpt>
      <trkpt lat="44.89019" lon="3.49616">
        <ele>1140.74</ele>
        <time>2013-05-09T10:49:18Z</time>
      </trkpt>
      <trkpt lat="44.89018" lon="3.49616">
        <ele>1140.74</ele>
        <time>2013-05-09T10:49:52Z</time>
      </trkpt>
      <trkpt lat="44.89018" lon="3.49616">
        <ele>1141.7</ele>
        <time>2013-05-09T10:50:23Z</time>
      </trkpt>
      <trkpt lat="44.89018" lon="3.49615">
        <ele>1141.22</ele>
        <time>2013-05-09T10:50:57Z</time>
      </trkpt>
      <trkpt lat="44.89018" lon="3.49616">
        <ele>1141.22</ele>
        <time>2013-05-09T10:51:27Z</time>
      </trkpt>
      <trkpt lat="44.89018" lon="3.49616">
        <ele>1140.74</ele>
        <time>2013-05-09T10:51:59Z</time>
      </trkpt>
      <trkpt lat="44.89017" lon="3.49616">
        <ele>1141.22</ele>
        <time>2013-05-09T10:52:34Z</time>
      </trkpt>
      <trkpt lat="44.89018" lon="3.49616">
        <ele>1140.74</ele>
        <time>2013-05-09T10:53:11Z</time>
      </trkpt>
      <trkpt lat="44.89017" lon="3.49616">
        <ele>1140.74</ele>
        <time>2013-05-09T10:53:46Z</time>
      </trkpt>
      <trkpt lat="44.89018" lon="3.49616">
        <ele>1140.74</ele>
        <time>2013-05-09T10:54:24Z</time>
      </trkpt>
      <trkpt lat="44.89018" lon="3.49615">
        <ele>1140.26</ele>
        <time>2013-05-09T10:54:57Z</time>
      </trkpt>
      <trkpt lat="44.89018" lon="3.49615">
        <ele>1140.74</ele>
        <time>2013-05-09T10:55:34Z</time>
      </trkpt>
      <trkpt lat="44.89018" lon="3.49615">
        <ele>1140.26</ele>
        <time>2013-05-09T10:56:05Z</time>
      </trkpt>
      <trkpt lat="44.89017" lon="3.49615">
        <ele>1140.26</ele>
        <time>2013-05-09T10:56:39Z</time>
      </trkpt>
      <trkpt lat="44.89017" lon="3.49616">
        <ele>1140.26</ele>
        <time>2013-05-09T10:57:11Z</time>
      </trkpt>
      <trkpt lat="44.89018" lon="3.49615">
        <ele>1139.78</ele>
        <time>2013-05-09T10:57:49Z</time>
      </trkpt>
      <trkpt lat="44.89018" lon="3.49614">
        <ele>1140.26</ele>
        <time>2013-05-09T10:58:28Z</time>
      </trkpt>
      <trkpt lat="44.89018" lon="3.49615">
        <ele>1140.26</ele>
        <time>2013-05-09T10:59:04Z</time>
      </trkpt>
      <trkpt lat="44.89018" lon="3.49615">
        <ele>1140.26</ele>
        <time>2013-05-09T10:59:38Z</time>
      </trkpt>
      <trkpt lat="44.89018" lon="3.49615">
        <ele>1140.26</ele>
        <time>2013-05-09T11:00:08Z</time>
      </trkpt>
      <trkpt lat="44.89018" lon="3.49615">
        <ele>1139.3</ele>
        <time>2013-05-09T11:00:43Z</time>
      </trkpt>
      <trkpt lat="44.89018" lon="3.49615">
        <ele>1139.3</ele>
        <time>2013-05-09T11:01:18Z</time>
      </trkpt>
      <trkpt lat="44.89018" lon="3.49616">
        <ele>1139.3</ele>
        <time>2013-05-09T11:01:54Z</time>
      </trkpt>
      <trkpt lat="44.89018" lon="3.49615">
        <ele>1139.78</ele>
        <time>2013-05-09T11:02:27Z</time>
      </trkpt>
      <trkpt lat="44.89018" lon="3.49615">
        <ele>1139.3</ele>
        <time>2013-05-09T11:03:01Z</time>
      </trkpt>
      <trkpt lat="44.89018" lon="3.49615">
        <ele>1139.3</ele>
        <time>2013-05-09T11:03:36Z</time>
      </trkpt>
      <trkpt lat="44.89018" lon="3.49616">
        <ele>1139.3</ele>
        <time>2013-05-09T11:04:08Z</time>
      </trkpt>
      <trkpt lat="44.89018" lon="3.49616">
        <ele>1139.3</ele>
        <time>2013-05-09T11:04:42Z</time>
      </trkpt>
      <trkpt lat="44.89018" lon="3.49616">
        <ele>1139.3</ele>
        <time>2013-05-09T11:05:14Z</time>
      </trkpt>
      <trkpt lat="44.89018" lon="3.49615">
        <ele>1139.3</ele>
        <time>2013-05-09T11:05:47Z</time>
      </trkpt>
      <trkpt lat="44.89019" lon="3.49615">
        <ele>1139.3</ele>
        <time>2013-05-09T11:06:17Z</time>
      </trkpt>
      <trkpt lat="44.89018" lon="3.49615">
        <ele>1139.3</ele>
        <time>2013-05-09T11:06:48Z</time>
      </trkpt>
      <trkpt lat="44.89018" lon="3.49615">
        <ele>1139.3</ele>
        <time>2013-05-09T11:07:18Z</time>
      </trkpt>
      <trkpt lat="44.89018" lon="3.49615">
        <ele>1125.36</ele>
        <time>2013-05-09T11:07:31Z</time>
      </trkpt>
      <trkpt lat="44.89018" lon="3.49615">
        <ele>1140.74</ele>
        <time>2013-05-09T11:07:32Z</time>
      </trkpt>
      <trkpt lat="44.89018" lon="3.49615">
        <ele>1139.3</ele>
        <time>2013-05-09T11:07:55Z</time>
      </trkpt>
      <trkpt lat="44.89018" lon="3.49615">
        <ele>1139.3</ele>
        <time>2013-05-09T11:08:21Z</time>
      </trkpt>
      <trkpt lat="44.89018" lon="3.49615">
        <ele>1139.3</ele>
        <time>2013-05-09T11:08:45Z</time>
      </trkpt>
      <trkpt lat="44.89018" lon="3.49615">
        <ele>1139.3</ele>
        <time>2013-05-09T11:09:18Z</time>
      </trkpt>
      <trkpt lat="44.89018" lon="3.49616">
        <ele>1138.82</ele>
        <time>2013-05-09T11:09:45Z</time>
      </trkpt>
      <trkpt lat="44.89018" lon="3.49616">
        <ele>1138.82</ele>
        <time>2013-05-09T11:10:13Z</time>
      </trkpt>
      <trkpt lat="44.89018" lon="3.49615">
        <ele>1138.82</ele>
        <time>2013-05-09T11:10:48Z</time>
      </trkpt>
      <trkpt lat="44.89018" lon="3.49615">
        <ele>1138.82</ele>
        <time>2013-05-09T11:11:19Z</time>
      </trkpt>
      <trkpt lat="44.89018" lon="3.49615">
        <ele>1138.34</ele>
        <time>2013-05-09T11:11:49Z</time>
      </trkpt>
      <trkpt lat="44.89019" lon="3.49615">
        <ele>1138.82</ele>
        <time>2013-05-09T11:12:25Z</time>
      </trkpt>
      <trkpt lat="44.89019" lon="3.49615">
        <ele>1138.82</ele>
        <time>2013-05-09T11:12:59Z</time>
      </trkpt>
      <trkpt lat="44.89019" lon="3.49615">
        <ele>1138.82</ele>
        <time>2013-05-09T11:13:32Z</time>
      </trkpt>
      <trkpt lat="44.89019" lon="3.49614">
        <ele>1138.82</ele>
        <time>2013-05-09T11:14:08Z</time>
      </trkpt>
      <trkpt lat="44.89019" lon="3.49614">
        <ele>1138.82</ele>
        <time>2013-05-09T11:14:38Z</time>
      </trkpt>
      <trkpt lat="44.89018" lon="3.49614">
        <ele>1138.82</ele>
        <time>2013-05-09T11:15:09Z</time>
      </trkpt>
      <trkpt lat="44.89018" lon="3.49614">
        <ele>1138.34</ele>
        <time>2013-05-09T11:15:46Z</time>
      </trkpt>
      <trkpt lat="44.89018" lon="3.49614">
        <ele>1138.34</ele>
        <time>2013-05-09T11:16:25Z</time>
      </trkpt>
      <trkpt lat="44.89017" lon="3.49614">
        <ele>1138.82</ele>
        <time>2013-05-09T11:17:01Z</time>
      </trkpt>
      <trkpt lat="44.89017" lon="3.49614">
        <ele>1138.34</ele>
        <time>2013-05-09T11:17:29Z</time>
      </trkpt>
      <trkpt lat="44.89017" lon="3.49614">
        <ele>1138.34</ele>
        <time>2013-05-09T11:17:59Z</time>
      </trkpt>
      <trkpt lat="44.89017" lon="3.49614">
        <ele>1138.82</ele>
        <time>2013-05-09T11:18:33Z</time>
      </trkpt>
      <trkpt lat="44.89017" lon="3.49615">
        <ele>1138.82</ele>
        <time>2013-05-09T11:19:10Z</time>
      </trkpt>
      <trkpt lat="44.89017" lon="3.49615">
        <ele>1138.82</ele>
        <time>2013-05-09T11:19:46Z</time>
      </trkpt>
      <trkpt lat="44.89017" lon="3.49615">
        <ele>1138.34</ele>
        <time>2013-05-09T11:20:17Z</time>
      </trkpt>
      <trkpt lat="44.89016" lon="3.49615">
        <ele>1138.34</ele>
        <time>2013-05-09T11:20:50Z</time>
      </trkpt>
      <trkpt lat="44.89016" lon="3.49615">
        <ele>1138.82</ele>
        <time>2013-05-09T11:21:18Z</time>
      </trkpt>
      <trkpt lat="44.89016" lon="3.49615">
        <ele>1138.82</ele>
        <time>2013-05-09T11:21:56Z</time>
      </trkpt>
      <trkpt lat="44.89016" lon="3.49615">
        <ele>1138.82</ele>
        <time>2013-05-09T11:22:29Z</time>
      </trkpt>
      <trkpt lat="44.89016" lon="3.49616">
        <ele>1138.34</ele>
        <time>2013-05-09T11:23:05Z</time>
      </trkpt>
      <trkpt lat="44.89016" lon="3.49616">
        <ele>1138.34</ele>
        <time>2013-05-09T11:23:38Z</time>
      </trkpt>
      <trkpt lat="44.89016" lon="3.49615">
        <ele>1138.34</ele>
        <time>2013-05-09T11:24:16Z</time>
      </trkpt>
      <trkpt lat="44.89016" lon="3.49615">
        <ele>1138.34</ele>
        <time>2013-05-09T11:24:53Z</time>
      </trkpt>
      <trkpt lat="44.89016" lon="3.49615">
        <ele>1138.34</ele>
        <time>2013-05-09T11:25:32Z</time>
      </trkpt>
      <trkpt lat="44.89016" lon="3.49615">
        <ele>1137.86</ele>
        <time>2013-05-09T11:26:04Z</time>
      </trkpt>
      <trkpt lat="44.89016" lon="3.49615">
        <ele>1138.34</ele>
        <time>2013-05-09T11:26:39Z</time>
      </trkpt>
      <trkpt lat="44.89016" lon="3.49614">
        <ele>1138.34</ele>
        <time>2013-05-09T11:27:13Z</time>
      </trkpt>
      <trkpt lat="44.89016" lon="3.49614">
        <ele>1137.86</ele>
        <time>2013-05-09T11:27:48Z</time>
      </trkpt>
      <trkpt lat="44.89016" lon="3.49614">
        <ele>1137.86</ele>
        <time>2013-05-09T11:28:18Z</time>
      </trkpt>
      <trkpt lat="44.89016" lon="3.49614">
        <ele>1137.86</ele>
        <time>2013-05-09T11:28:47Z</time>
      </trkpt>
      <trkpt lat="44.89016" lon="3.49614">
        <ele>1137.86</ele>
        <time>2013-05-09T11:29:16Z</time>
      </trkpt>
      <trkpt lat="44.89016" lon="3.49615">
        <ele>1137.86</ele>
        <time>2013-05-09T11:29:56Z</time>
      </trkpt>
      <trkpt lat="44.89016" lon="3.49615">
        <ele>1137.86</ele>
        <time>2013-05-09T11:30:30Z</time>
      </trkpt>
      <trkpt lat="44.89016" lon="3.49615">
        <ele>1137.86</ele>
        <time>2013-05-09T11:31:05Z</time>
      </trkpt>
      <trkpt lat="44.89017" lon="3.49615">
        <ele>1138.34</ele>
        <time>2013-05-09T11:31:43Z</time>
      </trkpt>
      <trkpt lat="44.89017" lon="3.49615">
        <ele>1137.86</ele>
        <time>2013-05-09T11:32:16Z</time>
      </trkpt>
      <trkpt lat="44.89016" lon="3.49615">
        <ele>1138.82</ele>
        <time>2013-05-09T11:32:51Z</time>
      </trkpt>
      <trkpt lat="44.89015" lon="3.49615">
        <ele>1138.82</ele>
        <time>2013-05-09T11:33:07Z</time>
      </trkpt>
      <trkpt lat="44.89015" lon="3.49615">
        <ele>1138.34</ele>
        <time>2013-05-09T11:33:25Z</time>
      </trkpt>
      <trkpt lat="44.89015" lon="3.49616">
        <ele>1138.34</ele>
        <time>2013-05-09T11:33:43Z</time>
      </trkpt>
      <trkpt lat="44.89015" lon="3.49616">
        <ele>1138.34</ele>
        <time>2013-05-09T11:34:11Z</time>
      </trkpt>
      <trkpt lat="44.89015" lon="3.49616">
        <ele>1138.82</ele>
        <time>2013-05-09T11:34:39Z</time>
      </trkpt>
      <trkpt lat="44.89015" lon="3.49616">
        <ele>1138.34</ele>
        <time>2013-05-09T11:35:07Z</time>
      </trkpt>
      <trkpt lat="44.89015" lon="3.49616">
        <ele>1138.34</ele>
        <time>2013-05-09T11:35:32Z</time>
      </trkpt>
      <trkpt lat="44.89015" lon="3.49615">
        <ele>1138.82</ele>
        <time>2013-05-09T11:35:59Z</time>
      </trkpt>
      <trkpt lat="44.89015" lon="3.49615">
        <ele>1138.34</ele>
        <time>2013-05-09T11:36:18Z</time>
      </trkpt>
      <trkpt lat="44.89015" lon="3.49615">
        <ele>1138.34</ele>
        <time>2013-05-09T11:36:36Z</time>
      </trkpt>
      <trkpt lat="44.89016" lon="3.49615">
        <ele>1138.34</ele>
        <time>2013-05-09T11:36:58Z</time>
      </trkpt>
      <trkpt lat="44.89016" lon="3.49615">
        <ele>1138.34</ele>
        <time>2013-05-09T11:37:19Z</time>
      </trkpt>
      <trkpt lat="44.89016" lon="3.49615">
        <ele>1137.86</ele>
        <time>2013-05-09T11:37:38Z</time>
      </trkpt>
      <trkpt lat="44.89016" lon="3.49615">
        <ele>1138.82</ele>
        <time>2013-05-09T11:38:01Z</time>
      </trkpt>
      <trkpt lat="44.89016" lon="3.49616">
        <ele>1137.86</ele>
        <time>2013-05-09T11:38:24Z</time>
      </trkpt>
      <trkpt lat="44.89016" lon="3.49616">
        <ele>1137.86</ele>
        <time>2013-05-09T11:38:54Z</time>
      </trkpt>
      <trkpt lat="44.89016" lon="3.49616">
        <ele>1137.86</ele>
        <time>2013-05-09T11:39:14Z</time>
      </trkpt>
      <trkpt lat="44.89016" lon="3.49616">
        <ele>1137.38</ele>
        <time>2013-05-09T11:39:40Z</time>
      </trkpt>
      <trkpt lat="44.89016" lon="3.49616">
        <ele>1136.9</ele>
        <time>2013-05-09T11:40:03Z</time>
      </trkpt>
      <trkpt lat="44.89016" lon="3.49616">
        <ele>1137.38</ele>
        <time>2013-05-09T11:40:27Z</time>
      </trkpt>
      <trkpt lat="44.89016" lon="3.49616">
        <ele>1137.38</ele>
        <time>2013-05-09T11:40:46Z</time>
      </trkpt>
      <trkpt lat="44.89016" lon="3.49616">
        <ele>1137.86</ele>
        <time>2013-05-09T11:41:14Z</time>
      </trkpt>
      <trkpt lat="44.89016" lon="3.49617">
        <ele>1137.38</ele>
        <time>2013-05-09T11:41:35Z</time>
      </trkpt>
      <trkpt lat="44.89016" lon="3.49617">
        <ele>1137.86</ele>
        <time>2013-05-09T11:41:56Z</time>
      </trkpt>
      <trkpt lat="44.89016" lon="3.49617">
        <ele>1137.86</ele>
        <time>2013-05-09T11:42:19Z</time>
      </trkpt>
      <trkpt lat="44.89016" lon="3.49617">
        <ele>1137.38</ele>
        <time>2013-05-09T11:42:39Z</time>
      </trkpt>
      <trkpt lat="44.89016" lon="3.49617">
        <ele>1137.38</ele>
        <time>2013-05-09T11:43:01Z</time>
      </trkpt>
      <trkpt lat="44.89016" lon="3.49617">
        <ele>1137.38</ele>
        <time>2013-05-09T11:43:24Z</time>
      </trkpt>
      <trkpt lat="44.89016" lon="3.49617">
        <ele>1137.86</ele>
        <time>2013-05-09T11:43:46Z</time>
      </trkpt>
      <trkpt lat="44.89016" lon="3.49617">
        <ele>1137.86</ele>
        <time>2013-05-09T11:44:11Z</time>
      </trkpt>
      <trkpt lat="44.89016" lon="3.49618">
        <ele>1137.38</ele>
        <time>2013-05-09T11:44:33Z</time>
      </trkpt>
      <trkpt lat="44.89016" lon="3.49617">
        <ele>1137.86</ele>
        <time>2013-05-09T11:44:48Z</time>
      </trkpt>
      <trkpt lat="44.89016" lon="3.49616">
        <ele>1137.38</ele>
        <time>2013-05-09T11:45:01Z</time>
      </trkpt>
      <trkpt lat="44.89016" lon="3.49616">
        <ele>1133.53</ele>
        <time>2013-05-09T11:45:06Z</time>
      </trkpt>
      <trkpt lat="44.89016" lon="3.49616">
        <ele>1137.86</ele>
        <time>2013-05-09T11:45:07Z</time>
      </trkpt>
      <trkpt lat="44.89016" lon="3.49617">
        <ele>1137.38</ele>
        <time>2013-05-09T11:45:21Z</time>
      </trkpt>
      <trkpt lat="44.89016" lon="3.49616">
        <ele>1137.38</ele>
        <time>2013-05-09T11:45:35Z</time>
      </trkpt>
      <trkpt lat="44.89016" lon="3.49616">
        <ele>1137.38</ele>
        <time>2013-05-09T11:46:00Z</time>
      </trkpt>
      <trkpt lat="44.89016" lon="3.49616">
        <ele>1137.38</ele>
        <time>2013-05-09T11:46:28Z</time>
      </trkpt>
      <trkpt lat="44.89016" lon="3.49616">
        <ele>1138.34</ele>
        <time>2013-05-09T11:46:54Z</time>
      </trkpt>
      <trkpt lat="44.89016" lon="3.49616">
        <ele>1138.34</ele>
        <time>2013-05-09T11:47:23Z</time>
      </trkpt>
      <trkpt lat="44.89016" lon="3.49616">
        <ele>1137.86</ele>
        <time>2013-05-09T11:47:54Z</time>
      </trkpt>
      <trkpt lat="44.89016" lon="3.49616">
        <ele>1138.34</ele>
        <time>2013-05-09T11:48:26Z</time>
      </trkpt>
      <trkpt lat="44.89016" lon="3.49616">
        <ele>1137.38</ele>
        <time>2013-05-09T11:48:53Z</time>
      </trkpt>
      <trkpt lat="44.89016" lon="3.49616">
        <ele>1138.34</ele>
        <time>2013-05-09T11:49:21Z</time>
      </trkpt>
      <trkpt lat="44.89017" lon="3.49616">
        <ele>1137.86</ele>
        <time>2013-05-09T11:49:37Z</time>
      </trkpt>
      <trkpt lat="44.89017" lon="3.49616">
        <ele>1137.38</ele>
        <time>2013-05-09T11:49:58Z</time>
      </trkpt>
      <trkpt lat="44.89017" lon="3.49616">
        <ele>1138.34</ele>
        <time>2013-05-09T11:50:16Z</time>
      </trkpt>
      <trkpt lat="44.89017" lon="3.49616">
        <ele>1138.34</ele>
        <time>2013-05-09T11:50:26Z</time>
      </trkpt>
      <trkpt lat="44.89018" lon="3.49613">
        <ele>1137.86</ele>
        <time>2013-05-09T11:50:41Z</time>
      </trkpt>
      <trkpt lat="44.89018" lon="3.49613">
        <ele>1137.86</ele>
        <time>2013-05-09T11:51:01Z</time>
      </trkpt>
      <trkpt lat="44.89017" lon="3.49612">
        <ele>1138.34</ele>
        <time>2013-05-09T11:51:16Z</time>
      </trkpt>
      <trkpt lat="44.89015" lon="3.49599">
        <ele>1138.34</ele>
        <time>2013-05-09T11:51:30Z</time>
      </trkpt>
      <trkpt lat="44.89013" lon="3.49591">
        <ele>1138.82</ele>
        <time>2013-05-09T11:51:42Z</time>
      </trkpt>
      <trkpt lat="44.89013" lon="3.49581">
        <ele>1139.78</ele>
        <time>2013-05-09T11:51:53Z</time>
      </trkpt>
      <trkpt lat="44.89012" lon="3.49577">
        <ele>1139.78</ele>
        <time>2013-05-09T11:51:58Z</time>
      </trkpt>
      <trkpt lat="44.89011" lon="3.49573">
        <ele>1139.78</ele>
        <time>2013-05-09T11:52:01Z</time>
      </trkpt>
      <trkpt lat="44.8901" lon="3.49569">
        <ele>1139.78</ele>
        <time>2013-05-09T11:52:05Z</time>
      </trkpt>
      <trkpt lat="44.89009" lon="3.49566">
        <ele>1140.26</ele>
        <time>2013-05-09T11:52:07Z</time>
      </trkpt>
      <trkpt lat="44.89007" lon="3.49564">
        <ele>1140.74</ele>
        <time>2013-05-09T11:52:10Z</time>
      </trkpt>
      <trkpt lat="44.89005" lon="3.49556">
        <ele>1141.22</ele>
        <time>2013-05-09T11:52:18Z</time>
      </trkpt>
      <trkpt lat="44.89003" lon="3.49549">
        <ele>1141.22</ele>
        <time>2013-05-09T11:52:22Z</time>
      </trkpt>
      <trkpt lat="44.89001" lon="3.49539">
        <ele>1143.14</ele>
        <time>2013-05-09T11:52:30Z</time>
      </trkpt>
      <trkpt lat="44.88998" lon="3.49533">
        <ele>1142.18</ele>
        <time>2013-05-09T11:52:35Z</time>
      </trkpt>
      <trkpt lat="44.88996" lon="3.49527">
        <ele>1141.22</ele>
        <time>2013-05-09T11:52:42Z</time>
      </trkpt>
      <trkpt lat="44.8899" lon="3.49516">
        <ele>1140.74</ele>
        <time>2013-05-09T11:52:52Z</time>
      </trkpt>
      <trkpt lat="44.88987" lon="3.49511">
        <ele>1140.74</ele>
        <time>2013-05-09T11:52:56Z</time>
      </trkpt>
      <trkpt lat="44.8898" lon="3.49503">
        <ele>1140.74</ele>
        <time>2013-05-09T11:53:05Z</time>
      </trkpt>
      <trkpt lat="44.88972" lon="3.49494">
        <ele>1141.22</ele>
        <time>2013-05-09T11:53:17Z</time>
      </trkpt>
      <trkpt lat="44.88962" lon="3.49491">
        <ele>1141.22</ele>
        <time>2013-05-09T11:53:29Z</time>
      </trkpt>
      <trkpt lat="44.88952" lon="3.49488">
        <ele>1141.22</ele>
        <time>2013-05-09T11:53:42Z</time>
      </trkpt>
      <trkpt lat="44.8895" lon="3.49488">
        <ele>1141.22</ele>
        <time>2013-05-09T11:53:53Z</time>
      </trkpt>
      <trkpt lat="44.88949" lon="3.49489">
        <ele>1141.22</ele>
        <time>2013-05-09T11:53:55Z</time>
      </trkpt>
      <trkpt lat="44.88946" lon="3.4949">
        <ele>1141.22</ele>
        <time>2013-05-09T11:53:58Z</time>
      </trkpt>
      <trkpt lat="44.88938" lon="3.49492">
        <ele>1141.22</ele>
        <time>2013-05-09T11:54:07Z</time>
      </trkpt>
      <trkpt lat="44.8894" lon="3.4949">
        <ele>1141.7</ele>
        <time>2013-05-09T11:54:22Z</time>
      </trkpt>
      <trkpt lat="44.8894" lon="3.4949">
        <ele>1141.22</ele>
        <time>2013-05-09T11:54:35Z</time>
      </trkpt>
      <trkpt lat="44.88938" lon="3.49492">
        <ele>1141.22</ele>
        <time>2013-05-09T11:54:39Z</time>
      </trkpt>
      <trkpt lat="44.8893" lon="3.49495">
        <ele>1141.22</ele>
        <time>2013-05-09T11:54:47Z</time>
      </trkpt>
      <trkpt lat="44.88924" lon="3.49497">
        <ele>1141.22</ele>
        <time>2013-05-09T11:54:52Z</time>
      </trkpt>
      <trkpt lat="44.88914" lon="3.49497">
        <ele>1141.22</ele>
        <time>2013-05-09T11:55:06Z</time>
      </trkpt>
      <trkpt lat="44.88904" lon="3.49489">
        <ele>1141.22</ele>
        <time>2013-05-09T11:55:18Z</time>
      </trkpt>
      <trkpt lat="44.88901" lon="3.49486">
        <ele>1141.22</ele>
        <time>2013-05-09T11:55:21Z</time>
      </trkpt>
      <trkpt lat="44.88895" lon="3.49482">
        <ele>1141.7</ele>
        <time>2013-05-09T11:55:27Z</time>
      </trkpt>
      <trkpt lat="44.88887" lon="3.49477">
        <ele>1142.18</ele>
        <time>2013-05-09T11:55:39Z</time>
      </trkpt>
      <trkpt lat="44.88885" lon="3.49476">
        <ele>1142.18</ele>
        <time>2013-05-09T11:55:42Z</time>
      </trkpt>
      <trkpt lat="44.8888" lon="3.49474">
        <ele>1142.66</ele>
        <time>2013-05-09T11:55:52Z</time>
      </trkpt>
      <trkpt lat="44.88875" lon="3.49471">
        <ele>1143.14</ele>
        <time>2013-05-09T11:55:56Z</time>
      </trkpt>
      <trkpt lat="44.88861" lon="3.49462">
        <ele>1144.11</ele>
        <time>2013-05-09T11:56:09Z</time>
      </trkpt>
      <trkpt lat="44.88856" lon="3.49457">
        <ele>1144.59</ele>
        <time>2013-05-09T11:56:15Z</time>
      </trkpt>
      <trkpt lat="44.8885" lon="3.49455">
        <ele>1145.07</ele>
        <time>2013-05-09T11:56:26Z</time>
      </trkpt>
      <trkpt lat="44.88845" lon="3.49451">
        <ele>1145.55</ele>
        <time>2013-05-09T11:56:34Z</time>
      </trkpt>
      <trkpt lat="44.8884" lon="3.49448">
        <ele>1145.55</ele>
        <time>2013-05-09T11:56:39Z</time>
      </trkpt>
      <trkpt lat="44.88831" lon="3.49443">
        <ele>1146.51</ele>
        <time>2013-05-09T11:56:48Z</time>
      </trkpt>
      <trkpt lat="44.88817" lon="3.49443">
        <ele>1146.99</ele>
        <time>2013-05-09T11:57:02Z</time>
      </trkpt>
      <trkpt lat="44.8881" lon="3.49448">
        <ele>1147.47</ele>
        <time>2013-05-09T11:57:10Z</time>
      </trkpt>
      <trkpt lat="44.88809" lon="3.49451">
        <ele>1147.47</ele>
        <time>2013-05-09T11:57:12Z</time>
      </trkpt>
      <trkpt lat="44.88803" lon="3.49457">
        <ele>1147.95</ele>
        <time>2013-05-09T11:57:19Z</time>
      </trkpt>
      <trkpt lat="44.88795" lon="3.4947">
        <ele>1148.43</ele>
        <time>2013-05-09T11:57:31Z</time>
      </trkpt>
      <trkpt lat="44.88786" lon="3.49486">
        <ele>1148.43</ele>
        <time>2013-05-09T11:57:45Z</time>
      </trkpt>
      <trkpt lat="44.88779" lon="3.49501">
        <ele>1148.91</ele>
        <time>2013-05-09T11:57:58Z</time>
      </trkpt>
      <trkpt lat="44.8877" lon="3.49517">
        <ele>1149.87</ele>
        <time>2013-05-09T11:58:11Z</time>
      </trkpt>
      <trkpt lat="44.8876" lon="3.49532">
        <ele>1150.84</ele>
        <time>2013-05-09T11:58:25Z</time>
      </trkpt>
      <trkpt lat="44.8875" lon="3.49549">
        <ele>1151.8</ele>
        <time>2013-05-09T11:58:39Z</time>
      </trkpt>
      <trkpt lat="44.88743" lon="3.49563">
        <ele>1152.76</ele>
        <time>2013-05-09T11:58:51Z</time>
      </trkpt>
      <trkpt lat="44.88736" lon="3.49574">
        <ele>1153.24</ele>
        <time>2013-05-09T11:59:02Z</time>
      </trkpt>
      <trkpt lat="44.88735" lon="3.49575">
        <ele>1153.24</ele>
        <time>2013-05-09T11:59:04Z</time>
      </trkpt>
      <trkpt lat="44.88731" lon="3.49578">
        <ele>1153.72</ele>
        <time>2013-05-09T11:59:08Z</time>
      </trkpt>
      <trkpt lat="44.88725" lon="3.49586">
        <ele>1155.16</ele>
        <time>2013-05-09T11:59:17Z</time>
      </trkpt>
      <trkpt lat="44.88723" lon="3.49588">
        <ele>1155.16</ele>
        <time>2013-05-09T11:59:19Z</time>
      </trkpt>
      <trkpt lat="44.88713" lon="3.49599">
        <ele>1157.08</ele>
        <time>2013-05-09T11:59:32Z</time>
      </trkpt>
      <trkpt lat="44.88705" lon="3.49609">
        <ele>1158.05</ele>
        <time>2013-05-09T11:59:42Z</time>
      </trkpt>
      <trkpt lat="44.88694" lon="3.49621">
        <ele>1159.01</ele>
        <time>2013-05-09T11:59:55Z</time>
      </trkpt>
      <trkpt lat="44.88684" lon="3.49632">
        <ele>1159.49</ele>
        <time>2013-05-09T12:00:07Z</time>
      </trkpt>
      <trkpt lat="44.88681" lon="3.49636">
        <ele>1159.97</ele>
        <time>2013-05-09T12:00:10Z</time>
      </trkpt>
      <trkpt lat="44.88678" lon="3.49639">
        <ele>1159.49</ele>
        <time>2013-05-09T12:00:13Z</time>
      </trkpt>
      <trkpt lat="44.88672" lon="3.49644">
        <ele>1159.97</ele>
        <time>2013-05-09T12:00:19Z</time>
      </trkpt>
      <trkpt lat="44.88666" lon="3.4965">
        <ele>1160.45</ele>
        <time>2013-05-09T12:00:25Z</time>
      </trkpt>
      <trkpt lat="44.88655" lon="3.49659">
        <ele>1160.45</ele>
        <time>2013-05-09T12:00:36Z</time>
      </trkpt>
      <trkpt lat="44.88642" lon="3.49668">
        <ele>1159.97</ele>
        <time>2013-05-09T12:00:48Z</time>
      </trkpt>
      <trkpt lat="44.88638" lon="3.49671">
        <ele>1159.97</ele>
        <time>2013-05-09T12:00:52Z</time>
      </trkpt>
      <trkpt lat="44.88624" lon="3.49677">
        <ele>1159.49</ele>
        <time>2013-05-09T12:01:04Z</time>
      </trkpt>
      <trkpt lat="44.88611" lon="3.49679">
        <ele>1159.49</ele>
        <time>2013-05-09T12:01:14Z</time>
      </trkpt>
      <trkpt lat="44.88608" lon="3.49683">
        <ele>1159.49</ele>
        <time>2013-05-09T12:01:18Z</time>
      </trkpt>
      <trkpt lat="44.88586" lon="3.49681">
        <ele>1159.49</ele>
        <time>2013-05-09T12:01:35Z</time>
      </trkpt>
      <trkpt lat="44.8857" lon="3.49681">
        <ele>1159.01</ele>
        <time>2013-05-09T12:01:49Z</time>
      </trkpt>
      <trkpt lat="44.88551" lon="3.4968">
        <ele>1159.01</ele>
        <time>2013-05-09T12:02:05Z</time>
      </trkpt>
      <trkpt lat="44.88533" lon="3.49677">
        <ele>1158.53</ele>
        <time>2013-05-09T12:02:20Z</time>
      </trkpt>
      <trkpt lat="44.88512" lon="3.49674">
        <ele>1158.53</ele>
        <time>2013-05-09T12:02:38Z</time>
      </trkpt>
      <trkpt lat="44.88497" lon="3.49672">
        <ele>1158.53</ele>
        <time>2013-05-09T12:02:51Z</time>
      </trkpt>
      <trkpt lat="44.88474" lon="3.49669">
        <ele>1158.53</ele>
        <time>2013-05-09T12:03:10Z</time>
      </trkpt>
      <trkpt lat="44.88457" lon="3.49669">
        <ele>1158.05</ele>
        <time>2013-05-09T12:03:25Z</time>
      </trkpt>
      <trkpt lat="44.88438" lon="3.49671">
        <ele>1157.56</ele>
        <time>2013-05-09T12:03:40Z</time>
      </trkpt>
      <trkpt lat="44.88419" lon="3.49676">
        <ele>1157.08</ele>
        <time>2013-05-09T12:03:56Z</time>
      </trkpt>
      <trkpt lat="44.884" lon="3.49687">
        <ele>1156.12</ele>
        <time>2013-05-09T12:04:13Z</time>
      </trkpt>
      <trkpt lat="44.88388" lon="3.49706">
        <ele>1156.6</ele>
        <time>2013-05-09T12:04:27Z</time>
      </trkpt>
      <trkpt lat="44.8838" lon="3.49722">
        <ele>1156.12</ele>
        <time>2013-05-09T12:04:39Z</time>
      </trkpt>
      <trkpt lat="44.88372" lon="3.49739">
        <ele>1155.64</ele>
        <time>2013-05-09T12:04:51Z</time>
      </trkpt>
      <trkpt lat="44.88359" lon="3.49765">
        <ele>1156.12</ele>
        <time>2013-05-09T12:05:08Z</time>
      </trkpt>
      <trkpt lat="44.88349" lon="3.49784">
        <ele>1155.64</ele>
        <time>2013-05-09T12:05:22Z</time>
      </trkpt>
      <trkpt lat="44.8834" lon="3.49804">
        <ele>1155.64</ele>
        <time>2013-05-09T12:05:36Z</time>
      </trkpt>
      <trkpt lat="44.8833" lon="3.49826">
        <ele>1156.12</ele>
        <time>2013-05-09T12:05:51Z</time>
      </trkpt>
      <trkpt lat="44.88329" lon="3.49828">
        <ele>1156.12</ele>
        <time>2013-05-09T12:05:53Z</time>
      </trkpt>
      <trkpt lat="44.88314" lon="3.49847">
        <ele>1155.16</ele>
        <time>2013-05-09T12:06:10Z</time>
      </trkpt>
      <trkpt lat="44.88299" lon="3.49864">
        <ele>1154.2</ele>
        <time>2013-05-09T12:06:25Z</time>
      </trkpt>
      <trkpt lat="44.88283" lon="3.49877">
        <ele>1153.24</ele>
        <time>2013-05-09T12:06:41Z</time>
      </trkpt>
      <trkpt lat="44.88265" lon="3.49889">
        <ele>1152.76</ele>
        <time>2013-05-09T12:06:57Z</time>
      </trkpt>
      <trkpt lat="44.88245" lon="3.49897">
        <ele>1150.84</ele>
        <time>2013-05-09T12:07:13Z</time>
      </trkpt>
      <trkpt lat="44.8823" lon="3.49902">
        <ele>1149.87</ele>
        <time>2013-05-09T12:07:27Z</time>
      </trkpt>
      <trkpt lat="44.88213" lon="3.49904">
        <ele>1148.43</ele>
        <time>2013-05-09T12:07:41Z</time>
      </trkpt>
      <trkpt lat="44.88197" lon="3.49896">
        <ele>1146.99</ele>
        <time>2013-05-09T12:07:54Z</time>
      </trkpt>
      <trkpt lat="44.88185" lon="3.49895">
        <ele>1143.63</ele>
        <time>2013-05-09T12:08:06Z</time>
      </trkpt>
      <trkpt lat="44.88184" lon="3.49895">
        <ele>1143.63</ele>
        <time>2013-05-09T12:08:07Z</time>
      </trkpt>
      <trkpt lat="44.88181" lon="3.49894">
        <ele>1143.14</ele>
        <time>2013-05-09T12:08:10Z</time>
      </trkpt>
      <trkpt lat="44.88173" lon="3.49901">
        <ele>1141.7</ele>
        <time>2013-05-09T12:08:22Z</time>
      </trkpt>
      <trkpt lat="44.88159" lon="3.49903">
        <ele>1139.78</ele>
        <time>2013-05-09T12:08:35Z</time>
      </trkpt>
      <trkpt lat="44.88158" lon="3.499">
        <ele>1139.3</ele>
        <time>2013-05-09T12:08:39Z</time>
      </trkpt>
      <trkpt lat="44.88155" lon="3.49902">
        <ele>1139.3</ele>
        <time>2013-05-09T12:08:41Z</time>
      </trkpt>
      <trkpt lat="44.88139" lon="3.49915">
        <ele>1137.86</ele>
        <time>2013-05-09T12:08:56Z</time>
      </trkpt>
      <trkpt lat="44.88138" lon="3.49916">
        <ele>1137.38</ele>
        <time>2013-05-09T12:08:57Z</time>
      </trkpt>
      <trkpt lat="44.88125" lon="3.49925">
        <ele>1136.42</ele>
        <time>2013-05-09T12:09:10Z</time>
      </trkpt>
      <trkpt lat="44.88119" lon="3.49931">
        <ele>1135.94</ele>
        <time>2013-05-09T12:09:16Z</time>
      </trkpt>
      <trkpt lat="44.88113" lon="3.49934">
        <ele>1135.94</ele>
        <time>2013-05-09T12:09:21Z</time>
      </trkpt>
      <trkpt lat="44.88109" lon="3.49935">
        <ele>1135.94</ele>
        <time>2013-05-09T12:09:24Z</time>
      </trkpt>
      <trkpt lat="44.88101" lon="3.4994">
        <ele>1135.94</ele>
        <time>2013-05-09T12:09:31Z</time>
      </trkpt>
      <trkpt lat="44.88092" lon="3.49934">
        <ele>1134.97</ele>
        <time>2013-05-09T12:09:41Z</time>
      </trkpt>
      <trkpt lat="44.88088" lon="3.49928">
        <ele>1133.05</ele>
        <time>2013-05-09T12:09:54Z</time>
      </trkpt>
      <trkpt lat="44.88086" lon="3.49929">
        <ele>1132.09</ele>
        <time>2013-05-09T12:09:56Z</time>
      </trkpt>
      <trkpt lat="44.88072" lon="3.4993">
        <ele>1129.21</ele>
        <time>2013-05-09T12:10:10Z</time>
      </trkpt>
      <trkpt lat="44.88068" lon="3.49929">
        <ele>1128.73</ele>
        <time>2013-05-09T12:10:14Z</time>
      </trkpt>
      <trkpt lat="44.88063" lon="3.49929">
        <ele>1128.24</ele>
        <time>2013-05-09T12:10:19Z</time>
      </trkpt>
      <trkpt lat="44.88059" lon="3.49931">
        <ele>1123.44</ele>
        <time>2013-05-09T12:10:22Z</time>
      </trkpt>
      <trkpt lat="44.88058" lon="3.49931">
        <ele>1126.8</ele>
        <time>2013-05-09T12:10:23Z</time>
      </trkpt>
      <trkpt lat="44.88047" lon="3.49934">
        <ele>1123.92</ele>
        <time>2013-05-09T12:10:36Z</time>
      </trkpt>
      <trkpt lat="44.88046" lon="3.49934">
        <ele>1123.92</ele>
        <time>2013-05-09T12:10:40Z</time>
      </trkpt>
      <trkpt lat="44.88042" lon="3.49935">
        <ele>1123.92</ele>
        <time>2013-05-09T12:10:43Z</time>
      </trkpt>
      <trkpt lat="44.88027" lon="3.49938">
        <ele>1121.52</ele>
        <time>2013-05-09T12:10:58Z</time>
      </trkpt>
      <trkpt lat="44.88026" lon="3.4994">
        <ele>1121.52</ele>
        <time>2013-05-09T12:11:00Z</time>
      </trkpt>
      <trkpt lat="44.88025" lon="3.49942">
        <ele>1121.03</ele>
        <time>2013-05-09T12:11:02Z</time>
      </trkpt>
      <trkpt lat="44.88024" lon="3.49947">
        <ele>1121.03</ele>
        <time>2013-05-09T12:11:06Z</time>
      </trkpt>
      <trkpt lat="44.88023" lon="3.49953">
        <ele>1121.03</ele>
        <time>2013-05-09T12:11:10Z</time>
      </trkpt>
      <trkpt lat="44.88022" lon="3.4996">
        <ele>1121.52</ele>
        <time>2013-05-09T12:11:15Z</time>
      </trkpt>
      <trkpt lat="44.88022" lon="3.49965">
        <ele>1121.03</ele>
        <time>2013-05-09T12:11:19Z</time>
      </trkpt>
      <trkpt lat="44.88021" lon="3.49983">
        <ele>1120.07</ele>
        <time>2013-05-09T12:11:31Z</time>
      </trkpt>
      <trkpt lat="44.8802" lon="3.49988">
        <ele>1119.11</ele>
        <time>2013-05-09T12:11:35Z</time>
      </trkpt>
      <trkpt lat="44.88021" lon="3.49991">
        <ele>1118.63</ele>
        <time>2013-05-09T12:11:38Z</time>
      </trkpt>
      <trkpt lat="44.88018" lon="3.50006">
        <ele>1116.71</ele>
        <time>2013-05-09T12:11:51Z</time>
      </trkpt>
      <trkpt lat="44.88015" lon="3.50009">
        <ele>1115.27</ele>
        <time>2013-05-09T12:11:58Z</time>
      </trkpt>
      <trkpt lat="44.88012" lon="3.50009">
        <ele>1114.31</ele>
        <time>2013-05-09T12:12:01Z</time>
      </trkpt>
      <trkpt lat="44.88003" lon="3.50001">
        <ele>1112.86</ele>
        <time>2013-05-09T12:12:14Z</time>
      </trkpt>
      <trkpt lat="44.88002" lon="3.49999">
        <ele>1111.9</ele>
        <time>2013-05-09T12:12:16Z</time>
      </trkpt>
      <trkpt lat="44.87997" lon="3.49995">
        <ele>1111.42</ele>
        <time>2013-05-09T12:12:21Z</time>
      </trkpt>
      <trkpt lat="44.8799" lon="3.49996">
        <ele>1109.02</ele>
        <time>2013-05-09T12:12:30Z</time>
      </trkpt>
      <trkpt lat="44.8798" lon="3.5">
        <ele>1107.1</ele>
        <time>2013-05-09T12:12:39Z</time>
      </trkpt>
      <trkpt lat="44.87977" lon="3.50001">
        <ele>1107.1</ele>
        <time>2013-05-09T12:12:43Z</time>
      </trkpt>
      <trkpt lat="44.87972" lon="3.50006">
        <ele>1105.17</ele>
        <time>2013-05-09T12:12:53Z</time>
      </trkpt>
      <trkpt lat="44.87963" lon="3.50012">
        <ele>1104.21</ele>
        <time>2013-05-09T12:13:04Z</time>
      </trkpt>
      <trkpt lat="44.87946" lon="3.50014">
        <ele>1102.29</ele>
        <time>2013-05-09T12:13:19Z</time>
      </trkpt>
      <trkpt lat="44.8794" lon="3.50013">
        <ele>1101.33</ele>
        <time>2013-05-09T12:13:27Z</time>
      </trkpt>
      <trkpt lat="44.87935" lon="3.50013">
        <ele>1101.33</ele>
        <time>2013-05-09T12:13:30Z</time>
      </trkpt>
      <trkpt lat="44.8792" lon="3.50019">
        <ele>1100.37</ele>
        <time>2013-05-09T12:13:44Z</time>
      </trkpt>
      <trkpt lat="44.87914" lon="3.5002">
        <ele>1100.37</ele>
        <time>2013-05-09T12:13:53Z</time>
      </trkpt>
      <trkpt lat="44.87896" lon="3.50021">
        <ele>1099.89</ele>
        <time>2013-05-09T12:14:08Z</time>
      </trkpt>
      <trkpt lat="44.87884" lon="3.50019">
        <ele>1099.89</ele>
        <time>2013-05-09T12:14:19Z</time>
      </trkpt>
      <trkpt lat="44.87869" lon="3.5001">
        <ele>1099.89</ele>
        <time>2013-05-09T12:14:33Z</time>
      </trkpt>
      <trkpt lat="44.87851" lon="3.50004">
        <ele>1099.4</ele>
        <time>2013-05-09T12:14:50Z</time>
      </trkpt>
      <trkpt lat="44.87849" lon="3.50004">
        <ele>1099.89</ele>
        <time>2013-05-09T12:14:53Z</time>
      </trkpt>
      <trkpt lat="44.87846" lon="3.50003">
        <ele>1099.89</ele>
        <time>2013-05-09T12:14:56Z</time>
      </trkpt>
      <trkpt lat="44.87833" lon="3.50008">
        <ele>1099.89</ele>
        <time>2013-05-09T12:15:08Z</time>
      </trkpt>
      <trkpt lat="44.87828" lon="3.50018">
        <ele>1100.37</ele>
        <time>2013-05-09T12:15:20Z</time>
      </trkpt>
      <trkpt lat="44.87827" lon="3.50022">
        <ele>1099.89</ele>
        <time>2013-05-09T12:15:24Z</time>
      </trkpt>
      <trkpt lat="44.87822" lon="3.50035">
        <ele>1101.33</ele>
        <time>2013-05-09T12:15:37Z</time>
      </trkpt>
      <trkpt lat="44.87816" lon="3.50054">
        <ele>1103.73</ele>
        <time>2013-05-09T12:15:53Z</time>
      </trkpt>
      <trkpt lat="44.87811" lon="3.5007">
        <ele>1104.69</ele>
        <time>2013-05-09T12:16:07Z</time>
      </trkpt>
      <trkpt lat="44.87807" lon="3.50087">
        <ele>1106.13</ele>
        <time>2013-05-09T12:16:21Z</time>
      </trkpt>
      <trkpt lat="44.87801" lon="3.501">
        <ele>1106.13</ele>
        <time>2013-05-09T12:16:32Z</time>
      </trkpt>
      <trkpt lat="44.87799" lon="3.50103">
        <ele>1106.13</ele>
        <time>2013-05-09T12:16:34Z</time>
      </trkpt>
      <trkpt lat="44.87792" lon="3.50119">
        <ele>1107.58</ele>
        <time>2013-05-09T12:16:48Z</time>
      </trkpt>
      <trkpt lat="44.87789" lon="3.50124">
        <ele>1109.02</ele>
        <time>2013-05-09T12:16:53Z</time>
      </trkpt>
      <trkpt lat="44.87779" lon="3.50129">
        <ele>1111.42</ele>
        <time>2013-05-09T12:17:07Z</time>
      </trkpt>
      <trkpt lat="44.87777" lon="3.50129">
        <ele>1110.94</ele>
        <time>2013-05-09T12:17:09Z</time>
      </trkpt>
      <trkpt lat="44.87775" lon="3.50126">
        <ele>1111.9</ele>
        <time>2013-05-09T12:17:13Z</time>
      </trkpt>
      <trkpt lat="44.87773" lon="3.50121">
        <ele>1113.34</ele>
        <time>2013-05-09T12:17:19Z</time>
      </trkpt>
      <trkpt lat="44.87769" lon="3.50117">
        <ele>1113.82</ele>
        <time>2013-05-09T12:17:24Z</time>
      </trkpt>
      <trkpt lat="44.87759" lon="3.50113">
        <ele>1115.75</ele>
        <time>2013-05-09T12:17:36Z</time>
      </trkpt>
      <trkpt lat="44.87749" lon="3.5011">
        <ele>1116.71</ele>
        <time>2013-05-09T12:17:46Z</time>
      </trkpt>
      <trkpt lat="44.87742" lon="3.5011">
        <ele>1117.19</ele>
        <time>2013-05-09T12:17:52Z</time>
      </trkpt>
      <trkpt lat="44.87731" lon="3.50116">
        <ele>1118.63</ele>
        <time>2013-05-09T12:18:05Z</time>
      </trkpt>
      <trkpt lat="44.87729" lon="3.50117">
        <ele>1119.11</ele>
        <time>2013-05-09T12:18:07Z</time>
      </trkpt>
      <trkpt lat="44.87727" lon="3.50119">
        <ele>1120.07</ele>
        <time>2013-05-09T12:18:10Z</time>
      </trkpt>
      <trkpt lat="44.87716" lon="3.50136">
        <ele>1121.52</ele>
        <time>2013-05-09T12:18:26Z</time>
      </trkpt>
      <trkpt lat="44.87703" lon="3.50147">
        <ele>1121.52</ele>
        <time>2013-05-09T12:18:40Z</time>
      </trkpt>
      <trkpt lat="44.87701" lon="3.50148">
        <ele>1122</ele>
        <time>2013-05-09T12:18:42Z</time>
      </trkpt>
      <trkpt lat="44.87686" lon="3.50158">
        <ele>1122.96</ele>
        <time>2013-05-09T12:18:56Z</time>
      </trkpt>
      <trkpt lat="44.87677" lon="3.50168">
        <ele>1122.48</ele>
        <time>2013-05-09T12:19:09Z</time>
      </trkpt>
      <trkpt lat="44.87677" lon="3.50168">
        <ele>1122.96</ele>
        <time>2013-05-09T12:19:46Z</time>
      </trkpt>
      <trkpt lat="44.87677" lon="3.50168">
        <ele>1122.96</ele>
        <time>2013-05-09T12:20:20Z</time>
      </trkpt>
      <trkpt lat="44.87677" lon="3.50168">
        <ele>1123.44</ele>
        <time>2013-05-09T12:20:48Z</time>
      </trkpt>
      <trkpt lat="44.87674" lon="3.5017">
        <ele>1124.4</ele>
        <time>2013-05-09T12:20:51Z</time>
      </trkpt>
      <trkpt lat="44.87659" lon="3.50178">
        <ele>1124.88</ele>
        <time>2013-05-09T12:21:06Z</time>
      </trkpt>
      <trkpt lat="44.87644" lon="3.50185">
        <ele>1125.84</ele>
        <time>2013-05-09T12:21:20Z</time>
      </trkpt>
      <trkpt lat="44.87626" lon="3.50191">
        <ele>1127.28</ele>
        <time>2013-05-09T12:21:36Z</time>
      </trkpt>
      <trkpt lat="44.87611" lon="3.50196">
        <ele>1128.24</ele>
        <time>2013-05-09T12:21:49Z</time>
      </trkpt>
      <trkpt lat="44.87598" lon="3.50203">
        <ele>1129.69</ele>
        <time>2013-05-09T12:22:01Z</time>
      </trkpt>
      <trkpt lat="44.87588" lon="3.50213">
        <ele>1131.61</ele>
        <time>2013-05-09T12:22:14Z</time>
      </trkpt>
      <trkpt lat="44.87578" lon="3.50222">
        <ele>1133.53</ele>
        <time>2013-05-09T12:22:27Z</time>
      </trkpt>
      <trkpt lat="44.87571" lon="3.50229">
        <ele>1134.49</ele>
        <time>2013-05-09T12:22:34Z</time>
      </trkpt>
      <trkpt lat="44.8757" lon="3.50231">
        <ele>1134.97</ele>
        <time>2013-05-09T12:22:36Z</time>
      </trkpt>
      <trkpt lat="44.8756" lon="3.50241">
        <ele>1137.38</ele>
        <time>2013-05-09T12:22:50Z</time>
      </trkpt>
      <trkpt lat="44.8756" lon="3.50242">
        <ele>1137.86</ele>
        <time>2013-05-09T12:22:52Z</time>
      </trkpt>
      <trkpt lat="44.87558" lon="3.50243">
        <ele>1137.86</ele>
        <time>2013-05-09T12:22:54Z</time>
      </trkpt>
      <trkpt lat="44.87551" lon="3.50248">
        <ele>1138.82</ele>
        <time>2013-05-09T12:23:03Z</time>
      </trkpt>
      <trkpt lat="44.87542" lon="3.50252">
        <ele>1140.74</ele>
        <time>2013-05-09T12:23:16Z</time>
      </trkpt>
      <trkpt lat="44.87538" lon="3.50255">
        <ele>1142.18</ele>
        <time>2013-05-09T12:23:21Z</time>
      </trkpt>
      <trkpt lat="44.8753" lon="3.50262">
        <ele>1143.14</ele>
        <time>2013-05-09T12:23:32Z</time>
      </trkpt>
      <trkpt lat="44.87528" lon="3.50264">
        <ele>1143.63</ele>
        <time>2013-05-09T12:23:35Z</time>
      </trkpt>
      <trkpt lat="44.87522" lon="3.50266">
        <ele>1147.47</ele>
        <time>2013-05-09T12:23:43Z</time>
      </trkpt>
      <trkpt lat="44.87522" lon="3.50266">
        <ele>1146.03</ele>
        <time>2013-05-09T12:23:44Z</time>
      </trkpt>
      <trkpt lat="44.87512" lon="3.5027">
        <ele>1146.99</ele>
        <time>2013-05-09T12:23:57Z</time>
      </trkpt>
      <trkpt lat="44.87503" lon="3.50273">
        <ele>1148.43</ele>
        <time>2013-05-09T12:24:07Z</time>
      </trkpt>
      <trkpt lat="44.87492" lon="3.50274">
        <ele>1149.87</ele>
        <time>2013-05-09T12:24:19Z</time>
      </trkpt>
      <trkpt lat="44.87488" lon="3.50275">
        <ele>1150.84</ele>
        <time>2013-05-09T12:24:25Z</time>
      </trkpt>
      <trkpt lat="44.87486" lon="3.50276">
        <ele>1150.84</ele>
        <time>2013-05-09T12:24:27Z</time>
      </trkpt>
      <trkpt lat="44.87482" lon="3.50277">
        <ele>1151.32</ele>
        <time>2013-05-09T12:24:31Z</time>
      </trkpt>
      <trkpt lat="44.8748" lon="3.50279">
        <ele>1151.8</ele>
        <time>2013-05-09T12:24:34Z</time>
      </trkpt>
      <trkpt lat="44.87477" lon="3.50282">
        <ele>1152.28</ele>
        <time>2013-05-09T12:24:38Z</time>
      </trkpt>
      <trkpt lat="44.87469" lon="3.50288">
        <ele>1154.2</ele>
        <time>2013-05-09T12:24:49Z</time>
      </trkpt>
      <trkpt lat="44.87459" lon="3.50293">
        <ele>1155.64</ele>
        <time>2013-05-09T12:25:03Z</time>
      </trkpt>
      <trkpt lat="44.87449" lon="3.50293">
        <ele>1157.56</ele>
        <time>2013-05-09T12:25:16Z</time>
      </trkpt>
      <trkpt lat="44.87448" lon="3.50293">
        <ele>1157.56</ele>
        <time>2013-05-09T12:25:33Z</time>
      </trkpt>
      <trkpt lat="44.87448" lon="3.50293">
        <ele>1157.08</ele>
        <time>2013-05-09T12:25:55Z</time>
      </trkpt>
      <trkpt lat="44.87448" lon="3.50293">
        <ele>1157.08</ele>
        <time>2013-05-09T12:26:31Z</time>
      </trkpt>
      <trkpt lat="44.87448" lon="3.50293">
        <ele>1158.05</ele>
        <time>2013-05-09T12:26:56Z</time>
      </trkpt>
      <trkpt lat="44.87448" lon="3.50293">
        <ele>1158.05</ele>
        <time>2013-05-09T12:27:23Z</time>
      </trkpt>
      <trkpt lat="44.87447" lon="3.50295">
        <ele>1158.05</ele>
        <time>2013-05-09T12:27:35Z</time>
      </trkpt>
      <trkpt lat="44.87447" lon="3.50295">
        <ele>1157.56</ele>
        <time>2013-05-09T12:27:52Z</time>
      </trkpt>
      <trkpt lat="44.87446" lon="3.50295">
        <ele>1157.56</ele>
        <time>2013-05-09T12:28:25Z</time>
      </trkpt>
      <trkpt lat="44.87446" lon="3.50295">
        <ele>1158.05</ele>
        <time>2013-05-09T12:28:52Z</time>
      </trkpt>
      <trkpt lat="44.87446" lon="3.50294">
        <ele>1158.05</ele>
        <time>2013-05-09T12:29:03Z</time>
      </trkpt>
      <trkpt lat="44.87441" lon="3.50301">
        <ele>1159.01</ele>
        <time>2013-05-09T12:29:14Z</time>
      </trkpt>
      <trkpt lat="44.87439" lon="3.50304">
        <ele>1159.49</ele>
        <time>2013-05-09T12:29:25Z</time>
      </trkpt>
      <trkpt lat="44.87432" lon="3.5031">
        <ele>1159.97</ele>
        <time>2013-05-09T12:29:35Z</time>
      </trkpt>
      <trkpt lat="44.87427" lon="3.50311">
        <ele>1160.93</ele>
        <time>2013-05-09T12:29:46Z</time>
      </trkpt>
      <trkpt lat="44.87424" lon="3.50311">
        <ele>1161.41</ele>
        <time>2013-05-09T12:29:52Z</time>
      </trkpt>
      <trkpt lat="44.87414" lon="3.5031">
        <ele>1162.37</ele>
        <time>2013-05-09T12:30:05Z</time>
      </trkpt>
      <trkpt lat="44.87405" lon="3.50311">
        <ele>1163.33</ele>
        <time>2013-05-09T12:30:19Z</time>
      </trkpt>
      <trkpt lat="44.87401" lon="3.5031">
        <ele>1164.29</ele>
        <time>2013-05-09T12:30:24Z</time>
      </trkpt>
      <trkpt lat="44.87392" lon="3.50313">
        <ele>1165.74</ele>
        <time>2013-05-09T12:30:34Z</time>
      </trkpt>
      <trkpt lat="44.8739" lon="3.50314">
        <ele>1167.18</ele>
        <time>2013-05-09T12:30:47Z</time>
      </trkpt>
      <trkpt lat="44.8738" lon="3.50314">
        <ele>1168.14</ele>
        <time>2013-05-09T12:31:02Z</time>
      </trkpt>
      <trkpt lat="44.87373" lon="3.50315">
        <ele>1170.06</ele>
        <time>2013-05-09T12:31:15Z</time>
      </trkpt>
      <trkpt lat="44.87364" lon="3.50319">
        <ele>1171.02</ele>
        <time>2013-05-09T12:31:28Z</time>
      </trkpt>
      <trkpt lat="44.8736" lon="3.50322">
        <ele>1171.5</ele>
        <time>2013-05-09T12:31:38Z</time>
      </trkpt>
      <trkpt lat="44.87357" lon="3.5032">
        <ele>1171.98</ele>
        <time>2013-05-09T12:31:50Z</time>
      </trkpt>
      <trkpt lat="44.87356" lon="3.5032">
        <ele>1171.98</ele>
        <time>2013-05-09T12:32:15Z</time>
      </trkpt>
      <trkpt lat="44.87356" lon="3.5032">
        <ele>1171.98</ele>
        <time>2013-05-09T12:32:38Z</time>
      </trkpt>
      <trkpt lat="44.87356" lon="3.50319">
        <ele>1171.98</ele>
        <time>2013-05-09T12:32:57Z</time>
      </trkpt>
      <trkpt lat="44.87356" lon="3.50318">
        <ele>1171.98</ele>
        <time>2013-05-09T12:33:26Z</time>
      </trkpt>
      <trkpt lat="44.87356" lon="3.50318">
        <ele>1171.5</ele>
        <time>2013-05-09T12:33:56Z</time>
      </trkpt>
      <trkpt lat="44.87356" lon="3.50318">
        <ele>1171.5</ele>
        <time>2013-05-09T12:34:26Z</time>
      </trkpt>
      <trkpt lat="44.87356" lon="3.50318">
        <ele>1171.98</ele>
        <time>2013-05-09T12:34:58Z</time>
      </trkpt>
      <trkpt lat="44.87356" lon="3.50318">
        <ele>1171.98</ele>
        <time>2013-05-09T12:35:29Z</time>
      </trkpt>
      <trkpt lat="44.87356" lon="3.50318">
        <ele>1171.98</ele>
        <time>2013-05-09T12:35:59Z</time>
      </trkpt>
      <trkpt lat="44.87356" lon="3.50318">
        <ele>1171.98</ele>
        <time>2013-05-09T12:36:35Z</time>
      </trkpt>
      <trkpt lat="44.87355" lon="3.50317">
        <ele>1171.98</ele>
        <time>2013-05-09T12:37:03Z</time>
      </trkpt>
      <trkpt lat="44.87355" lon="3.50318">
        <ele>1172.95</ele>
        <time>2013-05-09T12:37:32Z</time>
      </trkpt>
      <trkpt lat="44.87352" lon="3.50323">
        <ele>1173.43</ele>
        <time>2013-05-09T12:37:40Z</time>
      </trkpt>
      <trkpt lat="44.8734" lon="3.50332">
        <ele>1174.87</ele>
        <time>2013-05-09T12:37:55Z</time>
      </trkpt>
      <trkpt lat="44.87338" lon="3.50333">
        <ele>1174.87</ele>
        <time>2013-05-09T12:38:09Z</time>
      </trkpt>
      <trkpt lat="44.87338" lon="3.50333">
        <ele>1174.87</ele>
        <time>2013-05-09T12:38:21Z</time>
      </trkpt>
      <trkpt lat="44.87338" lon="3.50333">
        <ele>1175.35</ele>
        <time>2013-05-09T12:38:43Z</time>
      </trkpt>
      <trkpt lat="44.87338" lon="3.50333">
        <ele>1175.35</ele>
        <time>2013-05-09T12:39:06Z</time>
      </trkpt>
      <trkpt lat="44.87338" lon="3.50333">
        <ele>1174.87</ele>
        <time>2013-05-09T12:39:28Z</time>
      </trkpt>
      <trkpt lat="44.87338" lon="3.50333">
        <ele>1175.83</ele>
        <time>2013-05-09T12:39:48Z</time>
      </trkpt>
      <trkpt lat="44.87337" lon="3.50334">
        <ele>1175.35</ele>
        <time>2013-05-09T12:39:57Z</time>
      </trkpt>
      <trkpt lat="44.87336" lon="3.50335">
        <ele>1176.31</ele>
        <time>2013-05-09T12:40:18Z</time>
      </trkpt>
      <trkpt lat="44.87315" lon="3.50342">
        <ele>1177.75</ele>
        <time>2013-05-09T12:40:34Z</time>
      </trkpt>
      <trkpt lat="44.87314" lon="3.50343">
        <ele>1177.75</ele>
        <time>2013-05-09T12:40:35Z</time>
      </trkpt>
      <trkpt lat="44.873" lon="3.5035">
        <ele>1179.67</ele>
        <time>2013-05-09T12:40:47Z</time>
      </trkpt>
      <trkpt lat="44.87291" lon="3.50352">
        <ele>1180.16</ele>
        <time>2013-05-09T12:40:54Z</time>
      </trkpt>
      <trkpt lat="44.87286" lon="3.50353">
        <ele>1180.64</ele>
        <time>2013-05-09T12:40:57Z</time>
      </trkpt>
      <trkpt lat="44.87284" lon="3.50354">
        <ele>1180.16</ele>
        <time>2013-05-09T12:40:59Z</time>
      </trkpt>
      <trkpt lat="44.87282" lon="3.50355">
        <ele>1180.64</ele>
        <time>2013-05-09T12:41:01Z</time>
      </trkpt>
      <trkpt lat="44.87273" lon="3.50356">
        <ele>1181.12</ele>
        <time>2013-05-09T12:41:09Z</time>
      </trkpt>
      <trkpt lat="44.87269" lon="3.50358">
        <ele>1182.08</ele>
        <time>2013-05-09T12:41:13Z</time>
      </trkpt>
      <trkpt lat="44.87262" lon="3.50358">
        <ele>1182.08</ele>
        <time>2013-05-09T12:41:18Z</time>
      </trkpt>
      <trkpt lat="44.87254" lon="3.50362">
        <ele>1183.52</ele>
        <time>2013-05-09T12:41:25Z</time>
      </trkpt>
      <trkpt lat="44.87248" lon="3.50363">
        <ele>1183.52</ele>
        <time>2013-05-09T12:41:30Z</time>
      </trkpt>
      <trkpt lat="44.87232" lon="3.50365">
        <ele>1185.44</ele>
        <time>2013-05-09T12:41:42Z</time>
      </trkpt>
      <trkpt lat="44.87217" lon="3.50367">
        <ele>1185.92</ele>
        <time>2013-05-09T12:41:55Z</time>
      </trkpt>
      <trkpt lat="44.87201" lon="3.5037">
        <ele>1186.88</ele>
        <time>2013-05-09T12:42:06Z</time>
      </trkpt>
      <trkpt lat="44.87186" lon="3.50374">
        <ele>1188.33</ele>
        <time>2013-05-09T12:42:18Z</time>
      </trkpt>
      <trkpt lat="44.87184" lon="3.50376">
        <ele>1188.33</ele>
        <time>2013-05-09T12:42:20Z</time>
      </trkpt>
      <trkpt lat="44.87166" lon="3.50384">
        <ele>1190.25</ele>
        <time>2013-05-09T12:42:35Z</time>
      </trkpt>
      <trkpt lat="44.87147" lon="3.50392">
        <ele>1191.69</ele>
        <time>2013-05-09T12:42:49Z</time>
      </trkpt>
      <trkpt lat="44.87135" lon="3.50394">
        <ele>1192.17</ele>
        <time>2013-05-09T12:42:58Z</time>
      </trkpt>
      <trkpt lat="44.87125" lon="3.504">
        <ele>1193.61</ele>
        <time>2013-05-09T12:43:08Z</time>
      </trkpt>
      <trkpt lat="44.87122" lon="3.50402">
        <ele>1193.61</ele>
        <time>2013-05-09T12:43:10Z</time>
      </trkpt>
      <trkpt lat="44.87114" lon="3.50409">
        <ele>1194.58</ele>
        <time>2013-05-09T12:43:19Z</time>
      </trkpt>
      <trkpt lat="44.8711" lon="3.50411">
        <ele>1194.58</ele>
        <time>2013-05-09T12:43:22Z</time>
      </trkpt>
      <trkpt lat="44.87101" lon="3.50415">
        <ele>1196.02</ele>
        <time>2013-05-09T12:43:35Z</time>
      </trkpt>
      <trkpt lat="44.87098" lon="3.50416">
        <ele>1196.02</ele>
        <time>2013-05-09T12:43:37Z</time>
      </trkpt>
      <trkpt lat="44.87085" lon="3.5042">
        <ele>1196.5</ele>
        <time>2013-05-09T12:43:48Z</time>
      </trkpt>
      <trkpt lat="44.8707" lon="3.50426">
        <ele>1197.46</ele>
        <time>2013-05-09T12:44:02Z</time>
      </trkpt>
      <trkpt lat="44.87052" lon="3.50436">
        <ele>1198.42</ele>
        <time>2013-05-09T12:44:16Z</time>
      </trkpt>
      <trkpt lat="44.87044" lon="3.50439">
        <ele>1198.42</ele>
        <time>2013-05-09T12:44:26Z</time>
      </trkpt>
      <trkpt lat="44.87036" lon="3.50445">
        <ele>1198.42</ele>
        <time>2013-05-09T12:44:33Z</time>
      </trkpt>
      <trkpt lat="44.87034" lon="3.50449">
        <ele>1198.9</ele>
        <time>2013-05-09T12:44:37Z</time>
      </trkpt>
      <trkpt lat="44.8703" lon="3.5045">
        <ele>1198.9</ele>
        <time>2013-05-09T12:44:40Z</time>
      </trkpt>
      <trkpt lat="44.87022" lon="3.50453">
        <ele>1198.9</ele>
        <time>2013-05-09T12:44:47Z</time>
      </trkpt>
      <trkpt lat="44.87019" lon="3.50453">
        <ele>1198.9</ele>
        <time>2013-05-09T12:44:50Z</time>
      </trkpt>
      <trkpt lat="44.87005" lon="3.50453">
        <ele>1199.38</ele>
        <time>2013-05-09T12:45:00Z</time>
      </trkpt>
      <trkpt lat="44.86999" lon="3.50451">
        <ele>1199.86</ele>
        <time>2013-05-09T12:45:06Z</time>
      </trkpt>
      <trkpt lat="44.8699" lon="3.50452">
        <ele>1200.34</ele>
        <time>2013-05-09T12:45:13Z</time>
      </trkpt>
      <trkpt lat="44.86972" lon="3.50447">
        <ele>1200.34</ele>
        <time>2013-05-09T12:45:27Z</time>
      </trkpt>
      <trkpt lat="44.86954" lon="3.50443">
        <ele>1200.82</ele>
        <time>2013-05-09T12:45:42Z</time>
      </trkpt>
      <trkpt lat="44.86936" lon="3.50443">
        <ele>1200.34</ele>
        <time>2013-05-09T12:45:57Z</time>
      </trkpt>
      <trkpt lat="44.86922" lon="3.50446">
        <ele>1200.82</ele>
        <time>2013-05-09T12:46:08Z</time>
      </trkpt>
      <trkpt lat="44.86915" lon="3.50452">
        <ele>1200.34</ele>
        <time>2013-05-09T12:46:14Z</time>
      </trkpt>
      <trkpt lat="44.8691" lon="3.50457">
        <ele>1200.82</ele>
        <time>2013-05-09T12:46:25Z</time>
      </trkpt>
      <trkpt lat="44.86903" lon="3.50467">
        <ele>1200.82</ele>
        <time>2013-05-09T12:46:32Z</time>
      </trkpt>
      <trkpt lat="44.86891" lon="3.50478">
        <ele>1200.82</ele>
        <time>2013-05-09T12:46:45Z</time>
      </trkpt>
      <trkpt lat="44.86885" lon="3.50477">
        <ele>1201.3</ele>
        <time>2013-05-09T12:46:50Z</time>
      </trkpt>
      <trkpt lat="44.86881" lon="3.50469">
        <ele>1200.82</ele>
        <time>2013-05-09T12:46:57Z</time>
      </trkpt>
      <trkpt lat="44.86875" lon="3.5046">
        <ele>1200.82</ele>
        <time>2013-05-09T12:47:04Z</time>
      </trkpt>
      <trkpt lat="44.8687" lon="3.50454">
        <ele>1201.3</ele>
        <time>2013-05-09T12:47:11Z</time>
      </trkpt>
      <trkpt lat="44.8686" lon="3.50434">
        <ele>1200.82</ele>
        <time>2013-05-09T12:47:25Z</time>
      </trkpt>
      <trkpt lat="44.86851" lon="3.50419">
        <ele>1200.82</ele>
        <time>2013-05-09T12:47:35Z</time>
      </trkpt>
      <trkpt lat="44.86842" lon="3.50404">
        <ele>1199.86</ele>
        <time>2013-05-09T12:47:46Z</time>
      </trkpt>
      <trkpt lat="44.8684" lon="3.50399">
        <ele>1199.38</ele>
        <time>2013-05-09T12:47:49Z</time>
      </trkpt>
      <trkpt lat="44.86839" lon="3.50394">
        <ele>1198.9</ele>
        <time>2013-05-09T12:47:52Z</time>
      </trkpt>
      <trkpt lat="44.86838" lon="3.50374">
        <ele>1197.94</ele>
        <time>2013-05-09T12:48:02Z</time>
      </trkpt>
      <trkpt lat="44.86834" lon="3.50357">
        <ele>1196.5</ele>
        <time>2013-05-09T12:48:13Z</time>
      </trkpt>
      <trkpt lat="44.86828" lon="3.50344">
        <ele>1196.5</ele>
        <time>2013-05-09T12:48:21Z</time>
      </trkpt>
      <trkpt lat="44.86828" lon="3.50341">
        <ele>1196.5</ele>
        <time>2013-05-09T12:48:23Z</time>
      </trkpt>
      <trkpt lat="44.86826" lon="3.50333">
        <ele>1195.06</ele>
        <time>2013-05-09T12:48:29Z</time>
      </trkpt>
      <trkpt lat="44.86819" lon="3.50311">
        <ele>1193.13</ele>
        <time>2013-05-09T12:48:42Z</time>
      </trkpt>
      <trkpt lat="44.86817" lon="3.50304">
        <ele>1193.13</ele>
        <time>2013-05-09T12:48:45Z</time>
      </trkpt>
      <trkpt lat="44.86811" lon="3.50284">
        <ele>1191.69</ele>
        <time>2013-05-09T12:48:57Z</time>
      </trkpt>
      <trkpt lat="44.8681" lon="3.5028">
        <ele>1191.21</ele>
        <time>2013-05-09T12:48:59Z</time>
      </trkpt>
      <trkpt lat="44.86805" lon="3.5027">
        <ele>1190.73</ele>
        <time>2013-05-09T12:49:06Z</time>
      </trkpt>
      <trkpt lat="44.86797" lon="3.50249">
        <ele>1188.33</ele>
        <time>2013-05-09T12:49:19Z</time>
      </trkpt>
      <trkpt lat="44.86796" lon="3.50247">
        <ele>1188.33</ele>
        <time>2013-05-09T12:49:21Z</time>
      </trkpt>
      <trkpt lat="44.86792" lon="3.50239">
        <ele>1187.85</ele>
        <time>2013-05-09T12:49:27Z</time>
      </trkpt>
      <trkpt lat="44.86785" lon="3.50216">
        <ele>1186.88</ele>
        <time>2013-05-09T12:49:39Z</time>
      </trkpt>
      <trkpt lat="44.86774" lon="3.50202">
        <ele>1185.44</ele>
        <time>2013-05-09T12:49:51Z</time>
      </trkpt>
      <trkpt lat="44.8677" lon="3.50198">
        <ele>1184.96</ele>
        <time>2013-05-09T12:49:55Z</time>
      </trkpt>
      <trkpt lat="44.86759" lon="3.5018">
        <ele>1183.52</ele>
        <time>2013-05-09T12:50:07Z</time>
      </trkpt>
      <trkpt lat="44.86751" lon="3.50177">
        <ele>1183.04</ele>
        <time>2013-05-09T12:50:17Z</time>
      </trkpt>
      <trkpt lat="44.86746" lon="3.50172">
        <ele>1182.56</ele>
        <time>2013-05-09T12:50:22Z</time>
      </trkpt>
      <trkpt lat="44.86731" lon="3.50162">
        <ele>1181.6</ele>
        <time>2013-05-09T12:50:37Z</time>
      </trkpt>
      <trkpt lat="44.86726" lon="3.50152">
        <ele>1181.12</ele>
        <time>2013-05-09T12:50:43Z</time>
      </trkpt>
      <trkpt lat="44.86714" lon="3.50133">
        <ele>1180.16</ele>
        <time>2013-05-09T12:50:58Z</time>
      </trkpt>
      <trkpt lat="44.86713" lon="3.5013">
        <ele>1180.16</ele>
        <time>2013-05-09T12:51:00Z</time>
      </trkpt>
      <trkpt lat="44.8671" lon="3.50126">
        <ele>1179.19</ele>
        <time>2013-05-09T12:51:04Z</time>
      </trkpt>
      <trkpt lat="44.86705" lon="3.50117">
        <ele>1178.71</ele>
        <time>2013-05-09T12:51:10Z</time>
      </trkpt>
      <trkpt lat="44.86703" lon="3.50114">
        <ele>1179.19</ele>
        <time>2013-05-09T12:51:12Z</time>
      </trkpt>
      <trkpt lat="44.86695" lon="3.50094">
        <ele>1178.23</ele>
        <time>2013-05-09T12:51:23Z</time>
      </trkpt>
      <trkpt lat="44.86687" lon="3.50073">
        <ele>1177.27</ele>
        <time>2013-05-09T12:51:38Z</time>
      </trkpt>
      <trkpt lat="44.86687" lon="3.50071">
        <ele>1177.27</ele>
        <time>2013-05-09T12:51:39Z</time>
      </trkpt>
      <trkpt lat="44.86685" lon="3.50061">
        <ele>1177.27</ele>
        <time>2013-05-09T12:51:45Z</time>
      </trkpt>
      <trkpt lat="44.86677" lon="3.50041">
        <ele>1177.27</ele>
        <time>2013-05-09T12:51:57Z</time>
      </trkpt>
      <trkpt lat="44.86671" lon="3.50019">
        <ele>1176.79</ele>
        <time>2013-05-09T12:52:10Z</time>
      </trkpt>
      <trkpt lat="44.86667" lon="3.50009">
        <ele>1176.79</ele>
        <time>2013-05-09T12:52:16Z</time>
      </trkpt>
      <trkpt lat="44.86663" lon="3.49986">
        <ele>1176.79</ele>
        <time>2013-05-09T12:52:30Z</time>
      </trkpt>
      <trkpt lat="44.86656" lon="3.49965">
        <ele>1175.83</ele>
        <time>2013-05-09T12:52:43Z</time>
      </trkpt>
      <trkpt lat="44.86654" lon="3.49961">
        <ele>1175.83</ele>
        <time>2013-05-09T12:52:45Z</time>
      </trkpt>
      <trkpt lat="44.86648" lon="3.49941">
        <ele>1175.35</ele>
        <time>2013-05-09T12:52:57Z</time>
      </trkpt>
      <trkpt lat="44.86637" lon="3.49921">
        <ele>1174.87</ele>
        <time>2013-05-09T12:53:11Z</time>
      </trkpt>
      <trkpt lat="44.86628" lon="3.49899">
        <ele>1173.91</ele>
        <time>2013-05-09T12:53:26Z</time>
      </trkpt>
      <trkpt lat="44.86616" lon="3.49879">
        <ele>1172.95</ele>
        <time>2013-05-09T12:53:39Z</time>
      </trkpt>
      <trkpt lat="44.86604" lon="3.49864">
        <ele>1172.47</ele>
        <time>2013-05-09T12:53:52Z</time>
      </trkpt>
      <trkpt lat="44.86595" lon="3.49851">
        <ele>1171.98</ele>
        <time>2013-05-09T12:54:02Z</time>
      </trkpt>
      <trkpt lat="44.86593" lon="3.49848">
        <ele>1171.5</ele>
        <time>2013-05-09T12:54:04Z</time>
      </trkpt>
      <trkpt lat="44.86578" lon="3.49826">
        <ele>1170.54</ele>
        <time>2013-05-09T12:54:20Z</time>
      </trkpt>
      <trkpt lat="44.86575" lon="3.49822">
        <ele>1170.54</ele>
        <time>2013-05-09T12:54:29Z</time>
      </trkpt>
      <trkpt lat="44.86573" lon="3.49816">
        <ele>1170.06</ele>
        <time>2013-05-09T12:54:34Z</time>
      </trkpt>
      <trkpt lat="44.86563" lon="3.49798">
        <ele>1169.58</ele>
        <time>2013-05-09T12:54:47Z</time>
      </trkpt>
      <trkpt lat="44.86558" lon="3.49787">
        <ele>1168.62</ele>
        <time>2013-05-09T12:54:58Z</time>
      </trkpt>
      <trkpt lat="44.86558" lon="3.49787">
        <ele>1169.1</ele>
        <time>2013-05-09T12:55:08Z</time>
      </trkpt>
      <trkpt lat="44.86552" lon="3.49778">
        <ele>1168.62</ele>
        <time>2013-05-09T12:55:16Z</time>
      </trkpt>
      <trkpt lat="44.86539" lon="3.4976">
        <ele>1168.14</ele>
        <time>2013-05-09T12:55:30Z</time>
      </trkpt>
      <trkpt lat="44.86528" lon="3.49745">
        <ele>1167.18</ele>
        <time>2013-05-09T12:55:42Z</time>
      </trkpt>
      <trkpt lat="44.86522" lon="3.49738">
        <ele>1166.7</ele>
        <time>2013-05-09T12:55:47Z</time>
      </trkpt>
      <trkpt lat="44.86518" lon="3.49735">
        <ele>1165.26</ele>
        <time>2013-05-09T12:55:50Z</time>
      </trkpt>
      <trkpt lat="44.86504" lon="3.49716">
        <ele>1163.81</ele>
        <time>2013-05-09T12:56:06Z</time>
      </trkpt>
      <trkpt lat="44.86489" lon="3.49697">
        <ele>1160.45</ele>
        <time>2013-05-09T12:56:21Z</time>
      </trkpt>
      <trkpt lat="44.86488" lon="3.49695">
        <ele>1163.81</ele>
        <time>2013-05-09T12:56:22Z</time>
      </trkpt>
      <trkpt lat="44.86478" lon="3.4968">
        <ele>1163.81</ele>
        <time>2013-05-09T12:56:42Z</time>
      </trkpt>
      <trkpt lat="44.86477" lon="3.49679">
        <ele>1162.85</ele>
        <time>2013-05-09T12:56:49Z</time>
      </trkpt>
      <trkpt lat="44.86473" lon="3.49671">
        <ele>1162.37</ele>
        <time>2013-05-09T12:56:54Z</time>
      </trkpt>
      <trkpt lat="44.86458" lon="3.49644">
        <ele>1159.49</ele>
        <time>2013-05-09T12:57:12Z</time>
      </trkpt>
      <trkpt lat="44.8645" lon="3.49632">
        <ele>1159.01</ele>
        <time>2013-05-09T12:57:21Z</time>
      </trkpt>
      <trkpt lat="44.86438" lon="3.49606">
        <ele>1154.68</ele>
        <time>2013-05-09T12:57:39Z</time>
      </trkpt>
      <trkpt lat="44.86431" lon="3.49596">
        <ele>1154.68</ele>
        <time>2013-05-09T12:57:47Z</time>
      </trkpt>
      <trkpt lat="44.86428" lon="3.49589">
        <ele>1154.2</ele>
        <time>2013-05-09T12:57:53Z</time>
      </trkpt>
      <trkpt lat="44.86425" lon="3.49586">
        <ele>1153.72</ele>
        <time>2013-05-09T12:57:55Z</time>
      </trkpt>
      <trkpt lat="44.86413" lon="3.49573">
        <ele>1151.8</ele>
        <time>2013-05-09T12:58:07Z</time>
      </trkpt>
      <trkpt lat="44.86411" lon="3.49569">
        <ele>1150.84</ele>
        <time>2013-05-09T12:58:20Z</time>
      </trkpt>
      <trkpt lat="44.86411" lon="3.49566">
        <ele>1150.35</ele>
        <time>2013-05-09T12:58:34Z</time>
      </trkpt>
      <trkpt lat="44.86411" lon="3.49566">
        <ele>1154.68</ele>
        <time>2013-05-09T12:58:44Z</time>
      </trkpt>
      <trkpt lat="44.86411" lon="3.49566">
        <ele>1150.35</ele>
        <time>2013-05-09T12:58:45Z</time>
      </trkpt>
      <trkpt lat="44.86411" lon="3.49566">
        <ele>1149.87</ele>
        <time>2013-05-09T12:59:13Z</time>
      </trkpt>
      <trkpt lat="44.8641" lon="3.49566">
        <ele>1149.87</ele>
        <time>2013-05-09T12:59:26Z</time>
      </trkpt>
      <trkpt lat="44.86406" lon="3.4956">
        <ele>1149.39</ele>
        <time>2013-05-09T12:59:32Z</time>
      </trkpt>
      <trkpt lat="44.86391" lon="3.49546">
        <ele>1146.51</ele>
        <time>2013-05-09T12:59:48Z</time>
      </trkpt>
      <trkpt lat="44.8638" lon="3.49536">
        <ele>1144.59</ele>
        <time>2013-05-09T13:00:03Z</time>
      </trkpt>
      <trkpt lat="44.86366" lon="3.49527">
        <ele>1142.66</ele>
        <time>2013-05-09T13:00:16Z</time>
      </trkpt>
      <trkpt lat="44.86349" lon="3.49521">
        <ele>1140.74</ele>
        <time>2013-05-09T13:00:32Z</time>
      </trkpt>
      <trkpt lat="44.86346" lon="3.4952">
        <ele>1140.74</ele>
        <time>2013-05-09T13:00:34Z</time>
      </trkpt>
      <trkpt lat="44.86337" lon="3.49518">
        <ele>1139.78</ele>
        <time>2013-05-09T13:00:41Z</time>
      </trkpt>
      <trkpt lat="44.86316" lon="3.49517">
        <ele>1138.34</ele>
        <time>2013-05-09T13:01:00Z</time>
      </trkpt>
      <trkpt lat="44.86309" lon="3.49518">
        <ele>1137.86</ele>
        <time>2013-05-09T13:01:06Z</time>
      </trkpt>
      <trkpt lat="44.86304" lon="3.49521">
        <ele>1137.86</ele>
        <time>2013-05-09T13:01:11Z</time>
      </trkpt>
      <trkpt lat="44.86283" lon="3.49517">
        <ele>1136.42</ele>
        <time>2013-05-09T13:01:28Z</time>
      </trkpt>
      <trkpt lat="44.86274" lon="3.49512">
        <ele>1136.42</ele>
        <time>2013-05-09T13:01:38Z</time>
      </trkpt>
      <trkpt lat="44.86256" lon="3.49507">
        <ele>1135.94</ele>
        <time>2013-05-09T13:01:53Z</time>
      </trkpt>
      <trkpt lat="44.86241" lon="3.49499">
        <ele>1134.97</ele>
        <time>2013-05-09T13:02:06Z</time>
      </trkpt>
      <trkpt lat="44.86221" lon="3.49494">
        <ele>1134.97</ele>
        <time>2013-05-09T13:02:21Z</time>
      </trkpt>
      <trkpt lat="44.86214" lon="3.4949">
        <ele>1134.49</ele>
        <time>2013-05-09T13:02:27Z</time>
      </trkpt>
      <trkpt lat="44.86209" lon="3.49485">
        <ele>1134.01</ele>
        <time>2013-05-09T13:02:33Z</time>
      </trkpt>
      <trkpt lat="44.86195" lon="3.49478">
        <ele>1134.49</ele>
        <time>2013-05-09T13:02:48Z</time>
      </trkpt>
      <trkpt lat="44.86189" lon="3.49475">
        <ele>1135.94</ele>
        <time>2013-05-09T13:02:56Z</time>
      </trkpt>
      <trkpt lat="44.86185" lon="3.49472">
        <ele>1135.45</ele>
        <time>2013-05-09T13:03:03Z</time>
      </trkpt>
      <trkpt lat="44.86181" lon="3.49472">
        <ele>1136.42</ele>
        <time>2013-05-09T13:03:06Z</time>
      </trkpt>
      <trkpt lat="44.86164" lon="3.49468">
        <ele>1137.38</ele>
        <time>2013-05-09T13:03:21Z</time>
      </trkpt>
      <trkpt lat="44.86154" lon="3.49474">
        <ele>1138.82</ele>
        <time>2013-05-09T13:03:33Z</time>
      </trkpt>
      <trkpt lat="44.86142" lon="3.49476">
        <ele>1139.78</ele>
        <time>2013-05-09T13:03:48Z</time>
      </trkpt>
      <trkpt lat="44.86132" lon="3.49475">
        <ele>1141.22</ele>
        <time>2013-05-09T13:04:00Z</time>
      </trkpt>
      <trkpt lat="44.86127" lon="3.49474">
        <ele>1141.7</ele>
        <time>2013-05-09T13:04:05Z</time>
      </trkpt>
      <trkpt lat="44.86121" lon="3.49472">
        <ele>1142.18</ele>
        <time>2013-05-09T13:04:11Z</time>
      </trkpt>
      <trkpt lat="44.86111" lon="3.49469">
        <ele>1143.63</ele>
        <time>2013-05-09T13:04:18Z</time>
      </trkpt>
      <trkpt lat="44.86094" lon="3.49462">
        <ele>1144.59</ele>
        <time>2013-05-09T13:04:33Z</time>
      </trkpt>
      <trkpt lat="44.8609" lon="3.49459">
        <ele>1145.55</ele>
        <time>2013-05-09T13:04:39Z</time>
      </trkpt>
      <trkpt lat="44.86086" lon="3.49457">
        <ele>1146.03</ele>
        <time>2013-05-09T13:04:42Z</time>
      </trkpt>
      <trkpt lat="44.86083" lon="3.49456">
        <ele>1146.03</ele>
        <time>2013-05-09T13:04:45Z</time>
      </trkpt>
      <trkpt lat="44.8608" lon="3.49455">
        <ele>1146.51</ele>
        <time>2013-05-09T13:04:48Z</time>
      </trkpt>
      <trkpt lat="44.86077" lon="3.49453">
        <ele>1146.99</ele>
        <time>2013-05-09T13:04:51Z</time>
      </trkpt>
      <trkpt lat="44.86069" lon="3.49448">
        <ele>1147.47</ele>
        <time>2013-05-09T13:04:59Z</time>
      </trkpt>
      <trkpt lat="44.86058" lon="3.49442">
        <ele>1149.39</ele>
        <time>2013-05-09T13:05:10Z</time>
      </trkpt>
      <trkpt lat="44.86045" lon="3.49434">
        <ele>1150.84</ele>
        <time>2013-05-09T13:05:25Z</time>
      </trkpt>
      <trkpt lat="44.86043" lon="3.49433">
        <ele>1151.32</ele>
        <time>2013-05-09T13:05:28Z</time>
      </trkpt>
      <trkpt lat="44.86039" lon="3.49432">
        <ele>1151.8</ele>
        <time>2013-05-09T13:05:32Z</time>
      </trkpt>
      <trkpt lat="44.86034" lon="3.49429">
        <ele>1152.28</ele>
        <time>2013-05-09T13:05:38Z</time>
      </trkpt>
      <trkpt lat="44.86032" lon="3.49429">
        <ele>1152.28</ele>
        <time>2013-05-09T13:05:40Z</time>
      </trkpt>
      <trkpt lat="44.86018" lon="3.49421">
        <ele>1154.2</ele>
        <time>2013-05-09T13:05:54Z</time>
      </trkpt>
      <trkpt lat="44.86004" lon="3.49413">
        <ele>1156.12</ele>
        <time>2013-05-09T13:06:08Z</time>
      </trkpt>
      <trkpt lat="44.86001" lon="3.4941">
        <ele>1156.6</ele>
        <time>2013-05-09T13:06:12Z</time>
      </trkpt>
      <trkpt lat="44.85999" lon="3.49408">
        <ele>1157.08</ele>
        <time>2013-05-09T13:06:14Z</time>
      </trkpt>
      <trkpt lat="44.85984" lon="3.494">
        <ele>1157.56</ele>
        <time>2013-05-09T13:06:29Z</time>
      </trkpt>
      <trkpt lat="44.85975" lon="3.49395">
        <ele>1158.05</ele>
        <time>2013-05-09T13:06:37Z</time>
      </trkpt>
      <trkpt lat="44.85958" lon="3.49385">
        <ele>1159.49</ele>
        <time>2013-05-09T13:06:54Z</time>
      </trkpt>
      <trkpt lat="44.85947" lon="3.49378">
        <ele>1159.49</ele>
        <time>2013-05-09T13:07:05Z</time>
      </trkpt>
      <trkpt lat="44.85931" lon="3.4937">
        <ele>1160.93</ele>
        <time>2013-05-09T13:07:20Z</time>
      </trkpt>
      <trkpt lat="44.85921" lon="3.49366">
        <ele>1161.89</ele>
        <time>2013-05-09T13:07:30Z</time>
      </trkpt>
      <trkpt lat="44.85914" lon="3.49366">
        <ele>1162.85</ele>
        <time>2013-05-09T13:07:37Z</time>
      </trkpt>
      <trkpt lat="44.85905" lon="3.49366">
        <ele>1163.33</ele>
        <time>2013-05-09T13:07:45Z</time>
      </trkpt>
      <trkpt lat="44.85882" lon="3.49364">
        <ele>1162.37</ele>
        <time>2013-05-09T13:08:04Z</time>
      </trkpt>
      <trkpt lat="44.8588" lon="3.49362">
        <ele>1165.74</ele>
        <time>2013-05-09T13:08:06Z</time>
      </trkpt>
      <trkpt lat="44.85879" lon="3.49362">
        <ele>1164.77</ele>
        <time>2013-05-09T13:08:07Z</time>
      </trkpt>
      <trkpt lat="44.85861" lon="3.49352">
        <ele>1166.22</ele>
        <time>2013-05-09T13:08:24Z</time>
      </trkpt>
      <trkpt lat="44.85854" lon="3.49344">
        <ele>1165.74</ele>
        <time>2013-05-09T13:08:33Z</time>
      </trkpt>
      <trkpt lat="44.85851" lon="3.49341">
        <ele>1165.74</ele>
        <time>2013-05-09T13:08:36Z</time>
      </trkpt>
      <trkpt lat="44.85844" lon="3.49331">
        <ele>1164.77</ele>
        <time>2013-05-09T13:08:44Z</time>
      </trkpt>
      <trkpt lat="44.85841" lon="3.49324">
        <ele>1165.26</ele>
        <time>2013-05-09T13:08:49Z</time>
      </trkpt>
      <trkpt lat="44.85828" lon="3.49309">
        <ele>1164.29</ele>
        <time>2013-05-09T13:09:04Z</time>
      </trkpt>
      <trkpt lat="44.8581" lon="3.49302">
        <ele>1163.81</ele>
        <time>2013-05-09T13:09:18Z</time>
      </trkpt>
      <trkpt lat="44.85798" lon="3.49303">
        <ele>1163.81</ele>
        <time>2013-05-09T13:09:28Z</time>
      </trkpt>
      <trkpt lat="44.85776" lon="3.49301">
        <ele>1162.85</ele>
        <time>2013-05-09T13:09:44Z</time>
      </trkpt>
      <trkpt lat="44.85761" lon="3.49305">
        <ele>1161.89</ele>
        <time>2013-05-09T13:09:59Z</time>
      </trkpt>
      <trkpt lat="44.85752" lon="3.49306">
        <ele>1161.89</ele>
        <time>2013-05-09T13:10:11Z</time>
      </trkpt>
      <trkpt lat="44.85748" lon="3.49308">
        <ele>1161.89</ele>
        <time>2013-05-09T13:10:15Z</time>
      </trkpt>
      <trkpt lat="44.85736" lon="3.49308">
        <ele>1162.37</ele>
        <time>2013-05-09T13:10:24Z</time>
      </trkpt>
      <trkpt lat="44.85717" lon="3.4931">
        <ele>1162.37</ele>
        <time>2013-05-09T13:10:39Z</time>
      </trkpt>
      <trkpt lat="44.85707" lon="3.49312">
        <ele>1162.37</ele>
        <time>2013-05-09T13:10:48Z</time>
      </trkpt>
      <trkpt lat="44.85698" lon="3.49319">
        <ele>1162.37</ele>
        <time>2013-05-09T13:10:56Z</time>
      </trkpt>
      <trkpt lat="44.85694" lon="3.49321">
        <ele>1161.89</ele>
        <time>2013-05-09T13:11:00Z</time>
      </trkpt>
      <trkpt lat="44.85688" lon="3.49326">
        <ele>1161.41</ele>
        <time>2013-05-09T13:11:06Z</time>
      </trkpt>
      <trkpt lat="44.85674" lon="3.49342">
        <ele>1162.37</ele>
        <time>2013-05-09T13:11:22Z</time>
      </trkpt>
      <trkpt lat="44.85662" lon="3.49355">
        <ele>1163.81</ele>
        <time>2013-05-09T13:11:37Z</time>
      </trkpt>
      <trkpt lat="44.85663" lon="3.49364">
        <ele>1164.77</ele>
        <time>2013-05-09T13:11:49Z</time>
      </trkpt>
      <trkpt lat="44.8567" lon="3.49378">
        <ele>1167.18</ele>
        <time>2013-05-09T13:12:04Z</time>
      </trkpt>
      <trkpt lat="44.85668" lon="3.49385">
        <ele>1167.18</ele>
        <time>2013-05-09T13:12:11Z</time>
      </trkpt>
      <trkpt lat="44.85664" lon="3.49403">
        <ele>1170.06</ele>
        <time>2013-05-09T13:12:25Z</time>
      </trkpt>
      <trkpt lat="44.85664" lon="3.49404">
        <ele>1170.06</ele>
        <time>2013-05-09T13:12:26Z</time>
      </trkpt>
      <trkpt lat="44.85664" lon="3.4943">
        <ele>1171.98</ele>
        <time>2013-05-09T13:12:44Z</time>
      </trkpt>
      <trkpt lat="44.85668" lon="3.49446">
        <ele>1172.95</ele>
        <time>2013-05-09T13:12:56Z</time>
      </trkpt>
      <trkpt lat="44.8567" lon="3.49454">
        <ele>1173.91</ele>
        <time>2013-05-09T13:13:03Z</time>
      </trkpt>
      <trkpt lat="44.8567" lon="3.4946">
        <ele>1174.87</ele>
        <time>2013-05-09T13:13:09Z</time>
      </trkpt>
      <trkpt lat="44.85667" lon="3.49467">
        <ele>1175.83</ele>
        <time>2013-05-09T13:13:15Z</time>
      </trkpt>
      <trkpt lat="44.85658" lon="3.49485">
        <ele>1177.75</ele>
        <time>2013-05-09T13:13:30Z</time>
      </trkpt>
      <trkpt lat="44.85654" lon="3.49495">
        <ele>1179.19</ele>
        <time>2013-05-09T13:13:37Z</time>
      </trkpt>
      <trkpt lat="44.85642" lon="3.49513">
        <ele>1181.12</ele>
        <time>2013-05-09T13:13:54Z</time>
      </trkpt>
      <trkpt lat="44.85625" lon="3.49521">
        <ele>1183.04</ele>
        <time>2013-05-09T13:14:11Z</time>
      </trkpt>
      <trkpt lat="44.85606" lon="3.49518">
        <ele>1185.44</ele>
        <time>2013-05-09T13:14:29Z</time>
      </trkpt>
      <trkpt lat="44.85591" lon="3.49517">
        <ele>1186.4</ele>
        <time>2013-05-09T13:14:45Z</time>
      </trkpt>
      <trkpt lat="44.85569" lon="3.49516">
        <ele>1185.92</ele>
        <time>2013-05-09T13:15:01Z</time>
      </trkpt>
      <trkpt lat="44.8555" lon="3.49518">
        <ele>1186.4</ele>
        <time>2013-05-09T13:15:17Z</time>
      </trkpt>
      <trkpt lat="44.85532" lon="3.4952">
        <ele>1185.92</ele>
        <time>2013-05-09T13:15:32Z</time>
      </trkpt>
      <trkpt lat="44.85511" lon="3.49522">
        <ele>1184.48</ele>
        <time>2013-05-09T13:15:49Z</time>
      </trkpt>
      <trkpt lat="44.85488" lon="3.49529">
        <ele>1182.56</ele>
        <time>2013-05-09T13:16:06Z</time>
      </trkpt>
      <trkpt lat="44.8547" lon="3.49532">
        <ele>1182.08</ele>
        <time>2013-05-09T13:16:21Z</time>
      </trkpt>
      <trkpt lat="44.85454" lon="3.49546">
        <ele>1181.12</ele>
        <time>2013-05-09T13:16:35Z</time>
      </trkpt>
      <trkpt lat="44.85439" lon="3.49557">
        <ele>1180.16</ele>
        <time>2013-05-09T13:16:49Z</time>
      </trkpt>
      <trkpt lat="44.85419" lon="3.49566">
        <ele>1180.16</ele>
        <time>2013-05-09T13:17:05Z</time>
      </trkpt>
      <trkpt lat="44.85413" lon="3.49569">
        <ele>1180.64</ele>
        <time>2013-05-09T13:17:10Z</time>
      </trkpt>
      <trkpt lat="44.85404" lon="3.49572">
        <ele>1180.16</ele>
        <time>2013-05-09T13:17:17Z</time>
      </trkpt>
      <trkpt lat="44.85385" lon="3.49581">
        <ele>1179.19</ele>
        <time>2013-05-09T13:17:33Z</time>
      </trkpt>
      <trkpt lat="44.85363" lon="3.49584">
        <ele>1179.19</ele>
        <time>2013-05-09T13:17:50Z</time>
      </trkpt>
      <trkpt lat="44.85345" lon="3.49577">
        <ele>1180.64</ele>
        <time>2013-05-09T13:18:06Z</time>
      </trkpt>
      <trkpt lat="44.85325" lon="3.49574">
        <ele>1181.6</ele>
        <time>2013-05-09T13:18:22Z</time>
      </trkpt>
      <trkpt lat="44.85305" lon="3.49576">
        <ele>1183.52</ele>
        <time>2013-05-09T13:18:38Z</time>
      </trkpt>
      <trkpt lat="44.85287" lon="3.49573">
        <ele>1185.44</ele>
        <time>2013-05-09T13:18:53Z</time>
      </trkpt>
      <trkpt lat="44.85268" lon="3.49567">
        <ele>1186.4</ele>
        <time>2013-05-09T13:19:08Z</time>
      </trkpt>
      <trkpt lat="44.8526" lon="3.49565">
        <ele>1188.33</ele>
        <time>2013-05-09T13:19:15Z</time>
      </trkpt>
      <trkpt lat="44.85253" lon="3.49565">
        <ele>1189.29</ele>
        <time>2013-05-09T13:19:21Z</time>
      </trkpt>
      <trkpt lat="44.85248" lon="3.49564">
        <ele>1186.88</ele>
        <time>2013-05-09T13:19:26Z</time>
      </trkpt>
      <trkpt lat="44.85229" lon="3.49566">
        <ele>1188.81</ele>
        <time>2013-05-09T13:19:42Z</time>
      </trkpt>
      <trkpt lat="44.85222" lon="3.49565">
        <ele>1193.13</ele>
        <time>2013-05-09T13:19:48Z</time>
      </trkpt>
      <trkpt lat="44.85221" lon="3.49565">
        <ele>1188.33</ele>
        <time>2013-05-09T13:19:49Z</time>
      </trkpt>
      <trkpt lat="44.8522" lon="3.49566">
        <ele>1185.44</ele>
        <time>2013-05-09T13:19:50Z</time>
      </trkpt>
      <trkpt lat="44.85219" lon="3.49566">
        <ele>1193.13</ele>
        <time>2013-05-09T13:19:51Z</time>
      </trkpt>
      <trkpt lat="44.85218" lon="3.49566">
        <ele>1189.29</ele>
        <time>2013-05-09T13:19:52Z</time>
      </trkpt>
      <trkpt lat="44.852" lon="3.4957">
        <ele>1189.29</ele>
        <time>2013-05-09T13:20:06Z</time>
      </trkpt>
      <trkpt lat="44.85181" lon="3.49576">
        <ele>1190.25</ele>
        <time>2013-05-09T13:20:23Z</time>
      </trkpt>
      <trkpt lat="44.85164" lon="3.49583">
        <ele>1194.09</ele>
        <time>2013-05-09T13:20:36Z</time>
      </trkpt>
      <trkpt lat="44.85163" lon="3.49584">
        <ele>1190.73</ele>
        <time>2013-05-09T13:20:37Z</time>
      </trkpt>
      <trkpt lat="44.85148" lon="3.49587">
        <ele>1190.25</ele>
        <time>2013-05-09T13:20:49Z</time>
      </trkpt>
      <trkpt lat="44.85131" lon="3.49592">
        <ele>1188.81</ele>
        <time>2013-05-09T13:21:03Z</time>
      </trkpt>
      <trkpt lat="44.85109" lon="3.49604">
        <ele>1187.85</ele>
        <time>2013-05-09T13:21:23Z</time>
      </trkpt>
      <trkpt lat="44.85109" lon="3.49604">
        <ele>1187.85</ele>
        <time>2013-05-09T13:22:07Z</time>
      </trkpt>
      <trkpt lat="44.85109" lon="3.49604">
        <ele>1187.85</ele>
        <time>2013-05-09T13:22:55Z</time>
      </trkpt>
      <trkpt lat="44.85109" lon="3.49604">
        <ele>1187.85</ele>
        <time>2013-05-09T13:23:43Z</time>
      </trkpt>
      <trkpt lat="44.85105" lon="3.49607">
        <ele>1186.4</ele>
        <time>2013-05-09T13:23:57Z</time>
      </trkpt>
      <trkpt lat="44.85094" lon="3.49621">
        <ele>1188.81</ele>
        <time>2013-05-09T13:24:08Z</time>
      </trkpt>
      <trkpt lat="44.85092" lon="3.49624">
        <ele>1189.77</ele>
        <time>2013-05-09T13:24:10Z</time>
      </trkpt>
      <trkpt lat="44.8509" lon="3.49627">
        <ele>1189.29</ele>
        <time>2013-05-09T13:24:13Z</time>
      </trkpt>
      <trkpt lat="44.85083" lon="3.49646">
        <ele>1189.77</ele>
        <time>2013-05-09T13:24:29Z</time>
      </trkpt>
      <trkpt lat="44.85083" lon="3.49646">
        <ele>1189.29</ele>
        <time>2013-05-09T13:24:33Z</time>
      </trkpt>
      <trkpt lat="44.85081" lon="3.49649">
        <ele>1189.29</ele>
        <time>2013-05-09T13:24:36Z</time>
      </trkpt>
      <trkpt lat="44.85075" lon="3.49658">
        <ele>1190.25</ele>
        <time>2013-05-09T13:24:44Z</time>
      </trkpt>
      <trkpt lat="44.85053" lon="3.4967">
        <ele>1190.25</ele>
        <time>2013-05-09T13:25:00Z</time>
      </trkpt>
      <trkpt lat="44.85036" lon="3.49669">
        <ele>1184.48</ele>
        <time>2013-05-09T13:25:13Z</time>
      </trkpt>
      <trkpt lat="44.85035" lon="3.49668">
        <ele>1191.21</ele>
        <time>2013-05-09T13:25:14Z</time>
      </trkpt>
      <trkpt lat="44.85019" lon="3.49663">
        <ele>1192.17</ele>
        <time>2013-05-09T13:25:27Z</time>
      </trkpt>
      <trkpt lat="44.84997" lon="3.49659">
        <ele>1192.17</ele>
        <time>2013-05-09T13:25:42Z</time>
      </trkpt>
      <trkpt lat="44.84987" lon="3.49666">
        <ele>1192.65</ele>
        <time>2013-05-09T13:25:49Z</time>
      </trkpt>
      <trkpt lat="44.84973" lon="3.49682">
        <ele>1195.06</ele>
        <time>2013-05-09T13:26:03Z</time>
      </trkpt>
      <trkpt lat="44.8496" lon="3.49695">
        <ele>1196.02</ele>
        <time>2013-05-09T13:26:15Z</time>
      </trkpt>
      <trkpt lat="44.84948" lon="3.49709">
        <ele>1197.46</ele>
        <time>2013-05-09T13:26:27Z</time>
      </trkpt>
      <trkpt lat="44.84935" lon="3.49725">
        <ele>1199.38</ele>
        <time>2013-05-09T13:26:40Z</time>
      </trkpt>
      <trkpt lat="44.84932" lon="3.49729">
        <ele>1200.34</ele>
        <time>2013-05-09T13:26:43Z</time>
      </trkpt>
      <trkpt lat="44.84923" lon="3.49734">
        <ele>1201.3</ele>
        <time>2013-05-09T13:26:52Z</time>
      </trkpt>
      <trkpt lat="44.84918" lon="3.49735">
        <ele>1202.75</ele>
        <time>2013-05-09T13:26:55Z</time>
      </trkpt>
      <trkpt lat="44.84901" lon="3.49734">
        <ele>1204.19</ele>
        <time>2013-05-09T13:27:09Z</time>
      </trkpt>
      <trkpt lat="44.84886" lon="3.49732">
        <ele>1206.11</ele>
        <time>2013-05-09T13:27:21Z</time>
      </trkpt>
      <trkpt lat="44.84868" lon="3.49732">
        <ele>1207.55</ele>
        <time>2013-05-09T13:27:35Z</time>
      </trkpt>
      <trkpt lat="44.84864" lon="3.49731">
        <ele>1209</ele>
        <time>2013-05-09T13:27:38Z</time>
      </trkpt>
      <trkpt lat="44.84849" lon="3.49717">
        <ele>1210.92</ele>
        <time>2013-05-09T13:27:53Z</time>
      </trkpt>
      <trkpt lat="44.8483" lon="3.49701">
        <ele>1211.4</ele>
        <time>2013-05-09T13:28:08Z</time>
      </trkpt>
      <trkpt lat="44.84824" lon="3.49692">
        <ele>1212.36</ele>
        <time>2013-05-09T13:28:14Z</time>
      </trkpt>
      <trkpt lat="44.8481" lon="3.49669">
        <ele>1211.4</ele>
        <time>2013-05-09T13:28:31Z</time>
      </trkpt>
      <trkpt lat="44.8481" lon="3.49668">
        <ele>1210.92</ele>
        <time>2013-05-09T13:28:50Z</time>
      </trkpt>
      <trkpt lat="44.84808" lon="3.49667">
        <ele>1211.88</ele>
        <time>2013-05-09T13:29:03Z</time>
      </trkpt>
      <trkpt lat="44.84786" lon="3.49666">
        <ele>1211.4</ele>
        <time>2013-05-09T13:29:18Z</time>
      </trkpt>
      <trkpt lat="44.84769" lon="3.49682">
        <ele>1211.4</ele>
        <time>2013-05-09T13:29:32Z</time>
      </trkpt>
      <trkpt lat="44.84766" lon="3.49684">
        <ele>1211.88</ele>
        <time>2013-05-09T13:29:34Z</time>
      </trkpt>
      <trkpt lat="44.84758" lon="3.49694">
        <ele>1211.4</ele>
        <time>2013-05-09T13:29:42Z</time>
      </trkpt>
      <trkpt lat="44.84748" lon="3.49702">
        <ele>1212.36</ele>
        <time>2013-05-09T13:29:52Z</time>
      </trkpt>
      <trkpt lat="44.84741" lon="3.49711">
        <ele>1212.84</ele>
        <time>2013-05-09T13:29:59Z</time>
      </trkpt>
      <trkpt lat="44.84737" lon="3.49715">
        <ele>1212.84</ele>
        <time>2013-05-09T13:30:03Z</time>
      </trkpt>
      <trkpt lat="44.84728" lon="3.49723">
        <ele>1212.84</ele>
        <time>2013-05-09T13:30:11Z</time>
      </trkpt>
      <trkpt lat="44.84724" lon="3.49729">
        <ele>1212.84</ele>
        <time>2013-05-09T13:30:15Z</time>
      </trkpt>
      <trkpt lat="44.84719" lon="3.49733">
        <ele>1212.84</ele>
        <time>2013-05-09T13:30:19Z</time>
      </trkpt>
      <trkpt lat="44.84715" lon="3.49739">
        <ele>1212.84</ele>
        <time>2013-05-09T13:30:23Z</time>
      </trkpt>
      <trkpt lat="44.84704" lon="3.49747">
        <ele>1212.84</ele>
        <time>2013-05-09T13:30:31Z</time>
      </trkpt>
      <trkpt lat="44.84687" lon="3.4976">
        <ele>1212.84</ele>
        <time>2013-05-09T13:30:45Z</time>
      </trkpt>
      <trkpt lat="44.84684" lon="3.49762">
        <ele>1212.84</ele>
        <time>2013-05-09T13:30:48Z</time>
      </trkpt>
      <trkpt lat="44.84682" lon="3.49766">
        <ele>1212.36</ele>
        <time>2013-05-09T13:30:52Z</time>
      </trkpt>
      <trkpt lat="44.84676" lon="3.49768">
        <ele>1212.84</ele>
        <time>2013-05-09T13:30:56Z</time>
      </trkpt>
      <trkpt lat="44.8467" lon="3.49773">
        <ele>1213.32</ele>
        <time>2013-05-09T13:31:01Z</time>
      </trkpt>
      <trkpt lat="44.84665" lon="3.49777">
        <ele>1212.84</ele>
        <time>2013-05-09T13:31:06Z</time>
      </trkpt>
      <trkpt lat="44.84657" lon="3.49778">
        <ele>1213.32</ele>
        <time>2013-05-09T13:31:11Z</time>
      </trkpt>
      <trkpt lat="44.84654" lon="3.49779">
        <ele>1213.32</ele>
        <time>2013-05-09T13:31:14Z</time>
      </trkpt>
      <trkpt lat="44.84634" lon="3.49782">
        <ele>1213.32</ele>
        <time>2013-05-09T13:31:29Z</time>
      </trkpt>
      <trkpt lat="44.84632" lon="3.49782">
        <ele>1213.32</ele>
        <time>2013-05-09T13:31:30Z</time>
      </trkpt>
      <trkpt lat="44.84629" lon="3.49782">
        <ele>1213.8</ele>
        <time>2013-05-09T13:31:32Z</time>
      </trkpt>
      <trkpt lat="44.84623" lon="3.4979">
        <ele>1213.8</ele>
        <time>2013-05-09T13:31:37Z</time>
      </trkpt>
      <trkpt lat="44.84617" lon="3.49793">
        <ele>1214.28</ele>
        <time>2013-05-09T13:31:42Z</time>
      </trkpt>
      <trkpt lat="44.84614" lon="3.49796">
        <ele>1214.28</ele>
        <time>2013-05-09T13:31:45Z</time>
      </trkpt>
      <trkpt lat="44.84603" lon="3.49799">
        <ele>1214.76</ele>
        <time>2013-05-09T13:31:52Z</time>
      </trkpt>
      <trkpt lat="44.84601" lon="3.49802">
        <ele>1214.76</ele>
        <time>2013-05-09T13:31:54Z</time>
      </trkpt>
      <trkpt lat="44.84597" lon="3.49804">
        <ele>1215.24</ele>
        <time>2013-05-09T13:31:57Z</time>
      </trkpt>
      <trkpt lat="44.84587" lon="3.49809">
        <ele>1215.72</ele>
        <time>2013-05-09T13:32:05Z</time>
      </trkpt>
      <trkpt lat="44.84571" lon="3.49819">
        <ele>1217.17</ele>
        <time>2013-05-09T13:32:19Z</time>
      </trkpt>
      <trkpt lat="44.84563" lon="3.49821">
        <ele>1217.17</ele>
        <time>2013-05-09T13:32:25Z</time>
      </trkpt>
      <trkpt lat="44.84544" lon="3.49821">
        <ele>1217.65</ele>
        <time>2013-05-09T13:32:38Z</time>
      </trkpt>
      <trkpt lat="44.84524" lon="3.49822">
        <ele>1219.09</ele>
        <time>2013-05-09T13:32:53Z</time>
      </trkpt>
      <trkpt lat="44.84519" lon="3.49824">
        <ele>1219.09</ele>
        <time>2013-05-09T13:32:56Z</time>
      </trkpt>
      <trkpt lat="44.84511" lon="3.49829">
        <ele>1220.05</ele>
        <time>2013-05-09T13:33:03Z</time>
      </trkpt>
      <trkpt lat="44.84503" lon="3.49838">
        <ele>1221.49</ele>
        <time>2013-05-09T13:33:10Z</time>
      </trkpt>
      <trkpt lat="44.84499" lon="3.49843">
        <ele>1221.49</ele>
        <time>2013-05-09T13:33:14Z</time>
      </trkpt>
      <trkpt lat="44.84492" lon="3.49847">
        <ele>1222.45</ele>
        <time>2013-05-09T13:33:20Z</time>
      </trkpt>
      <trkpt lat="44.84479" lon="3.49852">
        <ele>1224.86</ele>
        <time>2013-05-09T13:33:31Z</time>
      </trkpt>
      <trkpt lat="44.84478" lon="3.49853">
        <ele>1217.65</ele>
        <time>2013-05-09T13:33:32Z</time>
      </trkpt>
      <trkpt lat="44.84478" lon="3.49853">
        <ele>1225.34</ele>
        <time>2013-05-09T13:33:33Z</time>
      </trkpt>
      <trkpt lat="44.84462" lon="3.49852">
        <ele>1226.3</ele>
        <time>2013-05-09T13:33:46Z</time>
      </trkpt>
      <trkpt lat="44.84458" lon="3.49851">
        <ele>1224.86</ele>
        <time>2013-05-09T13:33:50Z</time>
      </trkpt>
      <trkpt lat="44.84443" lon="3.49844">
        <ele>1227.26</ele>
        <time>2013-05-09T13:34:03Z</time>
      </trkpt>
      <trkpt lat="44.84426" lon="3.49839">
        <ele>1228.7</ele>
        <time>2013-05-09T13:34:14Z</time>
      </trkpt>
      <trkpt lat="44.84422" lon="3.49838">
        <ele>1229.18</ele>
        <time>2013-05-09T13:34:17Z</time>
      </trkpt>
      <trkpt lat="44.84416" lon="3.49835">
        <ele>1229.66</ele>
        <time>2013-05-09T13:34:21Z</time>
      </trkpt>
      <trkpt lat="44.84405" lon="3.49833">
        <ele>1229.66</ele>
        <time>2013-05-09T13:34:29Z</time>
      </trkpt>
      <trkpt lat="44.84387" lon="3.49829">
        <ele>1233.03</ele>
        <time>2013-05-09T13:34:42Z</time>
      </trkpt>
      <trkpt lat="44.84385" lon="3.49828">
        <ele>1229.18</ele>
        <time>2013-05-09T13:34:43Z</time>
      </trkpt>
      <trkpt lat="44.84384" lon="3.49827">
        <ele>1229.66</ele>
        <time>2013-05-09T13:34:44Z</time>
      </trkpt>
      <trkpt lat="44.84376" lon="3.49826">
        <ele>1229.18</ele>
        <time>2013-05-09T13:34:54Z</time>
      </trkpt>
      <trkpt lat="44.8437" lon="3.49821">
        <ele>1228.7</ele>
        <time>2013-05-09T13:34:59Z</time>
      </trkpt>
      <trkpt lat="44.84354" lon="3.49808">
        <ele>1227.74</ele>
        <time>2013-05-09T13:35:11Z</time>
      </trkpt>
      <trkpt lat="44.84352" lon="3.49807">
        <ele>1228.22</ele>
        <time>2013-05-09T13:35:13Z</time>
      </trkpt>
      <trkpt lat="44.84347" lon="3.49806">
        <ele>1228.22</ele>
        <time>2013-05-09T13:35:15Z</time>
      </trkpt>
      <trkpt lat="44.84334" lon="3.49809">
        <ele>1227.74</ele>
        <time>2013-05-09T13:35:24Z</time>
      </trkpt>
      <trkpt lat="44.84315" lon="3.49812">
        <ele>1228.7</ele>
        <time>2013-05-09T13:35:38Z</time>
      </trkpt>
      <trkpt lat="44.84309" lon="3.49813">
        <ele>1228.7</ele>
        <time>2013-05-09T13:35:43Z</time>
      </trkpt>
      <trkpt lat="44.84302" lon="3.4981">
        <ele>1227.74</ele>
        <time>2013-05-09T13:35:51Z</time>
      </trkpt>
      <trkpt lat="44.84301" lon="3.49807">
        <ele>1227.26</ele>
        <time>2013-05-09T13:35:53Z</time>
      </trkpt>
      <trkpt lat="44.84299" lon="3.49805">
        <ele>1227.74</ele>
        <time>2013-05-09T13:35:57Z</time>
      </trkpt>
      <trkpt lat="44.84296" lon="3.49805">
        <ele>1227.74</ele>
        <time>2013-05-09T13:36:00Z</time>
      </trkpt>
      <trkpt lat="44.8429" lon="3.498">
        <ele>1229.18</ele>
        <time>2013-05-09T13:36:14Z</time>
      </trkpt>
      <trkpt lat="44.84284" lon="3.49783">
        <ele>1231.11</ele>
        <time>2013-05-09T13:36:24Z</time>
      </trkpt>
      <trkpt lat="44.84279" lon="3.4976">
        <ele>1233.03</ele>
        <time>2013-05-09T13:36:38Z</time>
      </trkpt>
      <trkpt lat="44.84278" lon="3.49752">
        <ele>1232.55</ele>
        <time>2013-05-09T13:36:42Z</time>
      </trkpt>
      <trkpt lat="44.84274" lon="3.49739">
        <ele>1233.99</ele>
        <time>2013-05-09T13:36:56Z</time>
      </trkpt>
      <trkpt lat="44.84271" lon="3.49734">
        <ele>1233.51</ele>
        <time>2013-05-09T13:37:06Z</time>
      </trkpt>
      <trkpt lat="44.84271" lon="3.49732">
        <ele>1233.51</ele>
        <time>2013-05-09T13:37:08Z</time>
      </trkpt>
      <trkpt lat="44.84257" lon="3.49713">
        <ele>1233.03</ele>
        <time>2013-05-09T13:37:21Z</time>
      </trkpt>
      <trkpt lat="44.84253" lon="3.49704">
        <ele>1233.51</ele>
        <time>2013-05-09T13:37:28Z</time>
      </trkpt>
      <trkpt lat="44.84249" lon="3.49688">
        <ele>1232.55</ele>
        <time>2013-05-09T13:37:43Z</time>
      </trkpt>
      <trkpt lat="44.84248" lon="3.49672">
        <ele>1233.51</ele>
        <time>2013-05-09T13:37:57Z</time>
      </trkpt>
      <trkpt lat="44.84242" lon="3.49664">
        <ele>1233.51</ele>
        <time>2013-05-09T13:38:03Z</time>
      </trkpt>
      <trkpt lat="44.84235" lon="3.4965">
        <ele>1234.47</ele>
        <time>2013-05-09T13:38:10Z</time>
      </trkpt>
      <trkpt lat="44.8422" lon="3.4963">
        <ele>1235.43</ele>
        <time>2013-05-09T13:38:25Z</time>
      </trkpt>
      <trkpt lat="44.84207" lon="3.49613">
        <ele>1237.35</ele>
        <time>2013-05-09T13:38:38Z</time>
      </trkpt>
      <trkpt lat="44.84206" lon="3.49612">
        <ele>1237.83</ele>
        <time>2013-05-09T13:38:40Z</time>
      </trkpt>
      <trkpt lat="44.84198" lon="3.49595">
        <ele>1238.8</ele>
        <time>2013-05-09T13:38:53Z</time>
      </trkpt>
      <trkpt lat="44.84192" lon="3.49589">
        <ele>1238.8</ele>
        <time>2013-05-09T13:38:57Z</time>
      </trkpt>
      <trkpt lat="44.84182" lon="3.4957">
        <ele>1240.24</ele>
        <time>2013-05-09T13:39:11Z</time>
      </trkpt>
      <trkpt lat="44.84175" lon="3.49551">
        <ele>1240.72</ele>
        <time>2013-05-09T13:39:24Z</time>
      </trkpt>
      <trkpt lat="44.84168" lon="3.49536">
        <ele>1241.2</ele>
        <time>2013-05-09T13:39:37Z</time>
      </trkpt>
      <trkpt lat="44.84161" lon="3.49521">
        <ele>1242.64</ele>
        <time>2013-05-09T13:39:49Z</time>
      </trkpt>
      <trkpt lat="44.84149" lon="3.49515">
        <ele>1245.04</ele>
        <time>2013-05-09T13:39:59Z</time>
      </trkpt>
      <trkpt lat="44.84137" lon="3.49514">
        <ele>1246.97</ele>
        <time>2013-05-09T13:40:08Z</time>
      </trkpt>
      <trkpt lat="44.84126" lon="3.49512">
        <ele>1248.89</ele>
        <time>2013-05-09T13:40:18Z</time>
      </trkpt>
      <trkpt lat="44.84117" lon="3.49513">
        <ele>1249.37</ele>
        <time>2013-05-09T13:40:23Z</time>
      </trkpt>
      <trkpt lat="44.84109" lon="3.49514">
        <ele>1250.81</ele>
        <time>2013-05-09T13:40:29Z</time>
      </trkpt>
      <trkpt lat="44.84102" lon="3.49516">
        <ele>1252.25</ele>
        <time>2013-05-09T13:40:34Z</time>
      </trkpt>
      <trkpt lat="44.84091" lon="3.49515">
        <ele>1254.66</ele>
        <time>2013-05-09T13:40:47Z</time>
      </trkpt>
      <trkpt lat="44.84082" lon="3.49521">
        <ele>1256.1</ele>
        <time>2013-05-09T13:40:57Z</time>
      </trkpt>
      <trkpt lat="44.84071" lon="3.49526">
        <ele>1258.5</ele>
        <time>2013-05-09T13:41:08Z</time>
      </trkpt>
      <trkpt lat="44.8406" lon="3.4953">
        <ele>1259.94</ele>
        <time>2013-05-09T13:41:20Z</time>
      </trkpt>
      <trkpt lat="44.84051" lon="3.49537">
        <ele>1261.39</ele>
        <time>2013-05-09T13:41:30Z</time>
      </trkpt>
      <trkpt lat="44.84045" lon="3.49544">
        <ele>1262.83</ele>
        <time>2013-05-09T13:41:37Z</time>
      </trkpt>
      <trkpt lat="44.84036" lon="3.49548">
        <ele>1263.31</ele>
        <time>2013-05-09T13:41:40Z</time>
      </trkpt>
      <trkpt lat="44.84019" lon="3.49557">
        <ele>1265.71</ele>
        <time>2013-05-09T13:41:52Z</time>
      </trkpt>
      <trkpt lat="44.84007" lon="3.49559">
        <ele>1267.16</ele>
        <time>2013-05-09T13:42:02Z</time>
      </trkpt>
      <trkpt lat="44.83998" lon="3.49563">
        <ele>1268.6</ele>
        <time>2013-05-09T13:42:11Z</time>
      </trkpt>
      <trkpt lat="44.83985" lon="3.49565">
        <ele>1269.56</ele>
        <time>2013-05-09T13:42:23Z</time>
      </trkpt>
      <trkpt lat="44.83974" lon="3.49566">
        <ele>1270.52</ele>
        <time>2013-05-09T13:42:35Z</time>
      </trkpt>
      <trkpt lat="44.83969" lon="3.49565">
        <ele>1270.52</ele>
        <time>2013-05-09T13:42:38Z</time>
      </trkpt>
      <trkpt lat="44.83951" lon="3.49555">
        <ele>1271.48</ele>
        <time>2013-05-09T13:42:47Z</time>
      </trkpt>
      <trkpt lat="44.8395" lon="3.49554">
        <ele>1271.48</ele>
        <time>2013-05-09T13:42:55Z</time>
      </trkpt>
      <trkpt lat="44.83929" lon="3.4955">
        <ele>1272.44</ele>
        <time>2013-05-09T13:43:04Z</time>
      </trkpt>
      <trkpt lat="44.83928" lon="3.49551">
        <ele>1272.92</ele>
        <time>2013-05-09T13:43:09Z</time>
      </trkpt>
      <trkpt lat="44.83924" lon="3.49551">
        <ele>1274.85</ele>
        <time>2013-05-09T13:43:11Z</time>
      </trkpt>
      <trkpt lat="44.83912" lon="3.4955">
        <ele>1275.33</ele>
        <time>2013-05-09T13:43:22Z</time>
      </trkpt>
      <trkpt lat="44.83895" lon="3.49545">
        <ele>1276.77</ele>
        <time>2013-05-09T13:43:32Z</time>
      </trkpt>
      <trkpt lat="44.83894" lon="3.49545">
        <ele>1277.25</ele>
        <time>2013-05-09T13:43:34Z</time>
      </trkpt>
      <trkpt lat="44.83883" lon="3.4955">
        <ele>1279.17</ele>
        <time>2013-05-09T13:43:45Z</time>
      </trkpt>
      <trkpt lat="44.83877" lon="3.49557">
        <ele>1280.61</ele>
        <time>2013-05-09T13:43:49Z</time>
      </trkpt>
      <trkpt lat="44.83871" lon="3.49562">
        <ele>1282.06</ele>
        <time>2013-05-09T13:43:58Z</time>
      </trkpt>
      <trkpt lat="44.83862" lon="3.4956">
        <ele>1283.02</ele>
        <time>2013-05-09T13:44:06Z</time>
      </trkpt>
      <trkpt lat="44.83853" lon="3.49562">
        <ele>1283.98</ele>
        <time>2013-05-09T13:44:10Z</time>
      </trkpt>
      <trkpt lat="44.83838" lon="3.49566">
        <ele>1285.9</ele>
        <time>2013-05-09T13:44:22Z</time>
      </trkpt>
      <trkpt lat="44.83833" lon="3.49566">
        <ele>1286.38</ele>
        <time>2013-05-09T13:44:24Z</time>
      </trkpt>
      <trkpt lat="44.83822" lon="3.49569">
        <ele>1287.34</ele>
        <time>2013-05-09T13:44:34Z</time>
      </trkpt>
      <trkpt lat="44.83806" lon="3.49573">
        <ele>1283.02</ele>
        <time>2013-05-09T13:44:45Z</time>
      </trkpt>
      <trkpt lat="44.83805" lon="3.49573">
        <ele>1289.75</ele>
        <time>2013-05-09T13:44:46Z</time>
      </trkpt>
      <trkpt lat="44.83802" lon="3.49574">
        <ele>1293.11</ele>
        <time>2013-05-09T13:44:48Z</time>
      </trkpt>
      <trkpt lat="44.83801" lon="3.49574">
        <ele>1289.27</ele>
        <time>2013-05-09T13:44:49Z</time>
      </trkpt>
      <trkpt lat="44.83792" lon="3.49577">
        <ele>1290.23</ele>
        <time>2013-05-09T13:45:01Z</time>
      </trkpt>
      <trkpt lat="44.8379" lon="3.49577">
        <ele>1290.23</ele>
        <time>2013-05-09T13:45:02Z</time>
      </trkpt>
      <trkpt lat="44.83782" lon="3.49577">
        <ele>1291.19</ele>
        <time>2013-05-09T13:45:17Z</time>
      </trkpt>
      <trkpt lat="44.83782" lon="3.49577">
        <ele>1291.19</ele>
        <time>2013-05-09T13:45:34Z</time>
      </trkpt>
      <trkpt lat="44.83773" lon="3.49579">
        <ele>1293.11</ele>
        <time>2013-05-09T13:45:46Z</time>
      </trkpt>
      <trkpt lat="44.83769" lon="3.49579">
        <ele>1294.07</ele>
        <time>2013-05-09T13:45:50Z</time>
      </trkpt>
      <trkpt lat="44.83762" lon="3.4958">
        <ele>1295.03</ele>
        <time>2013-05-09T13:45:58Z</time>
      </trkpt>
      <trkpt lat="44.8375" lon="3.49579">
        <ele>1296.48</ele>
        <time>2013-05-09T13:46:10Z</time>
      </trkpt>
      <trkpt lat="44.83744" lon="3.49578">
        <ele>1296.48</ele>
        <time>2013-05-09T13:46:17Z</time>
      </trkpt>
      <trkpt lat="44.83738" lon="3.49575">
        <ele>1296.96</ele>
        <time>2013-05-09T13:46:22Z</time>
      </trkpt>
      <trkpt lat="44.83727" lon="3.49572">
        <ele>1296.48</ele>
        <time>2013-05-09T13:46:30Z</time>
      </trkpt>
      <trkpt lat="44.83716" lon="3.49569">
        <ele>1297.44</ele>
        <time>2013-05-09T13:46:41Z</time>
      </trkpt>
      <trkpt lat="44.83706" lon="3.49571">
        <ele>1297.92</ele>
        <time>2013-05-09T13:46:49Z</time>
      </trkpt>
      <trkpt lat="44.8369" lon="3.49566">
        <ele>1297.92</ele>
        <time>2013-05-09T13:47:03Z</time>
      </trkpt>
      <trkpt lat="44.83681" lon="3.49564">
        <ele>1299.36</ele>
        <time>2013-05-09T13:47:11Z</time>
      </trkpt>
      <trkpt lat="44.83677" lon="3.49564">
        <ele>1298.88</ele>
        <time>2013-05-09T13:47:14Z</time>
      </trkpt>
      <trkpt lat="44.8366" lon="3.4956">
        <ele>1300.32</ele>
        <time>2013-05-09T13:47:30Z</time>
      </trkpt>
      <trkpt lat="44.83656" lon="3.49559">
        <ele>1300.32</ele>
        <time>2013-05-09T13:47:33Z</time>
      </trkpt>
      <trkpt lat="44.83634" lon="3.49553">
        <ele>1301.28</ele>
        <time>2013-05-09T13:47:47Z</time>
      </trkpt>
      <trkpt lat="44.83628" lon="3.49551">
        <ele>1300.8</ele>
        <time>2013-05-09T13:47:52Z</time>
      </trkpt>
      <trkpt lat="44.83614" lon="3.49548">
        <ele>1301.28</ele>
        <time>2013-05-09T13:48:03Z</time>
      </trkpt>
      <trkpt lat="44.83609" lon="3.49548">
        <ele>1301.28</ele>
        <time>2013-05-09T13:48:06Z</time>
      </trkpt>
      <trkpt lat="44.83599" lon="3.49547">
        <ele>1297.44</ele>
        <time>2013-05-09T13:48:11Z</time>
      </trkpt>
      <trkpt lat="44.83598" lon="3.49547">
        <ele>1302.24</ele>
        <time>2013-05-09T13:48:12Z</time>
      </trkpt>
      <trkpt lat="44.83586" lon="3.49546">
        <ele>1301.76</ele>
        <time>2013-05-09T13:48:20Z</time>
      </trkpt>
      <trkpt lat="44.83565" lon="3.49541">
        <ele>1297.92</ele>
        <time>2013-05-09T13:48:35Z</time>
      </trkpt>
      <trkpt lat="44.83563" lon="3.49541">
        <ele>1302.72</ele>
        <time>2013-05-09T13:48:36Z</time>
      </trkpt>
      <trkpt lat="44.83558" lon="3.49541">
        <ele>1302.24</ele>
        <time>2013-05-09T13:48:41Z</time>
      </trkpt>
      <trkpt lat="44.83553" lon="3.49543">
        <ele>1303.69</ele>
        <time>2013-05-09T13:48:48Z</time>
      </trkpt>
      <trkpt lat="44.8355" lon="3.49543">
        <ele>1303.2</ele>
        <time>2013-05-09T13:48:51Z</time>
      </trkpt>
      <trkpt lat="44.83531" lon="3.49546">
        <ele>1304.65</ele>
        <time>2013-05-09T13:49:05Z</time>
      </trkpt>
      <trkpt lat="44.83528" lon="3.49546">
        <ele>1304.17</ele>
        <time>2013-05-09T13:49:18Z</time>
      </trkpt>
      <trkpt lat="44.83528" lon="3.49546">
        <ele>1304.17</ele>
        <time>2013-05-09T13:49:25Z</time>
      </trkpt>
      <trkpt lat="44.83526" lon="3.49551">
        <ele>1305.13</ele>
        <time>2013-05-09T13:49:29Z</time>
      </trkpt>
      <trkpt lat="44.83522" lon="3.49563">
        <ele>1306.09</ele>
        <time>2013-05-09T13:49:37Z</time>
      </trkpt>
      <trkpt lat="44.8352" lon="3.49569">
        <ele>1306.57</ele>
        <time>2013-05-09T13:49:43Z</time>
      </trkpt>
      <trkpt lat="44.83517" lon="3.49583">
        <ele>1308.49</ele>
        <time>2013-05-09T13:49:56Z</time>
      </trkpt>
      <trkpt lat="44.83514" lon="3.49589">
        <ele>1308.97</ele>
        <time>2013-05-09T13:50:01Z</time>
      </trkpt>
      <trkpt lat="44.83513" lon="3.49592">
        <ele>1308.97</ele>
        <time>2013-05-09T13:50:03Z</time>
      </trkpt>
      <trkpt lat="44.83511" lon="3.49613">
        <ele>1311.86</ele>
        <time>2013-05-09T13:50:17Z</time>
      </trkpt>
      <trkpt lat="44.83508" lon="3.4963">
        <ele>1312.82</ele>
        <time>2013-05-09T13:50:30Z</time>
      </trkpt>
      <trkpt lat="44.83507" lon="3.49637">
        <ele>1313.3</ele>
        <time>2013-05-09T13:50:36Z</time>
      </trkpt>
      <trkpt lat="44.83506" lon="3.4964">
        <ele>1313.78</ele>
        <time>2013-05-09T13:50:38Z</time>
      </trkpt>
      <trkpt lat="44.83505" lon="3.49658">
        <ele>1315.22</ele>
        <time>2013-05-09T13:50:51Z</time>
      </trkpt>
      <trkpt lat="44.83503" lon="3.49664">
        <ele>1316.66</ele>
        <time>2013-05-09T13:50:56Z</time>
      </trkpt>
      <trkpt lat="44.83504" lon="3.49674">
        <ele>1317.62</ele>
        <time>2013-05-09T13:51:07Z</time>
      </trkpt>
      <trkpt lat="44.83504" lon="3.49674">
        <ele>1318.1</ele>
        <time>2013-05-09T13:51:09Z</time>
      </trkpt>
      <trkpt lat="44.83505" lon="3.49688">
        <ele>1320.51</ele>
        <time>2013-05-09T13:51:20Z</time>
      </trkpt>
      <trkpt lat="44.83506" lon="3.49696">
        <ele>1321.47</ele>
        <time>2013-05-09T13:51:24Z</time>
      </trkpt>
      <trkpt lat="44.83504" lon="3.4971">
        <ele>1322.91</ele>
        <time>2013-05-09T13:51:33Z</time>
      </trkpt>
      <trkpt lat="44.83502" lon="3.49713">
        <ele>1323.39</ele>
        <time>2013-05-09T13:51:36Z</time>
      </trkpt>
      <trkpt lat="44.83499" lon="3.49721">
        <ele>1324.83</ele>
        <time>2013-05-09T13:51:47Z</time>
      </trkpt>
      <trkpt lat="44.83494" lon="3.49727">
        <ele>1325.31</ele>
        <time>2013-05-09T13:51:57Z</time>
      </trkpt>
      <trkpt lat="44.83491" lon="3.4973">
        <ele>1325.8</ele>
        <time>2013-05-09T13:52:04Z</time>
      </trkpt>
      <trkpt lat="44.83485" lon="3.4973">
        <ele>1325.8</ele>
        <time>2013-05-09T13:52:15Z</time>
      </trkpt>
      <trkpt lat="44.83482" lon="3.49733">
        <ele>1324.83</ele>
        <time>2013-05-09T13:52:27Z</time>
      </trkpt>
      <trkpt lat="44.83471" lon="3.49737">
        <ele>1324.35</ele>
        <time>2013-05-09T13:52:38Z</time>
      </trkpt>
      <trkpt lat="44.83461" lon="3.49736">
        <ele>1323.39</ele>
        <time>2013-05-09T13:52:48Z</time>
      </trkpt>
      <trkpt lat="44.83443" lon="3.49733">
        <ele>1322.91</ele>
        <time>2013-05-09T13:53:03Z</time>
      </trkpt>
      <trkpt lat="44.83423" lon="3.49728">
        <ele>1322.91</ele>
        <time>2013-05-09T13:53:15Z</time>
      </trkpt>
      <trkpt lat="44.83414" lon="3.49725">
        <ele>1323.39</ele>
        <time>2013-05-09T13:53:22Z</time>
      </trkpt>
      <trkpt lat="44.83393" lon="3.49724">
        <ele>1321.95</ele>
        <time>2013-05-09T13:53:38Z</time>
      </trkpt>
      <trkpt lat="44.83376" lon="3.49724">
        <ele>1322.43</ele>
        <time>2013-05-09T13:53:43Z</time>
      </trkpt>
      <trkpt lat="44.83366" lon="3.49722">
        <ele>1317.14</ele>
        <time>2013-05-09T13:53:46Z</time>
      </trkpt>
      <trkpt lat="44.83362" lon="3.49721">
        <ele>1322.91</ele>
        <time>2013-05-09T13:53:49Z</time>
      </trkpt>
      <trkpt lat="44.83359" lon="3.4972">
        <ele>1318.1</ele>
        <time>2013-05-09T13:53:51Z</time>
      </trkpt>
      <trkpt lat="44.83357" lon="3.49719">
        <ele>1322.43</ele>
        <time>2013-05-09T13:53:52Z</time>
      </trkpt>
      <trkpt lat="44.83356" lon="3.49719">
        <ele>1326.28</ele>
        <time>2013-05-09T13:53:53Z</time>
      </trkpt>
      <trkpt lat="44.83355" lon="3.49719">
        <ele>1324.83</ele>
        <time>2013-05-09T13:53:54Z</time>
      </trkpt>
      <trkpt lat="44.83353" lon="3.49718">
        <ele>1315.7</ele>
        <time>2013-05-09T13:53:55Z</time>
      </trkpt>
      <trkpt lat="44.83352" lon="3.49718">
        <ele>1330.6</ele>
        <time>2013-05-09T13:53:56Z</time>
      </trkpt>
      <trkpt lat="44.83351" lon="3.49718">
        <ele>1323.39</ele>
        <time>2013-05-09T13:53:57Z</time>
      </trkpt>
      <trkpt lat="44.83338" lon="3.49717">
        <ele>1323.39</ele>
        <time>2013-05-09T13:54:10Z</time>
      </trkpt>
      <trkpt lat="44.83336" lon="3.49713">
        <ele>1322.91</ele>
        <time>2013-05-09T13:54:13Z</time>
      </trkpt>
      <trkpt lat="44.83334" lon="3.497">
        <ele>1323.39</ele>
        <time>2013-05-09T13:54:23Z</time>
      </trkpt>
      <trkpt lat="44.83325" lon="3.49694">
        <ele>1324.83</ele>
        <time>2013-05-09T13:54:34Z</time>
      </trkpt>
      <trkpt lat="44.83315" lon="3.49691">
        <ele>1325.8</ele>
        <time>2013-05-09T13:54:46Z</time>
      </trkpt>
      <trkpt lat="44.8331" lon="3.4969">
        <ele>1326.28</ele>
        <time>2013-05-09T13:54:51Z</time>
      </trkpt>
      <trkpt lat="44.83297" lon="3.49687">
        <ele>1327.72</ele>
        <time>2013-05-09T13:55:03Z</time>
      </trkpt>
      <trkpt lat="44.83279" lon="3.4968">
        <ele>1328.68</ele>
        <time>2013-05-09T13:55:19Z</time>
      </trkpt>
      <trkpt lat="44.83266" lon="3.49675">
        <ele>1329.16</ele>
        <time>2013-05-09T13:55:25Z</time>
      </trkpt>
      <trkpt lat="44.83247" lon="3.49672">
        <ele>1329.64</ele>
        <time>2013-05-09T13:55:39Z</time>
      </trkpt>
      <trkpt lat="44.83233" lon="3.49671">
        <ele>1331.08</ele>
        <time>2013-05-09T13:55:53Z</time>
      </trkpt>
      <trkpt lat="44.8321" lon="3.49662">
        <ele>1331.56</ele>
        <time>2013-05-09T13:56:10Z</time>
      </trkpt>
      <trkpt lat="44.83207" lon="3.49661">
        <ele>1331.56</ele>
        <time>2013-05-09T13:56:14Z</time>
      </trkpt>
      <trkpt lat="44.83183" lon="3.49652">
        <ele>1332.04</ele>
        <time>2013-05-09T13:56:27Z</time>
      </trkpt>
      <trkpt lat="44.83182" lon="3.49653">
        <ele>1332.04</ele>
        <time>2013-05-09T13:56:28Z</time>
      </trkpt>
      <trkpt lat="44.83175" lon="3.49652">
        <ele>1332.04</ele>
        <time>2013-05-09T13:56:32Z</time>
      </trkpt>
      <trkpt lat="44.83151" lon="3.49645">
        <ele>1331.56</ele>
        <time>2013-05-09T13:56:46Z</time>
      </trkpt>
      <trkpt lat="44.83136" lon="3.4964">
        <ele>1332.04</ele>
        <time>2013-05-09T13:56:58Z</time>
      </trkpt>
      <trkpt lat="44.83126" lon="3.49632">
        <ele>1332.52</ele>
        <time>2013-05-09T13:57:07Z</time>
      </trkpt>
      <trkpt lat="44.83121" lon="3.4963">
        <ele>1333.01</ele>
        <time>2013-05-09T13:57:14Z</time>
      </trkpt>
      <trkpt lat="44.83116" lon="3.49631">
        <ele>1332.52</ele>
        <time>2013-05-09T13:57:18Z</time>
      </trkpt>
      <trkpt lat="44.8311" lon="3.49631">
        <ele>1333.01</ele>
        <time>2013-05-09T13:57:23Z</time>
      </trkpt>
      <trkpt lat="44.83105" lon="3.4963">
        <ele>1333.01</ele>
        <time>2013-05-09T13:57:33Z</time>
      </trkpt>
      <trkpt lat="44.83102" lon="3.49629">
        <ele>1333.01</ele>
        <time>2013-05-09T13:57:36Z</time>
      </trkpt>
      <trkpt lat="44.83082" lon="3.49624">
        <ele>1334.45</ele>
        <time>2013-05-09T13:57:52Z</time>
      </trkpt>
      <trkpt lat="44.8306" lon="3.49621">
        <ele>1334.45</ele>
        <time>2013-05-09T13:58:10Z</time>
      </trkpt>
      <trkpt lat="44.83035" lon="3.49613">
        <ele>1334.45</ele>
        <time>2013-05-09T13:58:29Z</time>
      </trkpt>
      <trkpt lat="44.83024" lon="3.49609">
        <ele>1334.45</ele>
        <time>2013-05-09T13:58:39Z</time>
      </trkpt>
      <trkpt lat="44.8301" lon="3.49605">
        <ele>1333.97</ele>
        <time>2013-05-09T13:58:50Z</time>
      </trkpt>
      <trkpt lat="44.82997" lon="3.49601">
        <ele>1334.45</ele>
        <time>2013-05-09T13:59:02Z</time>
      </trkpt>
      <trkpt lat="44.82996" lon="3.49601">
        <ele>1334.45</ele>
        <time>2013-05-09T13:59:03Z</time>
      </trkpt>
      <trkpt lat="44.82985" lon="3.49605">
        <ele>1333.97</ele>
        <time>2013-05-09T13:59:16Z</time>
      </trkpt>
      <trkpt lat="44.82985" lon="3.49605">
        <ele>1334.45</ele>
        <time>2013-05-09T13:59:33Z</time>
      </trkpt>
      <trkpt lat="44.82985" lon="3.49605">
        <ele>1334.45</ele>
        <time>2013-05-09T13:59:54Z</time>
      </trkpt>
      <trkpt lat="44.82986" lon="3.49605">
        <ele>1334.93</ele>
        <time>2013-05-09T13:59:56Z</time>
      </trkpt>
      <trkpt lat="44.82999" lon="3.49607">
        <ele>1333.97</ele>
        <time>2013-05-09T14:00:11Z</time>
      </trkpt>
      <trkpt lat="44.82999" lon="3.49606">
        <ele>1333.97</ele>
        <time>2013-05-09T14:00:17Z</time>
      </trkpt>
      <trkpt lat="44.83006" lon="3.49596">
        <ele>1332.52</ele>
        <time>2013-05-09T14:00:28Z</time>
      </trkpt>
      <trkpt lat="44.8302" lon="3.49584">
        <ele>1331.56</ele>
        <time>2013-05-09T14:00:38Z</time>
      </trkpt>
      <trkpt lat="44.83037" lon="3.49572">
        <ele>1331.08</ele>
        <time>2013-05-09T14:00:50Z</time>
      </trkpt>
      <trkpt lat="44.8305" lon="3.49559">
        <ele>1331.08</ele>
        <time>2013-05-09T14:01:01Z</time>
      </trkpt>
      <trkpt lat="44.83064" lon="3.49538">
        <ele>1330.12</ele>
        <time>2013-05-09T14:01:14Z</time>
      </trkpt>
      <trkpt lat="44.83074" lon="3.49508">
        <ele>1329.64</ele>
        <time>2013-05-09T14:01:30Z</time>
      </trkpt>
      <trkpt lat="44.83081" lon="3.49475">
        <ele>1328.68</ele>
        <time>2013-05-09T14:01:48Z</time>
      </trkpt>
      <trkpt lat="44.83082" lon="3.49461">
        <ele>1328.2</ele>
        <time>2013-05-09T14:01:55Z</time>
      </trkpt>
      <trkpt lat="44.83087" lon="3.49436">
        <ele>1327.72</ele>
        <time>2013-05-09T14:02:09Z</time>
      </trkpt>
      <trkpt lat="44.83086" lon="3.49408">
        <ele>1326.76</ele>
        <time>2013-05-09T14:02:23Z</time>
      </trkpt>
      <trkpt lat="44.8308" lon="3.49381">
        <ele>1324.83</ele>
        <time>2013-05-09T14:02:37Z</time>
      </trkpt>
      <trkpt lat="44.83077" lon="3.49373">
        <ele>1324.83</ele>
        <time>2013-05-09T14:02:47Z</time>
      </trkpt>
      <trkpt lat="44.83074" lon="3.49367">
        <ele>1324.83</ele>
        <time>2013-05-09T14:02:51Z</time>
      </trkpt>
      <trkpt lat="44.83063" lon="3.49341">
        <ele>1323.39</ele>
        <time>2013-05-09T14:03:05Z</time>
      </trkpt>
      <trkpt lat="44.83049" lon="3.49313">
        <ele>1321.95</ele>
        <time>2013-05-09T14:03:23Z</time>
      </trkpt>
      <trkpt lat="44.83048" lon="3.49307">
        <ele>1321.95</ele>
        <time>2013-05-09T14:03:28Z</time>
      </trkpt>
      <trkpt lat="44.8305" lon="3.49305">
        <ele>1320.99</ele>
        <time>2013-05-09T14:03:42Z</time>
      </trkpt>
      <trkpt lat="44.8305" lon="3.49305">
        <ele>1321.95</ele>
        <time>2013-05-09T14:03:55Z</time>
      </trkpt>
      <trkpt lat="44.83047" lon="3.49306">
        <ele>1321.47</ele>
        <time>2013-05-09T14:03:58Z</time>
      </trkpt>
      <trkpt lat="44.83038" lon="3.49287">
        <ele>1320.51</ele>
        <time>2013-05-09T14:04:11Z</time>
      </trkpt>
      <trkpt lat="44.83028" lon="3.49262">
        <ele>1320.03</ele>
        <time>2013-05-09T14:04:25Z</time>
      </trkpt>
      <trkpt lat="44.83027" lon="3.4925">
        <ele>1318.1</ele>
        <time>2013-05-09T14:04:32Z</time>
      </trkpt>
      <trkpt lat="44.83039" lon="3.49234">
        <ele>1317.14</ele>
        <time>2013-05-09T14:04:46Z</time>
      </trkpt>
      <trkpt lat="44.83039" lon="3.49232">
        <ele>1316.66</ele>
        <time>2013-05-09T14:05:04Z</time>
      </trkpt>
      <trkpt lat="44.83038" lon="3.49234">
        <ele>1316.18</ele>
        <time>2013-05-09T14:05:23Z</time>
      </trkpt>
      <trkpt lat="44.83036" lon="3.49235">
        <ele>1317.14</ele>
        <time>2013-05-09T14:05:42Z</time>
      </trkpt>
      <trkpt lat="44.83017" lon="3.49228">
        <ele>1317.14</ele>
        <time>2013-05-09T14:05:58Z</time>
      </trkpt>
      <trkpt lat="44.83004" lon="3.49205">
        <ele>1314.74</ele>
        <time>2013-05-09T14:06:12Z</time>
      </trkpt>
      <trkpt lat="44.82994" lon="3.49183">
        <ele>1312.34</ele>
        <time>2013-05-09T14:06:24Z</time>
      </trkpt>
      <trkpt lat="44.82982" lon="3.49168">
        <ele>1310.9</ele>
        <time>2013-05-09T14:06:36Z</time>
      </trkpt>
      <trkpt lat="44.82966" lon="3.49147">
        <ele>1308.97</ele>
        <time>2013-05-09T14:06:50Z</time>
      </trkpt>
      <trkpt lat="44.82946" lon="3.4913">
        <ele>1306.57</ele>
        <time>2013-05-09T14:07:06Z</time>
      </trkpt>
      <trkpt lat="44.82919" lon="3.49115">
        <ele>1305.13</ele>
        <time>2013-05-09T14:07:25Z</time>
      </trkpt>
      <trkpt lat="44.82895" lon="3.49106">
        <ele>1302.72</ele>
        <time>2013-05-09T14:07:40Z</time>
      </trkpt>
      <trkpt lat="44.82875" lon="3.49097">
        <ele>1302.24</ele>
        <time>2013-05-09T14:07:55Z</time>
      </trkpt>
      <trkpt lat="44.82874" lon="3.49098">
        <ele>1301.76</ele>
        <time>2013-05-09T14:08:06Z</time>
      </trkpt>
      <trkpt lat="44.82874" lon="3.49098">
        <ele>1302.24</ele>
        <time>2013-05-09T14:08:11Z</time>
      </trkpt>
      <trkpt lat="44.8287" lon="3.49096">
        <ele>1302.72</ele>
        <time>2013-05-09T14:08:14Z</time>
      </trkpt>
      <trkpt lat="44.82846" lon="3.49086">
        <ele>1303.69</ele>
        <time>2013-05-09T14:08:31Z</time>
      </trkpt>
      <trkpt lat="44.82828" lon="3.49077">
        <ele>1304.65</ele>
        <time>2013-05-09T14:08:44Z</time>
      </trkpt>
      <trkpt lat="44.82809" lon="3.49066">
        <ele>1306.09</ele>
        <time>2013-05-09T14:08:59Z</time>
      </trkpt>
      <trkpt lat="44.82788" lon="3.49066">
        <ele>1307.05</ele>
        <time>2013-05-09T14:09:14Z</time>
      </trkpt>
      <trkpt lat="44.8277" lon="3.49078">
        <ele>1309.45</ele>
        <time>2013-05-09T14:09:27Z</time>
      </trkpt>
      <trkpt lat="44.82753" lon="3.49091">
        <ele>1311.38</ele>
        <time>2013-05-09T14:09:42Z</time>
      </trkpt>
      <trkpt lat="44.82738" lon="3.49107">
        <ele>1312.82</ele>
        <time>2013-05-09T14:09:56Z</time>
      </trkpt>
      <trkpt lat="44.8272" lon="3.4912">
        <ele>1312.82</ele>
        <time>2013-05-09T14:10:10Z</time>
      </trkpt>
      <trkpt lat="44.82696" lon="3.49119">
        <ele>1313.78</ele>
        <time>2013-05-09T14:10:27Z</time>
      </trkpt>
      <trkpt lat="44.82674" lon="3.49113">
        <ele>1312.82</ele>
        <time>2013-05-09T14:10:44Z</time>
      </trkpt>
      <trkpt lat="44.82651" lon="3.49103">
        <ele>1311.86</ele>
        <time>2013-05-09T14:11:00Z</time>
      </trkpt>
      <trkpt lat="44.82627" lon="3.49097">
        <ele>1310.41</ele>
        <time>2013-05-09T14:11:17Z</time>
      </trkpt>
      <trkpt lat="44.82607" lon="3.49083">
        <ele>1309.93</ele>
        <time>2013-05-09T14:11:32Z</time>
      </trkpt>
      <trkpt lat="44.8259" lon="3.49072">
        <ele>1308.97</ele>
        <time>2013-05-09T14:11:46Z</time>
      </trkpt>
      <trkpt lat="44.82566" lon="3.4906">
        <ele>1308.49</ele>
        <time>2013-05-09T14:12:03Z</time>
      </trkpt>
      <trkpt lat="44.82548" lon="3.49049">
        <ele>1307.53</ele>
        <time>2013-05-09T14:12:16Z</time>
      </trkpt>
      <trkpt lat="44.82529" lon="3.49037">
        <ele>1307.05</ele>
        <time>2013-05-09T14:12:33Z</time>
      </trkpt>
      <trkpt lat="44.82522" lon="3.49036">
        <ele>1307.05</ele>
        <time>2013-05-09T14:12:39Z</time>
      </trkpt>
      <trkpt lat="44.82517" lon="3.49035">
        <ele>1307.05</ele>
        <time>2013-05-09T14:12:44Z</time>
      </trkpt>
      <trkpt lat="44.82515" lon="3.49032">
        <ele>1307.05</ele>
        <time>2013-05-09T14:12:48Z</time>
      </trkpt>
      <trkpt lat="44.82508" lon="3.49029">
        <ele>1307.05</ele>
        <time>2013-05-09T14:12:55Z</time>
      </trkpt>
      <trkpt lat="44.82506" lon="3.49029">
        <ele>1307.53</ele>
        <time>2013-05-09T14:12:57Z</time>
      </trkpt>
      <trkpt lat="44.82494" lon="3.49018">
        <ele>1307.05</ele>
        <time>2013-05-09T14:13:12Z</time>
      </trkpt>
      <trkpt lat="44.82485" lon="3.49009">
        <ele>1307.05</ele>
        <time>2013-05-09T14:13:22Z</time>
      </trkpt>
      <trkpt lat="44.82476" lon="3.48988">
        <ele>1307.05</ele>
        <time>2013-05-09T14:13:39Z</time>
      </trkpt>
      <trkpt lat="44.8247" lon="3.48973">
        <ele>1306.57</ele>
        <time>2013-05-09T14:13:50Z</time>
      </trkpt>
      <trkpt lat="44.82465" lon="3.48955">
        <ele>1307.05</ele>
        <time>2013-05-09T14:14:04Z</time>
      </trkpt>
      <trkpt lat="44.82464" lon="3.48952">
        <ele>1307.05</ele>
        <time>2013-05-09T14:14:06Z</time>
      </trkpt>
      <trkpt lat="44.82458" lon="3.48937">
        <ele>1307.53</ele>
        <time>2013-05-09T14:14:21Z</time>
      </trkpt>
      <trkpt lat="44.82453" lon="3.48917">
        <ele>1308.49</ele>
        <time>2013-05-09T14:14:36Z</time>
      </trkpt>
      <trkpt lat="44.82452" lon="3.48908">
        <ele>1308.97</ele>
        <time>2013-05-09T14:14:43Z</time>
      </trkpt>
      <trkpt lat="44.82451" lon="3.48897">
        <ele>1308.97</ele>
        <time>2013-05-09T14:14:52Z</time>
      </trkpt>
      <trkpt lat="44.82451" lon="3.48891">
        <ele>1308.97</ele>
        <time>2013-05-09T14:14:56Z</time>
      </trkpt>
      <trkpt lat="44.82451" lon="3.48874">
        <ele>1308.97</ele>
        <time>2013-05-09T14:15:10Z</time>
      </trkpt>
      <trkpt lat="44.82448" lon="3.48856">
        <ele>1308.97</ele>
        <time>2013-05-09T14:15:25Z</time>
      </trkpt>
      <trkpt lat="44.82446" lon="3.48845">
        <ele>1308.97</ele>
        <time>2013-05-09T14:15:35Z</time>
      </trkpt>
      <trkpt lat="44.82446" lon="3.48826">
        <ele>1308.01</ele>
        <time>2013-05-09T14:15:48Z</time>
      </trkpt>
      <trkpt lat="44.82447" lon="3.48816">
        <ele>1308.49</ele>
        <time>2013-05-09T14:15:55Z</time>
      </trkpt>
      <trkpt lat="44.82446" lon="3.48807">
        <ele>1308.01</ele>
        <time>2013-05-09T14:16:01Z</time>
      </trkpt>
      <trkpt lat="44.82445" lon="3.48795">
        <ele>1308.01</ele>
        <time>2013-05-09T14:16:14Z</time>
      </trkpt>
      <trkpt lat="44.82446" lon="3.48778">
        <ele>1307.53</ele>
        <time>2013-05-09T14:16:27Z</time>
      </trkpt>
      <trkpt lat="44.8244" lon="3.4877">
        <ele>1307.05</ele>
        <time>2013-05-09T14:16:40Z</time>
      </trkpt>
      <trkpt lat="44.82437" lon="3.48768">
        <ele>1306.57</ele>
        <time>2013-05-09T14:16:53Z</time>
      </trkpt>
      <trkpt lat="44.82436" lon="3.48768">
        <ele>1307.05</ele>
        <time>2013-05-09T14:17:13Z</time>
      </trkpt>
      <trkpt lat="44.82434" lon="3.48758">
        <ele>1306.57</ele>
        <time>2013-05-09T14:17:18Z</time>
      </trkpt>
      <trkpt lat="44.82429" lon="3.48746">
        <ele>1305.61</ele>
        <time>2013-05-09T14:17:30Z</time>
      </trkpt>
      <trkpt lat="44.82414" lon="3.48742">
        <ele>1305.13</ele>
        <time>2013-05-09T14:17:46Z</time>
      </trkpt>
      <trkpt lat="44.82414" lon="3.48742">
        <ele>1304.65</ele>
        <time>2013-05-09T14:17:47Z</time>
      </trkpt>
      <trkpt lat="44.82409" lon="3.48734">
        <ele>1304.17</ele>
        <time>2013-05-09T14:17:54Z</time>
      </trkpt>
      <trkpt lat="44.8241" lon="3.48721">
        <ele>1303.2</ele>
        <time>2013-05-09T14:18:07Z</time>
      </trkpt>
      <trkpt lat="44.8241" lon="3.4872">
        <ele>1302.72</ele>
        <time>2013-05-09T14:18:08Z</time>
      </trkpt>
      <trkpt lat="44.82419" lon="3.48706">
        <ele>1302.24</ele>
        <time>2013-05-09T14:18:24Z</time>
      </trkpt>
      <trkpt lat="44.82421" lon="3.48708">
        <ele>1303.2</ele>
        <time>2013-05-09T14:18:38Z</time>
      </trkpt>
      <trkpt lat="44.82421" lon="3.48708">
        <ele>1303.2</ele>
        <time>2013-05-09T14:18:54Z</time>
      </trkpt>
      <trkpt lat="44.82426" lon="3.48695">
        <ele>1303.2</ele>
        <time>2013-05-09T14:19:12Z</time>
      </trkpt>
      <trkpt lat="44.82423" lon="3.48708">
        <ele>1303.69</ele>
        <time>2013-05-09T14:19:29Z</time>
      </trkpt>
      <trkpt lat="44.82424" lon="3.48717">
        <ele>1303.2</ele>
        <time>2013-05-09T14:19:50Z</time>
      </trkpt>
      <trkpt lat="44.82429" lon="3.48704">
        <ele>1303.69</ele>
        <time>2013-05-09T14:20:04Z</time>
      </trkpt>
      <trkpt lat="44.82424" lon="3.48714">
        <ele>1303.2</ele>
        <time>2013-05-09T14:20:22Z</time>
      </trkpt>
      <trkpt lat="44.82426" lon="3.48718">
        <ele>1303.2</ele>
        <time>2013-05-09T14:20:46Z</time>
      </trkpt>
      <trkpt lat="44.82423" lon="3.48717">
        <ele>1303.69</ele>
        <time>2013-05-09T14:21:06Z</time>
      </trkpt>
      <trkpt lat="44.8241" lon="3.48697">
        <ele>1303.2</ele>
        <time>2013-05-09T14:21:24Z</time>
      </trkpt>
      <trkpt lat="44.82413" lon="3.48693">
        <ele>1303.69</ele>
        <time>2013-05-09T14:21:44Z</time>
      </trkpt>
      <trkpt lat="44.8241" lon="3.48689">
        <ele>1303.69</ele>
        <time>2013-05-09T14:22:11Z</time>
      </trkpt>
      <trkpt lat="44.82406" lon="3.48666">
        <ele>1303.2</ele>
        <time>2013-05-09T14:22:37Z</time>
      </trkpt>
      <trkpt lat="44.82409" lon="3.48669">
        <ele>1303.2</ele>
        <time>2013-05-09T14:22:56Z</time>
      </trkpt>
      <trkpt lat="44.82411" lon="3.4867">
        <ele>1303.2</ele>
        <time>2013-05-09T14:23:16Z</time>
      </trkpt>
      <trkpt lat="44.82426" lon="3.4869">
        <ele>1302.72</ele>
        <time>2013-05-09T14:23:28Z</time>
      </trkpt>
      <trkpt lat="44.82423" lon="3.48695">
        <ele>1302.24</ele>
        <time>2013-05-09T14:23:32Z</time>
      </trkpt>
      <trkpt lat="44.82426" lon="3.48713">
        <ele>1302.24</ele>
        <time>2013-05-09T14:26:19Z</time>
      </trkpt>
      <trkpt lat="44.82429" lon="3.48718">
        <ele>1302.72</ele>
        <time>2013-05-09T14:26:42Z</time>
      </trkpt>
      <trkpt lat="44.82427" lon="3.48723">
        <ele>1302.24</ele>
        <time>2013-05-09T14:26:58Z</time>
      </trkpt>
      <trkpt lat="44.82427" lon="3.48739">
        <ele>1302.24</ele>
        <time>2013-05-09T14:27:21Z</time>
      </trkpt>
      <trkpt lat="44.82427" lon="3.4872">
        <ele>1302.24</ele>
        <time>2013-05-09T14:27:42Z</time>
      </trkpt>
      <trkpt lat="44.82426" lon="3.48708">
        <ele>1302.24</ele>
        <time>2013-05-09T14:29:03Z</time>
      </trkpt>
      <trkpt lat="44.82428" lon="3.48706">
        <ele>1302.72</ele>
        <time>2013-05-09T14:29:05Z</time>
      </trkpt>
      <trkpt lat="44.82431" lon="3.48692">
        <ele>1302.24</ele>
        <time>2013-05-09T14:29:30Z</time>
      </trkpt>
      <trkpt lat="44.82433" lon="3.48698">
        <ele>1302.24</ele>
        <time>2013-05-09T14:29:55Z</time>
      </trkpt>
      <trkpt lat="44.82435" lon="3.48708">
        <ele>1302.24</ele>
        <time>2013-05-09T14:30:14Z</time>
      </trkpt>
      <trkpt lat="44.82435" lon="3.48707">
        <ele>1302.24</ele>
        <time>2013-05-09T14:30:36Z</time>
      </trkpt>
      <trkpt lat="44.82434" lon="3.48707">
        <ele>1302.24</ele>
        <time>2013-05-09T14:30:59Z</time>
      </trkpt>
      <trkpt lat="44.82372" lon="3.48569">
        <ele>1302.72</ele>
        <time>2013-05-09T14:32:12Z</time>
      </trkpt>
      <trkpt lat="44.82385" lon="3.48618">
        <ele>1302.24</ele>
        <time>2013-05-09T14:32:34Z</time>
      </trkpt>
      <trkpt lat="44.82379" lon="3.48641">
        <ele>1302.72</ele>
        <time>2013-05-09T14:33:02Z</time>
      </trkpt>
      <trkpt lat="44.82376" lon="3.48656">
        <ele>1303.2</ele>
        <time>2013-05-09T14:33:24Z</time>
      </trkpt>
      <trkpt lat="44.82376" lon="3.48658">
        <ele>1303.2</ele>
        <time>2013-05-09T14:33:26Z</time>
      </trkpt>
      <trkpt lat="44.82432" lon="3.48696">
        <ele>1303.2</ele>
        <time>2013-05-09T14:33:45Z</time>
      </trkpt>
      <trkpt lat="44.82426" lon="3.48694">
        <ele>1303.2</ele>
        <time>2013-05-09T14:34:01Z</time>
      </trkpt>
      <trkpt lat="44.82422" lon="3.48692">
        <ele>1301.76</ele>
        <time>2013-05-09T14:34:18Z</time>
      </trkpt>
      <trkpt lat="44.82416" lon="3.4869">
        <ele>1301.76</ele>
        <time>2013-05-09T14:34:39Z</time>
      </trkpt>
      <trkpt lat="44.82416" lon="3.4869">
        <ele>1301.76</ele>
        <time>2013-05-09T14:34:57Z</time>
      </trkpt>
      <trkpt lat="44.82417" lon="3.48696">
        <ele>1301.76</ele>
        <time>2013-05-09T14:35:20Z</time>
      </trkpt>
      <trkpt lat="44.82416" lon="3.48698">
        <ele>1301.76</ele>
        <time>2013-05-09T14:35:38Z</time>
      </trkpt>
      <trkpt lat="44.82416" lon="3.48698">
        <ele>1301.76</ele>
        <time>2013-05-09T14:35:51Z</time>
      </trkpt>
      <trkpt lat="44.82415" lon="3.487">
        <ele>1301.76</ele>
        <time>2013-05-09T14:36:05Z</time>
      </trkpt>
      <trkpt lat="44.82417" lon="3.48701">
        <ele>1301.76</ele>
        <time>2013-05-09T14:36:17Z</time>
      </trkpt>
      <trkpt lat="44.82422" lon="3.48699">
        <ele>1300.8</ele>
        <time>2013-05-09T14:36:22Z</time>
      </trkpt>
      <trkpt lat="44.82439" lon="3.48672">
        <ele>1298.88</ele>
        <time>2013-05-09T14:36:34Z</time>
      </trkpt>
      <trkpt lat="44.82454" lon="3.48645">
        <ele>1297.44</ele>
        <time>2013-05-09T14:36:43Z</time>
      </trkpt>
      <trkpt lat="44.82463" lon="3.4865">
        <ele>1299.84</ele>
        <time>2013-05-09T14:36:56Z</time>
      </trkpt>
      <trkpt lat="44.82462" lon="3.48652">
        <ele>1301.28</ele>
        <time>2013-05-09T14:37:01Z</time>
      </trkpt>
      <trkpt lat="44.82465" lon="3.48655">
        <ele>1301.28</ele>
        <time>2013-05-09T14:37:05Z</time>
      </trkpt>
      <trkpt lat="44.82467" lon="3.48657">
        <ele>1302.24</ele>
        <time>2013-05-09T14:37:18Z</time>
      </trkpt>
      <trkpt lat="44.82467" lon="3.48657">
        <ele>1301.76</ele>
        <time>2013-05-09T14:37:41Z</time>
      </trkpt>
      <trkpt lat="44.82467" lon="3.48657">
        <ele>1301.28</ele>
        <time>2013-05-09T14:38:03Z</time>
      </trkpt>
      <trkpt lat="44.82465" lon="3.48669">
        <ele>1301.28</ele>
        <time>2013-05-09T14:38:23Z</time>
      </trkpt>
      <trkpt lat="44.82465" lon="3.48669">
        <ele>1301.28</ele>
        <time>2013-05-09T14:38:31Z</time>
      </trkpt>
      <trkpt lat="44.82471" lon="3.48656">
        <ele>1301.76</ele>
        <time>2013-05-09T14:38:51Z</time>
      </trkpt>
      <trkpt lat="44.82472" lon="3.48657">
        <ele>1301.76</ele>
        <time>2013-05-09T14:39:16Z</time>
      </trkpt>
      <trkpt lat="44.8247" lon="3.48666">
        <ele>1302.72</ele>
        <time>2013-05-09T14:39:36Z</time>
      </trkpt>
      <trkpt lat="44.82468" lon="3.48668">
        <ele>1304.17</ele>
        <time>2013-05-09T14:39:54Z</time>
      </trkpt>
      <trkpt lat="44.82466" lon="3.48671">
        <ele>1304.17</ele>
        <time>2013-05-09T14:40:13Z</time>
      </trkpt>
      <trkpt lat="44.82466" lon="3.48673">
        <ele>1303.2</ele>
        <time>2013-05-09T14:40:30Z</time>
      </trkpt>
      <trkpt lat="44.82466" lon="3.48673">
        <ele>1303.2</ele>
        <time>2013-05-09T14:40:53Z</time>
      </trkpt>
      <trkpt lat="44.82467" lon="3.48674">
        <ele>1302.72</ele>
        <time>2013-05-09T14:41:15Z</time>
      </trkpt>
      <trkpt lat="44.82466" lon="3.48676">
        <ele>1303.2</ele>
        <time>2013-05-09T14:41:40Z</time>
      </trkpt>
      <trkpt lat="44.82467" lon="3.48676">
        <ele>1302.72</ele>
        <time>2013-05-09T14:42:02Z</time>
      </trkpt>
      <trkpt lat="44.82471" lon="3.48675">
        <ele>1302.24</ele>
        <time>2013-05-09T14:42:22Z</time>
      </trkpt>
      <trkpt lat="44.82469" lon="3.48674">
        <ele>1302.72</ele>
        <time>2013-05-09T14:42:42Z</time>
      </trkpt>
      <trkpt lat="44.82466" lon="3.48677">
        <ele>1302.72</ele>
        <time>2013-05-09T14:43:07Z</time>
      </trkpt>
      <trkpt lat="44.82471" lon="3.48674">
        <ele>1302.72</ele>
        <time>2013-05-09T14:43:23Z</time>
      </trkpt>
      <trkpt lat="44.82471" lon="3.48674">
        <ele>1303.2</ele>
        <time>2013-05-09T14:43:51Z</time>
      </trkpt>
      <trkpt lat="44.82471" lon="3.48674">
        <ele>1303.2</ele>
        <time>2013-05-09T14:44:22Z</time>
      </trkpt>
      <trkpt lat="44.82469" lon="3.48672">
        <ele>1302.24</ele>
        <time>2013-05-09T14:44:50Z</time>
      </trkpt>
      <trkpt lat="44.82471" lon="3.48673">
        <ele>1302.24</ele>
        <time>2013-05-09T14:45:11Z</time>
      </trkpt>
      <trkpt lat="44.8247" lon="3.48673">
        <ele>1302.24</ele>
        <time>2013-05-09T14:45:35Z</time>
      </trkpt>
      <trkpt lat="44.8247" lon="3.4867">
        <ele>1302.72</ele>
        <time>2013-05-09T14:46:00Z</time>
      </trkpt>
      <trkpt lat="44.8247" lon="3.4867">
        <ele>1302.72</ele>
        <time>2013-05-09T14:46:30Z</time>
      </trkpt>
      <trkpt lat="44.82469" lon="3.4867">
        <ele>1301.76</ele>
        <time>2013-05-09T14:46:58Z</time>
      </trkpt>
      <trkpt lat="44.82467" lon="3.48676">
        <ele>1301.76</ele>
        <time>2013-05-09T14:47:25Z</time>
      </trkpt>
      <trkpt lat="44.82467" lon="3.48676">
        <ele>1301.28</ele>
        <time>2013-05-09T14:47:53Z</time>
      </trkpt>
      <trkpt lat="44.82467" lon="3.48677">
        <ele>1302.24</ele>
        <time>2013-05-09T14:48:19Z</time>
      </trkpt>
      <trkpt lat="44.82467" lon="3.48677">
        <ele>1301.76</ele>
        <time>2013-05-09T14:48:48Z</time>
      </trkpt>
      <trkpt lat="44.82467" lon="3.48677">
        <ele>1301.76</ele>
        <time>2013-05-09T14:49:16Z</time>
      </trkpt>
      <trkpt lat="44.82467" lon="3.48677">
        <ele>1301.76</ele>
        <time>2013-05-09T14:49:40Z</time>
      </trkpt>
      <trkpt lat="44.82469" lon="3.48673">
        <ele>1301.76</ele>
        <time>2013-05-09T14:50:12Z</time>
      </trkpt>
      <trkpt lat="44.8247" lon="3.48674">
        <ele>1301.76</ele>
        <time>2013-05-09T14:50:41Z</time>
      </trkpt>
      <trkpt lat="44.8247" lon="3.48677">
        <ele>1301.76</ele>
        <time>2013-05-09T14:51:10Z</time>
      </trkpt>
      <trkpt lat="44.82468" lon="3.48676">
        <ele>1301.28</ele>
        <time>2013-05-09T14:51:40Z</time>
      </trkpt>
      <trkpt lat="44.82468" lon="3.48676">
        <ele>1300.8</ele>
        <time>2013-05-09T14:52:16Z</time>
      </trkpt>
      <trkpt lat="44.82468" lon="3.48676">
        <ele>1301.28</ele>
        <time>2013-05-09T14:52:44Z</time>
      </trkpt>
      <trkpt lat="44.82466" lon="3.48676">
        <ele>1301.76</ele>
        <time>2013-05-09T14:53:07Z</time>
      </trkpt>
      <trkpt lat="44.82465" lon="3.48675">
        <ele>1301.28</ele>
        <time>2013-05-09T14:53:35Z</time>
      </trkpt>
      <trkpt lat="44.8246" lon="3.48678">
        <ele>1307.05</ele>
        <time>2013-05-09T14:53:54Z</time>
      </trkpt>
      <trkpt lat="44.8246" lon="3.48678">
        <ele>1302.24</ele>
        <time>2013-05-09T14:53:55Z</time>
      </trkpt>
      <trkpt lat="44.8246" lon="3.48678">
        <ele>1301.28</ele>
        <time>2013-05-09T14:54:17Z</time>
      </trkpt>
      <trkpt lat="44.82465" lon="3.48671">
        <ele>1300.8</ele>
        <time>2013-05-09T14:54:23Z</time>
      </trkpt>
      <trkpt lat="44.82465" lon="3.48671">
        <ele>1305.13</ele>
        <time>2013-05-09T14:54:24Z</time>
      </trkpt>
      <trkpt lat="44.82465" lon="3.48671">
        <ele>1301.76</ele>
        <time>2013-05-09T14:54:25Z</time>
      </trkpt>
      <trkpt lat="44.82464" lon="3.48671">
        <ele>1302.24</ele>
        <time>2013-05-09T14:54:45Z</time>
      </trkpt>
      <trkpt lat="44.82468" lon="3.48669">
        <ele>1301.76</ele>
        <time>2013-05-09T14:55:05Z</time>
      </trkpt>
      <trkpt lat="44.82472" lon="3.48669">
        <ele>1302.24</ele>
        <time>2013-05-09T14:55:09Z</time>
      </trkpt>
      <trkpt lat="44.82475" lon="3.48668">
        <ele>1301.76</ele>
        <time>2013-05-09T14:55:27Z</time>
      </trkpt>
      <trkpt lat="44.82468" lon="3.48667">
        <ele>1301.76</ele>
        <time>2013-05-09T14:55:36Z</time>
      </trkpt>
      <trkpt lat="44.82467" lon="3.48669">
        <ele>1302.24</ele>
        <time>2013-05-09T14:56:00Z</time>
      </trkpt>
    </trkseg>
  </trk>
</gpx>